<?xml version="1.0" encoding="UTF-8" standalone="no" ?>
<gpx xmlns="http://www.topografix.com/GPX/1/1" xmlns:xsi="http://www.w3.org/2001/XMLSchema-instance" xsi:schemaLocation="http://www.topografix.com/GPX/1/1 http://www.topografix.com/GPX/1/1/gpx.xsd" version="1.1" creator="VisuGPX - https://www.visugpx.com">
  <metadata>
    <name>Rando des collines - endurando - Greoux Les Bains</name>
    <desc><![CDATA[Endurando de 5 spéciales. (3spé   boucle orange 2spé)
Superbe organisation.

]]></desc>
  </metadata>
  <trk>
    <name><![CDATA[2015-11-11 08:40]]></name>
    <desc><![CDATA[<h1>OruxMaps</h1><br /><hr align="center" width="480" style="height: 2px; width: 517px"/><h2>Nom: 2015-11-11 08:40</h2><br /><p>Temps de départ: 11/11/2015 08:41</p><p>Temps d'arrivée: 11/11/2015 13:20</p><p>Distance: 42,2km (04:39)</p><p>Temps déplacement: 03:48</p><p>Vitesse moyenne: 9,1km/h</p><p>Vitesse moyenne: 11,1km/h</p><p>Vitess Max.: 45,7km/h</p><p>Altitude minimale: 286m</p><p>Altitude maximale: 587m</p><p>Vitesse d'élévation: 568,4m/h</p><p>Vitesse de descente: -1151,7m/h</p><p>Gain Altitude: 1497m</p><p>Perte Altitude: -1541m</p><p>Temps d'élévation: 02:38</p><p>Temps de descente: 01:20</p><hr align="center" width="480" style="height: 2px; width: 517px"/>]]></desc>
    <trkseg>
      <trkpt lat="43.75954" lon="5.8867">
        <ele>339.99</ele>
        <time>2015-11-11T07:41:00Z</time>
      </trkpt>
      <trkpt lat="43.75937" lon="5.8866">
        <ele>337.56</ele>
        <time>2015-11-11T07:42:14Z</time>
      </trkpt>
      <trkpt lat="43.7592" lon="5.88651">
        <ele>341.21</ele>
        <time>2015-11-11T07:42:23Z</time>
      </trkpt>
      <trkpt lat="43.75902" lon="5.88648">
        <ele>340.15</ele>
        <time>2015-11-11T07:42:31Z</time>
      </trkpt>
      <trkpt lat="43.75882" lon="5.88639">
        <ele>339.3</ele>
        <time>2015-11-11T07:42:35Z</time>
      </trkpt>
      <trkpt lat="43.75861" lon="5.88632">
        <ele>338.87</ele>
        <time>2015-11-11T07:42:39Z</time>
      </trkpt>
      <trkpt lat="43.75844" lon="5.8862">
        <ele>339.28</ele>
        <time>2015-11-11T07:42:45Z</time>
      </trkpt>
      <trkpt lat="43.75825" lon="5.88608">
        <ele>332.98</ele>
        <time>2015-11-11T07:43:01Z</time>
      </trkpt>
      <trkpt lat="43.75806" lon="5.88597">
        <ele>336.57</ele>
        <time>2015-11-11T07:43:07Z</time>
      </trkpt>
      <trkpt lat="43.75786" lon="5.88589">
        <ele>333.89</ele>
        <time>2015-11-11T07:43:13Z</time>
      </trkpt>
      <trkpt lat="43.75767" lon="5.88594">
        <ele>338.61</ele>
        <time>2015-11-11T07:43:18Z</time>
      </trkpt>
      <trkpt lat="43.75748" lon="5.88599">
        <ele>340.03</ele>
        <time>2015-11-11T07:43:23Z</time>
      </trkpt>
      <trkpt lat="43.75728" lon="5.88607">
        <ele>341.63</ele>
        <time>2015-11-11T07:43:29Z</time>
      </trkpt>
      <trkpt lat="43.75708" lon="5.88612">
        <ele>343.69</ele>
        <time>2015-11-11T07:43:36Z</time>
      </trkpt>
      <trkpt lat="43.75687" lon="5.8862">
        <ele>343.02</ele>
        <time>2015-11-11T07:43:40Z</time>
      </trkpt>
      <trkpt lat="43.75665" lon="5.88631">
        <ele>341.98</ele>
        <time>2015-11-11T07:43:44Z</time>
      </trkpt>
      <trkpt lat="43.75647" lon="5.88636">
        <ele>340.83</ele>
        <time>2015-11-11T07:43:47Z</time>
      </trkpt>
      <trkpt lat="43.75631" lon="5.88648">
        <ele>337.27</ele>
        <time>2015-11-11T07:44:04Z</time>
      </trkpt>
      <trkpt lat="43.75625" lon="5.88672">
        <ele>337.25</ele>
        <time>2015-11-11T07:44:07Z</time>
      </trkpt>
      <trkpt lat="43.75612" lon="5.88698">
        <ele>336.49</ele>
        <time>2015-11-11T07:44:10Z</time>
      </trkpt>
      <trkpt lat="43.75602" lon="5.88719">
        <ele>335.55</ele>
        <time>2015-11-11T07:44:12Z</time>
      </trkpt>
      <trkpt lat="43.75592" lon="5.88741">
        <ele>335.32</ele>
        <time>2015-11-11T07:44:14Z</time>
      </trkpt>
      <trkpt lat="43.75582" lon="5.88763">
        <ele>335.26</ele>
        <time>2015-11-11T07:44:16Z</time>
      </trkpt>
      <trkpt lat="43.75572" lon="5.88786">
        <ele>335.25</ele>
        <time>2015-11-11T07:44:18Z</time>
      </trkpt>
      <trkpt lat="43.75564" lon="5.8881">
        <ele>335.24</ele>
        <time>2015-11-11T07:44:20Z</time>
      </trkpt>
      <trkpt lat="43.75555" lon="5.88834">
        <ele>333.99</ele>
        <time>2015-11-11T07:44:22Z</time>
      </trkpt>
      <trkpt lat="43.75547" lon="5.88859">
        <ele>332.93</ele>
        <time>2015-11-11T07:44:24Z</time>
      </trkpt>
      <trkpt lat="43.75538" lon="5.88885">
        <ele>331.91</ele>
        <time>2015-11-11T07:44:26Z</time>
      </trkpt>
      <trkpt lat="43.75526" lon="5.88909">
        <ele>329.41</ele>
        <time>2015-11-11T07:44:28Z</time>
      </trkpt>
      <trkpt lat="43.75508" lon="5.88931">
        <ele>328.03</ele>
        <time>2015-11-11T07:44:30Z</time>
      </trkpt>
      <trkpt lat="43.7549" lon="5.88955">
        <ele>326.69</ele>
        <time>2015-11-11T07:44:32Z</time>
      </trkpt>
      <trkpt lat="43.75474" lon="5.88979">
        <ele>325.1</ele>
        <time>2015-11-11T07:44:34Z</time>
      </trkpt>
      <trkpt lat="43.75452" lon="5.88991">
        <ele>323.47</ele>
        <time>2015-11-11T07:44:37Z</time>
      </trkpt>
      <trkpt lat="43.75433" lon="5.88982">
        <ele>321.07</ele>
        <time>2015-11-11T07:44:41Z</time>
      </trkpt>
      <trkpt lat="43.75413" lon="5.88989">
        <ele>313.95</ele>
        <time>2015-11-11T07:44:51Z</time>
      </trkpt>
      <trkpt lat="43.75392" lon="5.88992">
        <ele>310.53</ele>
        <time>2015-11-11T07:44:57Z</time>
      </trkpt>
      <trkpt lat="43.75367" lon="5.88993">
        <ele>309.31</ele>
        <time>2015-11-11T07:45:02Z</time>
      </trkpt>
      <trkpt lat="43.75348" lon="5.88994">
        <ele>309.87</ele>
        <time>2015-11-11T07:45:06Z</time>
      </trkpt>
      <trkpt lat="43.75333" lon="5.89016">
        <ele>309.07</ele>
        <time>2015-11-11T07:45:11Z</time>
      </trkpt>
      <trkpt lat="43.75328" lon="5.89044">
        <ele>308.86</ele>
        <time>2015-11-11T07:45:15Z</time>
      </trkpt>
      <trkpt lat="43.7532" lon="5.89072">
        <ele>309.16</ele>
        <time>2015-11-11T07:45:19Z</time>
      </trkpt>
      <trkpt lat="43.75312" lon="5.89094">
        <ele>310.12</ele>
        <time>2015-11-11T07:45:25Z</time>
      </trkpt>
      <trkpt lat="43.75302" lon="5.89116">
        <ele>309.36</ele>
        <time>2015-11-11T07:45:30Z</time>
      </trkpt>
      <trkpt lat="43.75291" lon="5.89135">
        <ele>310.06</ele>
        <time>2015-11-11T07:45:35Z</time>
      </trkpt>
      <trkpt lat="43.75271" lon="5.8914">
        <ele>310.3</ele>
        <time>2015-11-11T07:45:42Z</time>
      </trkpt>
      <trkpt lat="43.75255" lon="5.89156">
        <ele>313.91</ele>
        <time>2015-11-11T07:45:50Z</time>
      </trkpt>
      <trkpt lat="43.75256" lon="5.89129">
        <ele>314.37</ele>
        <time>2015-11-11T07:46:02Z</time>
      </trkpt>
      <trkpt lat="43.75264" lon="5.89105">
        <ele>316.91</ele>
        <time>2015-11-11T07:46:10Z</time>
      </trkpt>
      <trkpt lat="43.75263" lon="5.8908">
        <ele>319.19</ele>
        <time>2015-11-11T07:46:19Z</time>
      </trkpt>
      <trkpt lat="43.75245" lon="5.89084">
        <ele>320.74</ele>
        <time>2015-11-11T07:46:28Z</time>
      </trkpt>
      <trkpt lat="43.75231" lon="5.891">
        <ele>325.19</ele>
        <time>2015-11-11T07:46:38Z</time>
      </trkpt>
      <trkpt lat="43.75215" lon="5.89115">
        <ele>327.18</ele>
        <time>2015-11-11T07:46:47Z</time>
      </trkpt>
      <trkpt lat="43.75196" lon="5.89109">
        <ele>330.08</ele>
        <time>2015-11-11T07:46:56Z</time>
      </trkpt>
      <trkpt lat="43.75185" lon="5.89088">
        <ele>330.29</ele>
        <time>2015-11-11T07:47:04Z</time>
      </trkpt>
      <trkpt lat="43.75172" lon="5.89067">
        <ele>329.74</ele>
        <time>2015-11-11T07:47:13Z</time>
      </trkpt>
      <trkpt lat="43.75158" lon="5.8905">
        <ele>329.41</ele>
        <time>2015-11-11T07:47:24Z</time>
      </trkpt>
      <trkpt lat="43.75145" lon="5.89032">
        <ele>331.51</ele>
        <time>2015-11-11T07:48:33Z</time>
      </trkpt>
      <trkpt lat="43.75126" lon="5.89031">
        <ele>337.37</ele>
        <time>2015-11-11T07:48:50Z</time>
      </trkpt>
      <trkpt lat="43.75111" lon="5.89015">
        <ele>336.78</ele>
        <time>2015-11-11T07:49:02Z</time>
      </trkpt>
      <trkpt lat="43.75095" lon="5.89002">
        <ele>338.93</ele>
        <time>2015-11-11T07:49:12Z</time>
      </trkpt>
      <trkpt lat="43.75082" lon="5.88984">
        <ele>341.25</ele>
        <time>2015-11-11T07:49:21Z</time>
      </trkpt>
      <trkpt lat="43.75067" lon="5.88969">
        <ele>343.05</ele>
        <time>2015-11-11T07:49:29Z</time>
      </trkpt>
      <trkpt lat="43.7505" lon="5.88956">
        <ele>347.79</ele>
        <time>2015-11-11T07:49:38Z</time>
      </trkpt>
      <trkpt lat="43.75036" lon="5.88937">
        <ele>349.18</ele>
        <time>2015-11-11T07:49:48Z</time>
      </trkpt>
      <trkpt lat="43.75017" lon="5.88928">
        <ele>347.76</ele>
        <time>2015-11-11T07:49:58Z</time>
      </trkpt>
      <trkpt lat="43.74999" lon="5.88925">
        <ele>352.1</ele>
        <time>2015-11-11T07:50:08Z</time>
      </trkpt>
      <trkpt lat="43.7498" lon="5.88926">
        <ele>352.61</ele>
        <time>2015-11-11T07:50:19Z</time>
      </trkpt>
      <trkpt lat="43.74964" lon="5.88914">
        <ele>353.62</ele>
        <time>2015-11-11T07:50:28Z</time>
      </trkpt>
      <trkpt lat="43.74947" lon="5.88902">
        <ele>356.94</ele>
        <time>2015-11-11T07:50:38Z</time>
      </trkpt>
      <trkpt lat="43.74928" lon="5.88906">
        <ele>356.52</ele>
        <time>2015-11-11T07:50:48Z</time>
      </trkpt>
      <trkpt lat="43.74909" lon="5.88911">
        <ele>357.05</ele>
        <time>2015-11-11T07:50:57Z</time>
      </trkpt>
      <trkpt lat="43.74889" lon="5.88909">
        <ele>362.4</ele>
        <time>2015-11-11T07:51:06Z</time>
      </trkpt>
      <trkpt lat="43.74869" lon="5.88908">
        <ele>366.71</ele>
        <time>2015-11-11T07:51:15Z</time>
      </trkpt>
      <trkpt lat="43.74851" lon="5.88903">
        <ele>365.37</ele>
        <time>2015-11-11T07:51:24Z</time>
      </trkpt>
      <trkpt lat="43.74833" lon="5.88898">
        <ele>366.68</ele>
        <time>2015-11-11T07:51:34Z</time>
      </trkpt>
      <trkpt lat="43.74815" lon="5.88895">
        <ele>368.93</ele>
        <time>2015-11-11T07:51:43Z</time>
      </trkpt>
      <trkpt lat="43.74796" lon="5.88897">
        <ele>370.21</ele>
        <time>2015-11-11T07:51:53Z</time>
      </trkpt>
      <trkpt lat="43.74778" lon="5.88889">
        <ele>374.85</ele>
        <time>2015-11-11T07:52:04Z</time>
      </trkpt>
      <trkpt lat="43.74759" lon="5.88885">
        <ele>378.54</ele>
        <time>2015-11-11T07:52:14Z</time>
      </trkpt>
      <trkpt lat="43.74739" lon="5.88887">
        <ele>378.76</ele>
        <time>2015-11-11T07:52:24Z</time>
      </trkpt>
      <trkpt lat="43.74719" lon="5.88892">
        <ele>379.52</ele>
        <time>2015-11-11T07:52:33Z</time>
      </trkpt>
      <trkpt lat="43.747" lon="5.88899">
        <ele>380.02</ele>
        <time>2015-11-11T07:52:42Z</time>
      </trkpt>
      <trkpt lat="43.74682" lon="5.88901">
        <ele>381.31</ele>
        <time>2015-11-11T07:52:51Z</time>
      </trkpt>
      <trkpt lat="43.74663" lon="5.88902">
        <ele>381.62</ele>
        <time>2015-11-11T07:53:00Z</time>
      </trkpt>
      <trkpt lat="43.74644" lon="5.88903">
        <ele>380.02</ele>
        <time>2015-11-11T07:53:09Z</time>
      </trkpt>
      <trkpt lat="43.74624" lon="5.88906">
        <ele>380.17</ele>
        <time>2015-11-11T07:53:18Z</time>
      </trkpt>
      <trkpt lat="43.74606" lon="5.88901">
        <ele>384.53</ele>
        <time>2015-11-11T07:53:28Z</time>
      </trkpt>
      <trkpt lat="43.7459" lon="5.88887">
        <ele>387.66</ele>
        <time>2015-11-11T07:53:38Z</time>
      </trkpt>
      <trkpt lat="43.74575" lon="5.88902">
        <ele>389.16</ele>
        <time>2015-11-11T07:53:47Z</time>
      </trkpt>
      <trkpt lat="43.74559" lon="5.88914">
        <ele>391.7</ele>
        <time>2015-11-11T07:53:57Z</time>
      </trkpt>
      <trkpt lat="43.74544" lon="5.88932">
        <ele>395.85</ele>
        <time>2015-11-11T07:54:08Z</time>
      </trkpt>
      <trkpt lat="43.74528" lon="5.88945">
        <ele>397.12</ele>
        <time>2015-11-11T07:54:17Z</time>
      </trkpt>
      <trkpt lat="43.74514" lon="5.88964">
        <ele>400.09</ele>
        <time>2015-11-11T07:54:28Z</time>
      </trkpt>
      <trkpt lat="43.74499" lon="5.88982">
        <ele>401.37</ele>
        <time>2015-11-11T07:54:38Z</time>
      </trkpt>
      <trkpt lat="43.74483" lon="5.88997">
        <ele>405.75</ele>
        <time>2015-11-11T07:54:48Z</time>
      </trkpt>
      <trkpt lat="43.74469" lon="5.89016">
        <ele>408.43</ele>
        <time>2015-11-11T07:54:58Z</time>
      </trkpt>
      <trkpt lat="43.74455" lon="5.89035">
        <ele>407.74</ele>
        <time>2015-11-11T07:55:07Z</time>
      </trkpt>
      <trkpt lat="43.74441" lon="5.89051">
        <ele>407.99</ele>
        <time>2015-11-11T07:55:17Z</time>
      </trkpt>
      <trkpt lat="43.7443" lon="5.89072">
        <ele>407.5</ele>
        <time>2015-11-11T07:55:30Z</time>
      </trkpt>
      <trkpt lat="43.74418" lon="5.89093">
        <ele>412.57</ele>
        <time>2015-11-11T07:55:42Z</time>
      </trkpt>
      <trkpt lat="43.74405" lon="5.89112">
        <ele>415.8</ele>
        <time>2015-11-11T07:55:54Z</time>
      </trkpt>
      <trkpt lat="43.74394" lon="5.89133">
        <ele>419.77</ele>
        <time>2015-11-11T07:56:06Z</time>
      </trkpt>
      <trkpt lat="43.74376" lon="5.89141">
        <ele>421.3</ele>
        <time>2015-11-11T07:56:18Z</time>
      </trkpt>
      <trkpt lat="43.7436" lon="5.89153">
        <ele>419.44</ele>
        <time>2015-11-11T07:56:28Z</time>
      </trkpt>
      <trkpt lat="43.74342" lon="5.89147">
        <ele>422.97</ele>
        <time>2015-11-11T07:56:38Z</time>
      </trkpt>
      <trkpt lat="43.74323" lon="5.89142">
        <ele>427.99</ele>
        <time>2015-11-11T07:56:48Z</time>
      </trkpt>
      <trkpt lat="43.74309" lon="5.89159">
        <ele>428.34</ele>
        <time>2015-11-11T07:57:00Z</time>
      </trkpt>
      <trkpt lat="43.7429" lon="5.89165">
        <ele>427.12</ele>
        <time>2015-11-11T07:57:07Z</time>
      </trkpt>
      <trkpt lat="43.74275" lon="5.89183">
        <ele>425.43</ele>
        <time>2015-11-11T07:57:15Z</time>
      </trkpt>
      <trkpt lat="43.74255" lon="5.89181">
        <ele>426.07</ele>
        <time>2015-11-11T07:57:22Z</time>
      </trkpt>
      <trkpt lat="43.74238" lon="5.8919">
        <ele>429.55</ele>
        <time>2015-11-11T07:57:28Z</time>
      </trkpt>
      <trkpt lat="43.74218" lon="5.89189">
        <ele>430.29</ele>
        <time>2015-11-11T07:57:35Z</time>
      </trkpt>
      <trkpt lat="43.74206" lon="5.89206">
        <ele>430.96</ele>
        <time>2015-11-11T07:57:41Z</time>
      </trkpt>
      <trkpt lat="43.7419" lon="5.89226">
        <ele>430.55</ele>
        <time>2015-11-11T07:57:47Z</time>
      </trkpt>
      <trkpt lat="43.74171" lon="5.89238">
        <ele>429.53</ele>
        <time>2015-11-11T07:57:53Z</time>
      </trkpt>
      <trkpt lat="43.74154" lon="5.89245">
        <ele>433.63</ele>
        <time>2015-11-11T07:57:58Z</time>
      </trkpt>
      <trkpt lat="43.74136" lon="5.89251">
        <ele>434.22</ele>
        <time>2015-11-11T07:58:03Z</time>
      </trkpt>
      <trkpt lat="43.74119" lon="5.89265">
        <ele>433.37</ele>
        <time>2015-11-11T07:58:09Z</time>
      </trkpt>
      <trkpt lat="43.74101" lon="5.89273">
        <ele>433.93</ele>
        <time>2015-11-11T07:58:15Z</time>
      </trkpt>
      <trkpt lat="43.74083" lon="5.89275">
        <ele>434.75</ele>
        <time>2015-11-11T07:58:29Z</time>
      </trkpt>
      <trkpt lat="43.74064" lon="5.8927">
        <ele>436.34</ele>
        <time>2015-11-11T07:58:36Z</time>
      </trkpt>
      <trkpt lat="43.74044" lon="5.89272">
        <ele>434.19</ele>
        <time>2015-11-11T07:58:40Z</time>
      </trkpt>
      <trkpt lat="43.74023" lon="5.89266">
        <ele>433.46</ele>
        <time>2015-11-11T07:58:46Z</time>
      </trkpt>
      <trkpt lat="43.74006" lon="5.89251">
        <ele>438.73</ele>
        <time>2015-11-11T07:58:53Z</time>
      </trkpt>
      <trkpt lat="43.73988" lon="5.89249">
        <ele>436.64</ele>
        <time>2015-11-11T07:58:59Z</time>
      </trkpt>
      <trkpt lat="43.73968" lon="5.89257">
        <ele>432.36</ele>
        <time>2015-11-11T07:59:05Z</time>
      </trkpt>
      <trkpt lat="43.73952" lon="5.89243">
        <ele>436.22</ele>
        <time>2015-11-11T07:59:13Z</time>
      </trkpt>
      <trkpt lat="43.73942" lon="5.89218">
        <ele>440</ele>
        <time>2015-11-11T07:59:21Z</time>
      </trkpt>
      <trkpt lat="43.73932" lon="5.89195">
        <ele>443.21</ele>
        <time>2015-11-11T07:59:27Z</time>
      </trkpt>
      <trkpt lat="43.73936" lon="5.89167">
        <ele>442.91</ele>
        <time>2015-11-11T07:59:33Z</time>
      </trkpt>
      <trkpt lat="43.73928" lon="5.89143">
        <ele>441.78</ele>
        <time>2015-11-11T07:59:37Z</time>
      </trkpt>
      <trkpt lat="43.73912" lon="5.89129">
        <ele>438.42</ele>
        <time>2015-11-11T07:59:42Z</time>
      </trkpt>
      <trkpt lat="43.73894" lon="5.89121">
        <ele>436.38</ele>
        <time>2015-11-11T07:59:46Z</time>
      </trkpt>
      <trkpt lat="43.73878" lon="5.8911">
        <ele>435.59</ele>
        <time>2015-11-11T07:59:51Z</time>
      </trkpt>
      <trkpt lat="43.73875" lon="5.89082">
        <ele>435.64</ele>
        <time>2015-11-11T07:59:58Z</time>
      </trkpt>
      <trkpt lat="43.73877" lon="5.89053">
        <ele>441.73</ele>
        <time>2015-11-11T08:00:04Z</time>
      </trkpt>
      <trkpt lat="43.73884" lon="5.89028">
        <ele>444.03</ele>
        <time>2015-11-11T08:00:10Z</time>
      </trkpt>
      <trkpt lat="43.73892" lon="5.89004">
        <ele>443.14</ele>
        <time>2015-11-11T08:00:18Z</time>
      </trkpt>
      <trkpt lat="43.73903" lon="5.88984">
        <ele>444.21</ele>
        <time>2015-11-11T08:00:28Z</time>
      </trkpt>
      <trkpt lat="43.73915" lon="5.88965">
        <ele>443.88</ele>
        <time>2015-11-11T08:00:39Z</time>
      </trkpt>
      <trkpt lat="43.73922" lon="5.88941">
        <ele>449.37</ele>
        <time>2015-11-11T08:00:50Z</time>
      </trkpt>
      <trkpt lat="43.73929" lon="5.88917">
        <ele>449.42</ele>
        <time>2015-11-11T08:00:59Z</time>
      </trkpt>
      <trkpt lat="43.73913" lon="5.88903">
        <ele>446.11</ele>
        <time>2015-11-11T08:01:06Z</time>
      </trkpt>
      <trkpt lat="43.73894" lon="5.88909">
        <ele>443.89</ele>
        <time>2015-11-11T08:01:14Z</time>
      </trkpt>
      <trkpt lat="43.73876" lon="5.88921">
        <ele>443.94</ele>
        <time>2015-11-11T08:01:23Z</time>
      </trkpt>
      <trkpt lat="43.73856" lon="5.88921">
        <ele>442.75</ele>
        <time>2015-11-11T08:01:31Z</time>
      </trkpt>
      <trkpt lat="43.73836" lon="5.88924">
        <ele>447.69</ele>
        <time>2015-11-11T08:01:40Z</time>
      </trkpt>
      <trkpt lat="43.73822" lon="5.88909">
        <ele>448.98</ele>
        <time>2015-11-11T08:01:47Z</time>
      </trkpt>
      <trkpt lat="43.73807" lon="5.88892">
        <ele>449.17</ele>
        <time>2015-11-11T08:01:55Z</time>
      </trkpt>
      <trkpt lat="43.73789" lon="5.88883">
        <ele>451.41</ele>
        <time>2015-11-11T08:02:02Z</time>
      </trkpt>
      <trkpt lat="43.73773" lon="5.88897">
        <ele>451.33</ele>
        <time>2015-11-11T08:02:09Z</time>
      </trkpt>
      <trkpt lat="43.73757" lon="5.88914">
        <ele>449.5</ele>
        <time>2015-11-11T08:02:17Z</time>
      </trkpt>
      <trkpt lat="43.73738" lon="5.88912">
        <ele>451.24</ele>
        <time>2015-11-11T08:02:24Z</time>
      </trkpt>
      <trkpt lat="43.73721" lon="5.88899">
        <ele>453.98</ele>
        <time>2015-11-11T08:02:31Z</time>
      </trkpt>
      <trkpt lat="43.73709" lon="5.88878">
        <ele>456.15</ele>
        <time>2015-11-11T08:02:38Z</time>
      </trkpt>
      <trkpt lat="43.7369" lon="5.88876">
        <ele>456.02</ele>
        <time>2015-11-11T08:02:45Z</time>
      </trkpt>
      <trkpt lat="43.73673" lon="5.88884">
        <ele>456.12</ele>
        <time>2015-11-11T08:02:52Z</time>
      </trkpt>
      <trkpt lat="43.73655" lon="5.88892">
        <ele>459.18</ele>
        <time>2015-11-11T08:02:59Z</time>
      </trkpt>
      <trkpt lat="43.73638" lon="5.88904">
        <ele>458.51</ele>
        <time>2015-11-11T08:03:05Z</time>
      </trkpt>
      <trkpt lat="43.73623" lon="5.88921">
        <ele>460.2</ele>
        <time>2015-11-11T08:03:11Z</time>
      </trkpt>
      <trkpt lat="43.73608" lon="5.8894">
        <ele>459.77</ele>
        <time>2015-11-11T08:03:17Z</time>
      </trkpt>
      <trkpt lat="43.7359" lon="5.88952">
        <ele>462.16</ele>
        <time>2015-11-11T08:03:23Z</time>
      </trkpt>
      <trkpt lat="43.73571" lon="5.88963">
        <ele>461.26</ele>
        <time>2015-11-11T08:03:29Z</time>
      </trkpt>
      <trkpt lat="43.73555" lon="5.88981">
        <ele>462.6</ele>
        <time>2015-11-11T08:03:35Z</time>
      </trkpt>
      <trkpt lat="43.73543" lon="5.89003">
        <ele>463.65</ele>
        <time>2015-11-11T08:03:41Z</time>
      </trkpt>
      <trkpt lat="43.73532" lon="5.89026">
        <ele>465.34</ele>
        <time>2015-11-11T08:03:47Z</time>
      </trkpt>
      <trkpt lat="43.73519" lon="5.89045">
        <ele>465.4</ele>
        <time>2015-11-11T08:03:53Z</time>
      </trkpt>
      <trkpt lat="43.73503" lon="5.89062">
        <ele>463.51</ele>
        <time>2015-11-11T08:03:59Z</time>
      </trkpt>
      <trkpt lat="43.73485" lon="5.89076">
        <ele>464</ele>
        <time>2015-11-11T08:04:05Z</time>
      </trkpt>
      <trkpt lat="43.73467" lon="5.89089">
        <ele>463.94</ele>
        <time>2015-11-11T08:04:11Z</time>
      </trkpt>
      <trkpt lat="43.73449" lon="5.89095">
        <ele>463.96</ele>
        <time>2015-11-11T08:04:17Z</time>
      </trkpt>
      <trkpt lat="43.73431" lon="5.89077">
        <ele>466.13</ele>
        <time>2015-11-11T08:04:23Z</time>
      </trkpt>
      <trkpt lat="43.73418" lon="5.89059">
        <ele>466.24</ele>
        <time>2015-11-11T08:04:28Z</time>
      </trkpt>
      <trkpt lat="43.73401" lon="5.89041">
        <ele>465.7</ele>
        <time>2015-11-11T08:04:34Z</time>
      </trkpt>
      <trkpt lat="43.73382" lon="5.89029">
        <ele>464.76</ele>
        <time>2015-11-11T08:04:40Z</time>
      </trkpt>
      <trkpt lat="43.73363" lon="5.89022">
        <ele>467.72</ele>
        <time>2015-11-11T08:04:46Z</time>
      </trkpt>
      <trkpt lat="43.73341" lon="5.89024">
        <ele>468.19</ele>
        <time>2015-11-11T08:04:52Z</time>
      </trkpt>
      <trkpt lat="43.73323" lon="5.89018">
        <ele>470.83</ele>
        <time>2015-11-11T08:04:58Z</time>
      </trkpt>
      <trkpt lat="43.73308" lon="5.89001">
        <ele>471.84</ele>
        <time>2015-11-11T08:05:06Z</time>
      </trkpt>
      <trkpt lat="43.73308" lon="5.88974">
        <ele>477.62</ele>
        <time>2015-11-11T08:05:20Z</time>
      </trkpt>
      <trkpt lat="43.73308" lon="5.88949">
        <ele>483.79</ele>
        <time>2015-11-11T08:05:33Z</time>
      </trkpt>
      <trkpt lat="43.73313" lon="5.88925">
        <ele>485.24</ele>
        <time>2015-11-11T08:05:45Z</time>
      </trkpt>
      <trkpt lat="43.73318" lon="5.889">
        <ele>488.61</ele>
        <time>2015-11-11T08:06:00Z</time>
      </trkpt>
      <trkpt lat="43.73316" lon="5.88874">
        <ele>494.17</ele>
        <time>2015-11-11T08:06:17Z</time>
      </trkpt>
      <trkpt lat="43.73324" lon="5.88841">
        <ele>491.24</ele>
        <time>2015-11-11T08:06:52Z</time>
      </trkpt>
      <trkpt lat="43.73323" lon="5.88815">
        <ele>488.74</ele>
        <time>2015-11-11T08:06:55Z</time>
      </trkpt>
      <trkpt lat="43.73322" lon="5.88784">
        <ele>488.18</ele>
        <time>2015-11-11T08:06:58Z</time>
      </trkpt>
      <trkpt lat="43.73323" lon="5.88747">
        <ele>485.61</ele>
        <time>2015-11-11T08:07:01Z</time>
      </trkpt>
      <trkpt lat="43.73323" lon="5.88712">
        <ele>482.29</ele>
        <time>2015-11-11T08:07:04Z</time>
      </trkpt>
      <trkpt lat="43.73325" lon="5.88681">
        <ele>478.37</ele>
        <time>2015-11-11T08:07:07Z</time>
      </trkpt>
      <trkpt lat="43.73327" lon="5.88651">
        <ele>474.76</ele>
        <time>2015-11-11T08:07:10Z</time>
      </trkpt>
      <trkpt lat="43.73331" lon="5.88619">
        <ele>471.68</ele>
        <time>2015-11-11T08:07:13Z</time>
      </trkpt>
      <trkpt lat="43.73338" lon="5.88589">
        <ele>471.3</ele>
        <time>2015-11-11T08:07:16Z</time>
      </trkpt>
      <trkpt lat="43.73337" lon="5.88564">
        <ele>472.75</ele>
        <time>2015-11-11T08:07:19Z</time>
      </trkpt>
      <trkpt lat="43.73343" lon="5.8854">
        <ele>471.79</ele>
        <time>2015-11-11T08:07:34Z</time>
      </trkpt>
      <trkpt lat="43.73362" lon="5.88535">
        <ele>468.44</ele>
        <time>2015-11-11T08:07:37Z</time>
      </trkpt>
      <trkpt lat="43.73381" lon="5.88528">
        <ele>464.52</ele>
        <time>2015-11-11T08:07:40Z</time>
      </trkpt>
      <trkpt lat="43.73401" lon="5.88517">
        <ele>461.78</ele>
        <time>2015-11-11T08:07:43Z</time>
      </trkpt>
      <trkpt lat="43.73418" lon="5.88495">
        <ele>459.81</ele>
        <time>2015-11-11T08:07:46Z</time>
      </trkpt>
      <trkpt lat="43.73435" lon="5.88475">
        <ele>457.84</ele>
        <time>2015-11-11T08:07:50Z</time>
      </trkpt>
      <trkpt lat="43.73449" lon="5.88451">
        <ele>455.32</ele>
        <time>2015-11-11T08:07:55Z</time>
      </trkpt>
      <trkpt lat="43.73464" lon="5.88436">
        <ele>449.87</ele>
        <time>2015-11-11T08:09:02Z</time>
      </trkpt>
      <trkpt lat="43.73481" lon="5.88426">
        <ele>452.6</ele>
        <time>2015-11-11T08:09:08Z</time>
      </trkpt>
      <trkpt lat="43.73501" lon="5.88419">
        <ele>451.39</ele>
        <time>2015-11-11T08:09:12Z</time>
      </trkpt>
      <trkpt lat="43.73519" lon="5.88409">
        <ele>451.44</ele>
        <time>2015-11-11T08:09:16Z</time>
      </trkpt>
      <trkpt lat="43.73537" lon="5.88398">
        <ele>451.25</ele>
        <time>2015-11-11T08:09:20Z</time>
      </trkpt>
      <trkpt lat="43.73556" lon="5.88392">
        <ele>450.37</ele>
        <time>2015-11-11T08:09:24Z</time>
      </trkpt>
      <trkpt lat="43.73575" lon="5.88386">
        <ele>450.37</ele>
        <time>2015-11-11T08:09:28Z</time>
      </trkpt>
      <trkpt lat="43.73598" lon="5.88381">
        <ele>451.69</ele>
        <time>2015-11-11T08:09:32Z</time>
      </trkpt>
      <trkpt lat="43.73619" lon="5.88373">
        <ele>452.89</ele>
        <time>2015-11-11T08:09:36Z</time>
      </trkpt>
      <trkpt lat="43.73635" lon="5.88356">
        <ele>451.45</ele>
        <time>2015-11-11T08:09:39Z</time>
      </trkpt>
      <trkpt lat="43.73653" lon="5.88336">
        <ele>448.27</ele>
        <time>2015-11-11T08:09:42Z</time>
      </trkpt>
      <trkpt lat="43.73668" lon="5.88318">
        <ele>446.37</ele>
        <time>2015-11-11T08:09:46Z</time>
      </trkpt>
      <trkpt lat="43.73688" lon="5.883">
        <ele>445.12</ele>
        <time>2015-11-11T08:09:50Z</time>
      </trkpt>
      <trkpt lat="43.73711" lon="5.88287">
        <ele>443.48</ele>
        <time>2015-11-11T08:09:53Z</time>
      </trkpt>
      <trkpt lat="43.73731" lon="5.88283">
        <ele>443.65</ele>
        <time>2015-11-11T08:09:56Z</time>
      </trkpt>
      <trkpt lat="43.73753" lon="5.88278">
        <ele>441.79</ele>
        <time>2015-11-11T08:09:59Z</time>
      </trkpt>
      <trkpt lat="43.73774" lon="5.88282">
        <ele>439.59</ele>
        <time>2015-11-11T08:10:03Z</time>
      </trkpt>
      <trkpt lat="43.7379" lon="5.8827">
        <ele>431.51</ele>
        <time>2015-11-11T08:10:07Z</time>
      </trkpt>
      <trkpt lat="43.73809" lon="5.88261">
        <ele>424.88</ele>
        <time>2015-11-11T08:10:11Z</time>
      </trkpt>
      <trkpt lat="43.73795" lon="5.88243">
        <ele>420.68</ele>
        <time>2015-11-11T08:10:30Z</time>
      </trkpt>
      <trkpt lat="43.73781" lon="5.88221">
        <ele>423.71</ele>
        <time>2015-11-11T08:10:37Z</time>
      </trkpt>
      <trkpt lat="43.7377" lon="5.88197">
        <ele>422.21</ele>
        <time>2015-11-11T08:10:41Z</time>
      </trkpt>
      <trkpt lat="43.73762" lon="5.88172">
        <ele>419.62</ele>
        <time>2015-11-11T08:10:46Z</time>
      </trkpt>
      <trkpt lat="43.73754" lon="5.88148">
        <ele>419.03</ele>
        <time>2015-11-11T08:10:51Z</time>
      </trkpt>
      <trkpt lat="43.73751" lon="5.88117">
        <ele>417.72</ele>
        <time>2015-11-11T08:10:54Z</time>
      </trkpt>
      <trkpt lat="43.73749" lon="5.88089">
        <ele>415.18</ele>
        <time>2015-11-11T08:10:57Z</time>
      </trkpt>
      <trkpt lat="43.73744" lon="5.88062">
        <ele>411.48</ele>
        <time>2015-11-11T08:11:00Z</time>
      </trkpt>
      <trkpt lat="43.73735" lon="5.88036">
        <ele>410.4</ele>
        <time>2015-11-11T08:11:03Z</time>
      </trkpt>
      <trkpt lat="43.73727" lon="5.88011">
        <ele>408.14</ele>
        <time>2015-11-11T08:11:06Z</time>
      </trkpt>
      <trkpt lat="43.73721" lon="5.87985">
        <ele>408.73</ele>
        <time>2015-11-11T08:11:09Z</time>
      </trkpt>
      <trkpt lat="43.73723" lon="5.87959">
        <ele>410.8</ele>
        <time>2015-11-11T08:11:12Z</time>
      </trkpt>
      <trkpt lat="43.7372" lon="5.87931">
        <ele>411.4</ele>
        <time>2015-11-11T08:11:16Z</time>
      </trkpt>
      <trkpt lat="43.73712" lon="5.87906">
        <ele>410.63</ele>
        <time>2015-11-11T08:11:20Z</time>
      </trkpt>
      <trkpt lat="43.73701" lon="5.87881">
        <ele>409.16</ele>
        <time>2015-11-11T08:11:25Z</time>
      </trkpt>
      <trkpt lat="43.73688" lon="5.87854">
        <ele>402.93</ele>
        <time>2015-11-11T08:11:30Z</time>
      </trkpt>
      <trkpt lat="43.73675" lon="5.87837">
        <ele>397.7</ele>
        <time>2015-11-11T08:11:33Z</time>
      </trkpt>
      <trkpt lat="43.73668" lon="5.87814">
        <ele>393.27</ele>
        <time>2015-11-11T08:11:37Z</time>
      </trkpt>
      <trkpt lat="43.73674" lon="5.87787">
        <ele>388.66</ele>
        <time>2015-11-11T08:11:43Z</time>
      </trkpt>
      <trkpt lat="43.73668" lon="5.87763">
        <ele>380.71</ele>
        <time>2015-11-11T08:11:51Z</time>
      </trkpt>
      <trkpt lat="43.73664" lon="5.87736">
        <ele>376.18</ele>
        <time>2015-11-11T08:11:54Z</time>
      </trkpt>
      <trkpt lat="43.73666" lon="5.87711">
        <ele>372.73</ele>
        <time>2015-11-11T08:11:57Z</time>
      </trkpt>
      <trkpt lat="43.73669" lon="5.87683">
        <ele>367.46</ele>
        <time>2015-11-11T08:12:01Z</time>
      </trkpt>
      <trkpt lat="43.73671" lon="5.87657">
        <ele>365.39</ele>
        <time>2015-11-11T08:12:04Z</time>
      </trkpt>
      <trkpt lat="43.73671" lon="5.87628">
        <ele>363.01</ele>
        <time>2015-11-11T08:12:07Z</time>
      </trkpt>
      <trkpt lat="43.73678" lon="5.87599">
        <ele>360.96</ele>
        <time>2015-11-11T08:12:10Z</time>
      </trkpt>
      <trkpt lat="43.73687" lon="5.87574">
        <ele>357.08</ele>
        <time>2015-11-11T08:12:13Z</time>
      </trkpt>
      <trkpt lat="43.737" lon="5.87551">
        <ele>357.23</ele>
        <time>2015-11-11T08:12:17Z</time>
      </trkpt>
      <trkpt lat="43.73704" lon="5.87525">
        <ele>354.71</ele>
        <time>2015-11-11T08:12:22Z</time>
      </trkpt>
      <trkpt lat="43.73725" lon="5.87515">
        <ele>345.8</ele>
        <time>2015-11-11T08:12:30Z</time>
      </trkpt>
      <trkpt lat="43.73743" lon="5.87507">
        <ele>343.03</ele>
        <time>2015-11-11T08:12:34Z</time>
      </trkpt>
      <trkpt lat="43.73745" lon="5.87534">
        <ele>336.19</ele>
        <time>2015-11-11T08:14:25Z</time>
      </trkpt>
      <trkpt lat="43.73738" lon="5.87564">
        <ele>335.93</ele>
        <time>2015-11-11T08:14:29Z</time>
      </trkpt>
      <trkpt lat="43.73747" lon="5.87589">
        <ele>335.6</ele>
        <time>2015-11-11T08:14:33Z</time>
      </trkpt>
      <trkpt lat="43.73764" lon="5.87596">
        <ele>334.54</ele>
        <time>2015-11-11T08:14:36Z</time>
      </trkpt>
      <trkpt lat="43.73784" lon="5.87598">
        <ele>334.15</ele>
        <time>2015-11-11T08:14:39Z</time>
      </trkpt>
      <trkpt lat="43.73803" lon="5.87604">
        <ele>333.48</ele>
        <time>2015-11-11T08:14:42Z</time>
      </trkpt>
      <trkpt lat="43.73817" lon="5.87626">
        <ele>332.02</ele>
        <time>2015-11-11T08:14:45Z</time>
      </trkpt>
      <trkpt lat="43.73831" lon="5.87646">
        <ele>331.09</ele>
        <time>2015-11-11T08:14:48Z</time>
      </trkpt>
      <trkpt lat="43.73852" lon="5.87654">
        <ele>330.85</ele>
        <time>2015-11-11T08:14:51Z</time>
      </trkpt>
      <trkpt lat="43.73873" lon="5.87659">
        <ele>330.94</ele>
        <time>2015-11-11T08:14:54Z</time>
      </trkpt>
      <trkpt lat="43.73894" lon="5.87671">
        <ele>329.58</ele>
        <time>2015-11-11T08:14:57Z</time>
      </trkpt>
      <trkpt lat="43.7391" lon="5.87685">
        <ele>328.78</ele>
        <time>2015-11-11T08:15:00Z</time>
      </trkpt>
      <trkpt lat="43.73909" lon="5.8771">
        <ele>330.99</ele>
        <time>2015-11-11T08:15:07Z</time>
      </trkpt>
      <trkpt lat="43.73905" lon="5.87737">
        <ele>328.86</ele>
        <time>2015-11-11T08:15:28Z</time>
      </trkpt>
      <trkpt lat="43.73916" lon="5.8776">
        <ele>331.05</ele>
        <time>2015-11-11T08:15:36Z</time>
      </trkpt>
      <trkpt lat="43.73933" lon="5.87778">
        <ele>331.05</ele>
        <time>2015-11-11T08:15:42Z</time>
      </trkpt>
      <trkpt lat="43.73946" lon="5.87797">
        <ele>334.13</ele>
        <time>2015-11-11T08:15:49Z</time>
      </trkpt>
      <trkpt lat="43.73963" lon="5.87811">
        <ele>336.99</ele>
        <time>2015-11-11T08:15:59Z</time>
      </trkpt>
      <trkpt lat="43.73981" lon="5.87815">
        <ele>343.2</ele>
        <time>2015-11-11T08:16:09Z</time>
      </trkpt>
      <trkpt lat="43.74" lon="5.87821">
        <ele>346.75</ele>
        <time>2015-11-11T08:16:19Z</time>
      </trkpt>
      <trkpt lat="43.74019" lon="5.87819">
        <ele>346.74</ele>
        <time>2015-11-11T08:16:28Z</time>
      </trkpt>
      <trkpt lat="43.74038" lon="5.87816">
        <ele>347.16</ele>
        <time>2015-11-11T08:16:35Z</time>
      </trkpt>
      <trkpt lat="43.74058" lon="5.87814">
        <ele>347.26</ele>
        <time>2015-11-11T08:16:41Z</time>
      </trkpt>
      <trkpt lat="43.74077" lon="5.87821">
        <ele>347.68</ele>
        <time>2015-11-11T08:16:46Z</time>
      </trkpt>
      <trkpt lat="43.74089" lon="5.87841">
        <ele>346.3</ele>
        <time>2015-11-11T08:16:53Z</time>
      </trkpt>
      <trkpt lat="43.741" lon="5.87863">
        <ele>347.24</ele>
        <time>2015-11-11T08:17:05Z</time>
      </trkpt>
      <trkpt lat="43.74111" lon="5.87883">
        <ele>347.02</ele>
        <time>2015-11-11T08:17:18Z</time>
      </trkpt>
      <trkpt lat="43.74117" lon="5.87908">
        <ele>349.83</ele>
        <time>2015-11-11T08:17:30Z</time>
      </trkpt>
      <trkpt lat="43.74117" lon="5.87935">
        <ele>353.65</ele>
        <time>2015-11-11T08:17:46Z</time>
      </trkpt>
      <trkpt lat="43.74117" lon="5.87961">
        <ele>359.41</ele>
        <time>2015-11-11T08:17:59Z</time>
      </trkpt>
      <trkpt lat="43.74113" lon="5.87987">
        <ele>358.79</ele>
        <time>2015-11-11T08:18:10Z</time>
      </trkpt>
      <trkpt lat="43.74109" lon="5.88012">
        <ele>363.05</ele>
        <time>2015-11-11T08:18:23Z</time>
      </trkpt>
      <trkpt lat="43.74103" lon="5.88037">
        <ele>362.04</ele>
        <time>2015-11-11T08:18:35Z</time>
      </trkpt>
      <trkpt lat="43.74099" lon="5.88064">
        <ele>361.8</ele>
        <time>2015-11-11T08:18:46Z</time>
      </trkpt>
      <trkpt lat="43.74099" lon="5.88089">
        <ele>364.39</ele>
        <time>2015-11-11T08:18:56Z</time>
      </trkpt>
      <trkpt lat="43.74101" lon="5.88116">
        <ele>366.24</ele>
        <time>2015-11-11T08:19:06Z</time>
      </trkpt>
      <trkpt lat="43.74105" lon="5.88141">
        <ele>366.33</ele>
        <time>2015-11-11T08:19:16Z</time>
      </trkpt>
      <trkpt lat="43.74108" lon="5.88165">
        <ele>367.9</ele>
        <time>2015-11-11T08:19:25Z</time>
      </trkpt>
      <trkpt lat="43.74116" lon="5.88188">
        <ele>370.61</ele>
        <time>2015-11-11T08:19:34Z</time>
      </trkpt>
      <trkpt lat="43.74119" lon="5.88214">
        <ele>372.8</ele>
        <time>2015-11-11T08:19:44Z</time>
      </trkpt>
      <trkpt lat="43.7412" lon="5.88241">
        <ele>374.11</ele>
        <time>2015-11-11T08:19:55Z</time>
      </trkpt>
      <trkpt lat="43.74126" lon="5.88265">
        <ele>373.18</ele>
        <time>2015-11-11T08:20:05Z</time>
      </trkpt>
      <trkpt lat="43.74127" lon="5.88291">
        <ele>372.61</ele>
        <time>2015-11-11T08:20:16Z</time>
      </trkpt>
      <trkpt lat="43.74124" lon="5.88316">
        <ele>376.84</ele>
        <time>2015-11-11T08:20:25Z</time>
      </trkpt>
      <trkpt lat="43.74122" lon="5.88341">
        <ele>381.91</ele>
        <time>2015-11-11T08:20:34Z</time>
      </trkpt>
      <trkpt lat="43.7412" lon="5.88368">
        <ele>382.88</ele>
        <time>2015-11-11T08:20:45Z</time>
      </trkpt>
      <trkpt lat="43.74109" lon="5.88389">
        <ele>380.66</ele>
        <time>2015-11-11T08:20:54Z</time>
      </trkpt>
      <trkpt lat="43.74125" lon="5.88399">
        <ele>375.69</ele>
        <time>2015-11-11T08:20:59Z</time>
      </trkpt>
      <trkpt lat="43.74144" lon="5.88409">
        <ele>372.77</ele>
        <time>2015-11-11T08:21:03Z</time>
      </trkpt>
      <trkpt lat="43.74162" lon="5.88422">
        <ele>371.34</ele>
        <time>2015-11-11T08:21:07Z</time>
      </trkpt>
      <trkpt lat="43.7418" lon="5.8843">
        <ele>371.75</ele>
        <time>2015-11-11T08:21:11Z</time>
      </trkpt>
      <trkpt lat="43.74198" lon="5.88425">
        <ele>375.52</ele>
        <time>2015-11-11T08:21:17Z</time>
      </trkpt>
      <trkpt lat="43.74218" lon="5.88422">
        <ele>375.22</ele>
        <time>2015-11-11T08:21:23Z</time>
      </trkpt>
      <trkpt lat="43.74234" lon="5.8841">
        <ele>369.6</ele>
        <time>2015-11-11T08:21:29Z</time>
      </trkpt>
      <trkpt lat="43.74248" lon="5.88388">
        <ele>369.63</ele>
        <time>2015-11-11T08:21:34Z</time>
      </trkpt>
      <trkpt lat="43.74261" lon="5.8837">
        <ele>367.67</ele>
        <time>2015-11-11T08:21:37Z</time>
      </trkpt>
      <trkpt lat="43.74275" lon="5.88347">
        <ele>363.79</ele>
        <time>2015-11-11T08:21:40Z</time>
      </trkpt>
      <trkpt lat="43.74289" lon="5.88328">
        <ele>361.19</ele>
        <time>2015-11-11T08:21:43Z</time>
      </trkpt>
      <trkpt lat="43.74311" lon="5.88323">
        <ele>363.11</ele>
        <time>2015-11-11T08:21:46Z</time>
      </trkpt>
      <trkpt lat="43.74332" lon="5.88312">
        <ele>360.36</ele>
        <time>2015-11-11T08:21:50Z</time>
      </trkpt>
      <trkpt lat="43.74339" lon="5.88281">
        <ele>359.4</ele>
        <time>2015-11-11T08:21:55Z</time>
      </trkpt>
      <trkpt lat="43.7434" lon="5.88251">
        <ele>359.75</ele>
        <time>2015-11-11T08:21:59Z</time>
      </trkpt>
      <trkpt lat="43.74356" lon="5.88233">
        <ele>356.59</ele>
        <time>2015-11-11T08:22:03Z</time>
      </trkpt>
      <trkpt lat="43.74375" lon="5.88226">
        <ele>354.79</ele>
        <time>2015-11-11T08:22:06Z</time>
      </trkpt>
      <trkpt lat="43.74396" lon="5.88223">
        <ele>352.18</ele>
        <time>2015-11-11T08:22:09Z</time>
      </trkpt>
      <trkpt lat="43.74415" lon="5.8821">
        <ele>350.48</ele>
        <time>2015-11-11T08:22:12Z</time>
      </trkpt>
      <trkpt lat="43.74432" lon="5.882">
        <ele>349.77</ele>
        <time>2015-11-11T08:22:15Z</time>
      </trkpt>
      <trkpt lat="43.74449" lon="5.88186">
        <ele>346.43</ele>
        <time>2015-11-11T08:22:18Z</time>
      </trkpt>
      <trkpt lat="43.74462" lon="5.88166">
        <ele>344.65</ele>
        <time>2015-11-11T08:22:23Z</time>
      </trkpt>
      <trkpt lat="43.74473" lon="5.88147">
        <ele>343.42</ele>
        <time>2015-11-11T08:22:26Z</time>
      </trkpt>
      <trkpt lat="43.74488" lon="5.88127">
        <ele>339.4</ele>
        <time>2015-11-11T08:22:31Z</time>
      </trkpt>
      <trkpt lat="43.74494" lon="5.88103">
        <ele>335.43</ele>
        <time>2015-11-11T08:22:37Z</time>
      </trkpt>
      <trkpt lat="43.74504" lon="5.88082">
        <ele>334.4</ele>
        <time>2015-11-11T08:22:45Z</time>
      </trkpt>
      <trkpt lat="43.74523" lon="5.88082">
        <ele>333.26</ele>
        <time>2015-11-11T08:22:48Z</time>
      </trkpt>
      <trkpt lat="43.74544" lon="5.88074">
        <ele>331.74</ele>
        <time>2015-11-11T08:22:52Z</time>
      </trkpt>
      <trkpt lat="43.74562" lon="5.88063">
        <ele>331.21</ele>
        <time>2015-11-11T08:22:56Z</time>
      </trkpt>
      <trkpt lat="43.7458" lon="5.88061">
        <ele>329.43</ele>
        <time>2015-11-11T08:23:00Z</time>
      </trkpt>
      <trkpt lat="43.74595" lon="5.88045">
        <ele>331.36</ele>
        <time>2015-11-11T08:23:07Z</time>
      </trkpt>
      <trkpt lat="43.74611" lon="5.88031">
        <ele>333.04</ele>
        <time>2015-11-11T08:23:13Z</time>
      </trkpt>
      <trkpt lat="43.74627" lon="5.88012">
        <ele>331.58</ele>
        <time>2015-11-11T08:23:20Z</time>
      </trkpt>
      <trkpt lat="43.74617" lon="5.88039">
        <ele>323.54</ele>
        <time>2015-11-11T08:23:36Z</time>
      </trkpt>
      <trkpt lat="43.74619" lon="5.88067">
        <ele>322.6</ele>
        <time>2015-11-11T08:23:41Z</time>
      </trkpt>
      <trkpt lat="43.74637" lon="5.8808">
        <ele>320.89</ele>
        <time>2015-11-11T08:23:45Z</time>
      </trkpt>
      <trkpt lat="43.74656" lon="5.88089">
        <ele>320.16</ele>
        <time>2015-11-11T08:23:49Z</time>
      </trkpt>
      <trkpt lat="43.74668" lon="5.8811">
        <ele>318.61</ele>
        <time>2015-11-11T08:23:53Z</time>
      </trkpt>
      <trkpt lat="43.74677" lon="5.88133">
        <ele>318.2</ele>
        <time>2015-11-11T08:23:57Z</time>
      </trkpt>
      <trkpt lat="43.74684" lon="5.88159">
        <ele>320.05</ele>
        <time>2015-11-11T08:24:01Z</time>
      </trkpt>
      <trkpt lat="43.74692" lon="5.88188">
        <ele>321.79</ele>
        <time>2015-11-11T08:24:05Z</time>
      </trkpt>
      <trkpt lat="43.747" lon="5.88214">
        <ele>322.96</ele>
        <time>2015-11-11T08:24:09Z</time>
      </trkpt>
      <trkpt lat="43.74713" lon="5.88235">
        <ele>323.22</ele>
        <time>2015-11-11T08:24:13Z</time>
      </trkpt>
      <trkpt lat="43.74728" lon="5.88253">
        <ele>321.55</ele>
        <time>2015-11-11T08:24:17Z</time>
      </trkpt>
      <trkpt lat="43.74743" lon="5.88272">
        <ele>321.28</ele>
        <time>2015-11-11T08:24:20Z</time>
      </trkpt>
      <trkpt lat="43.7476" lon="5.88289">
        <ele>321.81</ele>
        <time>2015-11-11T08:24:24Z</time>
      </trkpt>
      <trkpt lat="43.74781" lon="5.88296">
        <ele>323.09</ele>
        <time>2015-11-11T08:24:28Z</time>
      </trkpt>
      <trkpt lat="43.74803" lon="5.88289">
        <ele>322.86</ele>
        <time>2015-11-11T08:24:32Z</time>
      </trkpt>
      <trkpt lat="43.74824" lon="5.88284">
        <ele>323.28</ele>
        <time>2015-11-11T08:24:36Z</time>
      </trkpt>
      <trkpt lat="43.74846" lon="5.88287">
        <ele>323.74</ele>
        <time>2015-11-11T08:24:40Z</time>
      </trkpt>
      <trkpt lat="43.74865" lon="5.88306">
        <ele>323.71</ele>
        <time>2015-11-11T08:24:44Z</time>
      </trkpt>
      <trkpt lat="43.7488" lon="5.8833">
        <ele>322.77</ele>
        <time>2015-11-11T08:24:48Z</time>
      </trkpt>
      <trkpt lat="43.74892" lon="5.88354">
        <ele>322.59</ele>
        <time>2015-11-11T08:24:52Z</time>
      </trkpt>
      <trkpt lat="43.74898" lon="5.88385">
        <ele>319.64</ele>
        <time>2015-11-11T08:24:56Z</time>
      </trkpt>
      <trkpt lat="43.74913" lon="5.88405">
        <ele>320.14</ele>
        <time>2015-11-11T08:25:00Z</time>
      </trkpt>
      <trkpt lat="43.74934" lon="5.88413">
        <ele>321.24</ele>
        <time>2015-11-11T08:25:04Z</time>
      </trkpt>
      <trkpt lat="43.74955" lon="5.88408">
        <ele>323.8</ele>
        <time>2015-11-11T08:25:08Z</time>
      </trkpt>
      <trkpt lat="43.74972" lon="5.884">
        <ele>324.31</ele>
        <time>2015-11-11T08:25:11Z</time>
      </trkpt>
      <trkpt lat="43.74994" lon="5.884">
        <ele>325.5</ele>
        <time>2015-11-11T08:25:15Z</time>
      </trkpt>
      <trkpt lat="43.75014" lon="5.88414">
        <ele>324.32</ele>
        <time>2015-11-11T08:25:19Z</time>
      </trkpt>
      <trkpt lat="43.75028" lon="5.88436">
        <ele>323.68</ele>
        <time>2015-11-11T08:25:23Z</time>
      </trkpt>
      <trkpt lat="43.75042" lon="5.88462">
        <ele>321.46</ele>
        <time>2015-11-11T08:25:27Z</time>
      </trkpt>
      <trkpt lat="43.75057" lon="5.88483">
        <ele>321.26</ele>
        <time>2015-11-11T08:25:31Z</time>
      </trkpt>
      <trkpt lat="43.75074" lon="5.88499">
        <ele>319.43</ele>
        <time>2015-11-11T08:25:35Z</time>
      </trkpt>
      <trkpt lat="43.75095" lon="5.88511">
        <ele>318.88</ele>
        <time>2015-11-11T08:25:39Z</time>
      </trkpt>
      <trkpt lat="43.75117" lon="5.88524">
        <ele>318.78</ele>
        <time>2015-11-11T08:25:43Z</time>
      </trkpt>
      <trkpt lat="43.75127" lon="5.88544">
        <ele>318.18</ele>
        <time>2015-11-11T08:25:46Z</time>
      </trkpt>
      <trkpt lat="43.75131" lon="5.88571">
        <ele>317.48</ele>
        <time>2015-11-11T08:25:49Z</time>
      </trkpt>
      <trkpt lat="43.75146" lon="5.88594">
        <ele>317.32</ele>
        <time>2015-11-11T08:25:53Z</time>
      </trkpt>
      <trkpt lat="43.75164" lon="5.88592">
        <ele>317.38</ele>
        <time>2015-11-11T08:25:56Z</time>
      </trkpt>
      <trkpt lat="43.75186" lon="5.88592">
        <ele>318.63</ele>
        <time>2015-11-11T08:25:59Z</time>
      </trkpt>
      <trkpt lat="43.75209" lon="5.88598">
        <ele>318.79</ele>
        <time>2015-11-11T08:26:02Z</time>
      </trkpt>
      <trkpt lat="43.75231" lon="5.88613">
        <ele>318.69</ele>
        <time>2015-11-11T08:26:05Z</time>
      </trkpt>
      <trkpt lat="43.7525" lon="5.88635">
        <ele>317.92</ele>
        <time>2015-11-11T08:26:08Z</time>
      </trkpt>
      <trkpt lat="43.75265" lon="5.88663">
        <ele>316.58</ele>
        <time>2015-11-11T08:26:11Z</time>
      </trkpt>
      <trkpt lat="43.75276" lon="5.88694">
        <ele>313.66</ele>
        <time>2015-11-11T08:26:14Z</time>
      </trkpt>
      <trkpt lat="43.75286" lon="5.88727">
        <ele>310.42</ele>
        <time>2015-11-11T08:26:17Z</time>
      </trkpt>
      <trkpt lat="43.75293" lon="5.88755">
        <ele>308.39</ele>
        <time>2015-11-11T08:26:20Z</time>
      </trkpt>
      <trkpt lat="43.753" lon="5.88783">
        <ele>305.89</ele>
        <time>2015-11-11T08:26:23Z</time>
      </trkpt>
      <trkpt lat="43.75303" lon="5.88813">
        <ele>305.95</ele>
        <time>2015-11-11T08:26:26Z</time>
      </trkpt>
      <trkpt lat="43.75305" lon="5.8884">
        <ele>306.21</ele>
        <time>2015-11-11T08:26:29Z</time>
      </trkpt>
      <trkpt lat="43.75305" lon="5.88866">
        <ele>306.24</ele>
        <time>2015-11-11T08:26:32Z</time>
      </trkpt>
      <trkpt lat="43.75308" lon="5.88891">
        <ele>307.62</ele>
        <time>2015-11-11T08:26:35Z</time>
      </trkpt>
      <trkpt lat="43.75311" lon="5.88917">
        <ele>306.41</ele>
        <time>2015-11-11T08:26:38Z</time>
      </trkpt>
      <trkpt lat="43.75315" lon="5.88946">
        <ele>306.75</ele>
        <time>2015-11-11T08:26:42Z</time>
      </trkpt>
      <trkpt lat="43.75319" lon="5.88975">
        <ele>307.71</ele>
        <time>2015-11-11T08:26:46Z</time>
      </trkpt>
      <trkpt lat="43.7533" lon="5.88997">
        <ele>308.96</ele>
        <time>2015-11-11T08:26:50Z</time>
      </trkpt>
      <trkpt lat="43.75333" lon="5.89025">
        <ele>307.55</ele>
        <time>2015-11-11T08:26:55Z</time>
      </trkpt>
      <trkpt lat="43.75328" lon="5.89051">
        <ele>307.95</ele>
        <time>2015-11-11T08:26:59Z</time>
      </trkpt>
      <trkpt lat="43.75319" lon="5.89079">
        <ele>307.29</ele>
        <time>2015-11-11T08:27:03Z</time>
      </trkpt>
      <trkpt lat="43.75309" lon="5.89105">
        <ele>306.37</ele>
        <time>2015-11-11T08:27:07Z</time>
      </trkpt>
      <trkpt lat="43.75298" lon="5.89131">
        <ele>306.25</ele>
        <time>2015-11-11T08:27:12Z</time>
      </trkpt>
      <trkpt lat="43.75282" lon="5.89147">
        <ele>306.24</ele>
        <time>2015-11-11T08:27:17Z</time>
      </trkpt>
      <trkpt lat="43.75267" lon="5.89166">
        <ele>306.49</ele>
        <time>2015-11-11T08:27:22Z</time>
      </trkpt>
      <trkpt lat="43.75252" lon="5.89185">
        <ele>307.19</ele>
        <time>2015-11-11T08:27:27Z</time>
      </trkpt>
      <trkpt lat="43.75236" lon="5.89204">
        <ele>308.62</ele>
        <time>2015-11-11T08:27:32Z</time>
      </trkpt>
      <trkpt lat="43.75221" lon="5.89224">
        <ele>310.66</ele>
        <time>2015-11-11T08:27:37Z</time>
      </trkpt>
      <trkpt lat="43.75204" lon="5.89237">
        <ele>312.91</ele>
        <time>2015-11-11T08:27:42Z</time>
      </trkpt>
      <trkpt lat="43.75186" lon="5.89245">
        <ele>314.86</ele>
        <time>2015-11-11T08:27:48Z</time>
      </trkpt>
      <trkpt lat="43.75167" lon="5.89251">
        <ele>317.25</ele>
        <time>2015-11-11T08:27:54Z</time>
      </trkpt>
      <trkpt lat="43.75147" lon="5.89253">
        <ele>316.37</ele>
        <time>2015-11-11T08:28:00Z</time>
      </trkpt>
      <trkpt lat="43.75128" lon="5.89256">
        <ele>315.28</ele>
        <time>2015-11-11T08:28:06Z</time>
      </trkpt>
      <trkpt lat="43.75106" lon="5.89255">
        <ele>315.24</ele>
        <time>2015-11-11T08:28:12Z</time>
      </trkpt>
      <trkpt lat="43.75086" lon="5.89252">
        <ele>315.24</ele>
        <time>2015-11-11T08:28:16Z</time>
      </trkpt>
      <trkpt lat="43.75067" lon="5.89249">
        <ele>314.37</ele>
        <time>2015-11-11T08:28:20Z</time>
      </trkpt>
      <trkpt lat="43.75045" lon="5.89262">
        <ele>314.87</ele>
        <time>2015-11-11T08:28:24Z</time>
      </trkpt>
      <trkpt lat="43.75026" lon="5.8927">
        <ele>316.66</ele>
        <time>2015-11-11T08:28:28Z</time>
      </trkpt>
      <trkpt lat="43.7501" lon="5.89279">
        <ele>317.21</ele>
        <time>2015-11-11T08:28:32Z</time>
      </trkpt>
      <trkpt lat="43.74991" lon="5.89293">
        <ele>319.15</ele>
        <time>2015-11-11T08:28:37Z</time>
      </trkpt>
      <trkpt lat="43.74972" lon="5.89306">
        <ele>318.74</ele>
        <time>2015-11-11T08:28:42Z</time>
      </trkpt>
      <trkpt lat="43.74953" lon="5.8932">
        <ele>319.63</ele>
        <time>2015-11-11T08:28:47Z</time>
      </trkpt>
      <trkpt lat="43.74936" lon="5.89335">
        <ele>318.82</ele>
        <time>2015-11-11T08:28:52Z</time>
      </trkpt>
      <trkpt lat="43.74917" lon="5.89348">
        <ele>318.35</ele>
        <time>2015-11-11T08:28:57Z</time>
      </trkpt>
      <trkpt lat="43.74898" lon="5.89362">
        <ele>319.25</ele>
        <time>2015-11-11T08:29:02Z</time>
      </trkpt>
      <trkpt lat="43.74879" lon="5.89375">
        <ele>320.49</ele>
        <time>2015-11-11T08:29:07Z</time>
      </trkpt>
      <trkpt lat="43.7486" lon="5.8939">
        <ele>321</ele>
        <time>2015-11-11T08:29:12Z</time>
      </trkpt>
      <trkpt lat="43.74843" lon="5.89403">
        <ele>321.73</ele>
        <time>2015-11-11T08:29:17Z</time>
      </trkpt>
      <trkpt lat="43.74829" lon="5.89421">
        <ele>322.73</ele>
        <time>2015-11-11T08:29:22Z</time>
      </trkpt>
      <trkpt lat="43.74819" lon="5.89444">
        <ele>322.79</ele>
        <time>2015-11-11T08:29:27Z</time>
      </trkpt>
      <trkpt lat="43.74811" lon="5.89468">
        <ele>322.35</ele>
        <time>2015-11-11T08:29:32Z</time>
      </trkpt>
      <trkpt lat="43.74803" lon="5.89493">
        <ele>322.75</ele>
        <time>2015-11-11T08:29:37Z</time>
      </trkpt>
      <trkpt lat="43.74794" lon="5.89517">
        <ele>321.88</ele>
        <time>2015-11-11T08:29:42Z</time>
      </trkpt>
      <trkpt lat="43.74786" lon="5.89541">
        <ele>322.86</ele>
        <time>2015-11-11T08:29:47Z</time>
      </trkpt>
      <trkpt lat="43.74776" lon="5.89564">
        <ele>326.6</ele>
        <time>2015-11-11T08:29:52Z</time>
      </trkpt>
      <trkpt lat="43.74764" lon="5.89583">
        <ele>328.6</ele>
        <time>2015-11-11T08:29:57Z</time>
      </trkpt>
      <trkpt lat="43.74749" lon="5.896">
        <ele>329.94</ele>
        <time>2015-11-11T08:30:03Z</time>
      </trkpt>
      <trkpt lat="43.74733" lon="5.89616">
        <ele>332</ele>
        <time>2015-11-11T08:30:09Z</time>
      </trkpt>
      <trkpt lat="43.74716" lon="5.89633">
        <ele>333.66</ele>
        <time>2015-11-11T08:30:15Z</time>
      </trkpt>
      <trkpt lat="43.74706" lon="5.89659">
        <ele>332.47</ele>
        <time>2015-11-11T08:30:21Z</time>
      </trkpt>
      <trkpt lat="43.747" lon="5.89683">
        <ele>332.09</ele>
        <time>2015-11-11T08:30:26Z</time>
      </trkpt>
      <trkpt lat="43.74686" lon="5.89701">
        <ele>333.33</ele>
        <time>2015-11-11T08:30:32Z</time>
      </trkpt>
      <trkpt lat="43.74667" lon="5.89704">
        <ele>335.48</ele>
        <time>2015-11-11T08:30:38Z</time>
      </trkpt>
      <trkpt lat="43.74648" lon="5.89706">
        <ele>337.29</ele>
        <time>2015-11-11T08:30:44Z</time>
      </trkpt>
      <trkpt lat="43.74629" lon="5.89712">
        <ele>339.09</ele>
        <time>2015-11-11T08:30:50Z</time>
      </trkpt>
      <trkpt lat="43.74611" lon="5.89723">
        <ele>338.01</ele>
        <time>2015-11-11T08:30:57Z</time>
      </trkpt>
      <trkpt lat="43.74597" lon="5.89741">
        <ele>336.87</ele>
        <time>2015-11-11T08:31:04Z</time>
      </trkpt>
      <trkpt lat="43.74584" lon="5.8976">
        <ele>337.18</ele>
        <time>2015-11-11T08:31:13Z</time>
      </trkpt>
      <trkpt lat="43.74574" lon="5.89784">
        <ele>335.87</ele>
        <time>2015-11-11T08:31:21Z</time>
      </trkpt>
      <trkpt lat="43.74562" lon="5.89806">
        <ele>338.44</ele>
        <time>2015-11-11T08:31:29Z</time>
      </trkpt>
      <trkpt lat="43.74551" lon="5.89827">
        <ele>339.59</ele>
        <time>2015-11-11T08:31:36Z</time>
      </trkpt>
      <trkpt lat="43.74539" lon="5.89848">
        <ele>339.67</ele>
        <time>2015-11-11T08:31:43Z</time>
      </trkpt>
      <trkpt lat="43.74528" lon="5.8987">
        <ele>340.79</ele>
        <time>2015-11-11T08:31:50Z</time>
      </trkpt>
      <trkpt lat="43.74515" lon="5.89887">
        <ele>343.71</ele>
        <time>2015-11-11T08:31:58Z</time>
      </trkpt>
      <trkpt lat="43.74503" lon="5.89905">
        <ele>347.2</ele>
        <time>2015-11-11T08:32:07Z</time>
      </trkpt>
      <trkpt lat="43.7449" lon="5.89923">
        <ele>349.22</ele>
        <time>2015-11-11T08:32:16Z</time>
      </trkpt>
      <trkpt lat="43.74476" lon="5.8994">
        <ele>349.29</ele>
        <time>2015-11-11T08:32:25Z</time>
      </trkpt>
      <trkpt lat="43.74463" lon="5.89961">
        <ele>346.2</ele>
        <time>2015-11-11T08:32:35Z</time>
      </trkpt>
      <trkpt lat="43.74447" lon="5.89977">
        <ele>350.86</ele>
        <time>2015-11-11T08:32:45Z</time>
      </trkpt>
      <trkpt lat="43.74432" lon="5.89991">
        <ele>351.53</ele>
        <time>2015-11-11T08:32:54Z</time>
      </trkpt>
      <trkpt lat="43.74415" lon="5.90002">
        <ele>356.61</ele>
        <time>2015-11-11T08:33:06Z</time>
      </trkpt>
      <trkpt lat="43.74398" lon="5.90015">
        <ele>359.46</ele>
        <time>2015-11-11T08:33:16Z</time>
      </trkpt>
      <trkpt lat="43.74387" lon="5.90037">
        <ele>363.18</ele>
        <time>2015-11-11T08:33:25Z</time>
      </trkpt>
      <trkpt lat="43.74376" lon="5.90059">
        <ele>365.29</ele>
        <time>2015-11-11T08:33:34Z</time>
      </trkpt>
      <trkpt lat="43.74361" lon="5.90075">
        <ele>366.23</ele>
        <time>2015-11-11T08:33:43Z</time>
      </trkpt>
      <trkpt lat="43.74344" lon="5.9009">
        <ele>366.46</ele>
        <time>2015-11-11T08:33:52Z</time>
      </trkpt>
      <trkpt lat="43.74328" lon="5.90101">
        <ele>367.24</ele>
        <time>2015-11-11T08:34:00Z</time>
      </trkpt>
      <trkpt lat="43.74309" lon="5.90104">
        <ele>369.46</ele>
        <time>2015-11-11T08:34:09Z</time>
      </trkpt>
      <trkpt lat="43.7429" lon="5.90108">
        <ele>371.83</ele>
        <time>2015-11-11T08:34:18Z</time>
      </trkpt>
      <trkpt lat="43.74272" lon="5.90116">
        <ele>373.99</ele>
        <time>2015-11-11T08:34:26Z</time>
      </trkpt>
      <trkpt lat="43.74255" lon="5.90132">
        <ele>375.51</ele>
        <time>2015-11-11T08:34:33Z</time>
      </trkpt>
      <trkpt lat="43.74241" lon="5.90149">
        <ele>378.61</ele>
        <time>2015-11-11T08:34:39Z</time>
      </trkpt>
      <trkpt lat="43.74228" lon="5.90168">
        <ele>379.23</ele>
        <time>2015-11-11T08:34:45Z</time>
      </trkpt>
      <trkpt lat="43.74221" lon="5.90192">
        <ele>381.62</ele>
        <time>2015-11-11T08:34:51Z</time>
      </trkpt>
      <trkpt lat="43.74222" lon="5.90221">
        <ele>381.86</ele>
        <time>2015-11-11T08:34:57Z</time>
      </trkpt>
      <trkpt lat="43.74226" lon="5.90245">
        <ele>385.29</ele>
        <time>2015-11-11T08:35:02Z</time>
      </trkpt>
      <trkpt lat="43.74234" lon="5.90269">
        <ele>382.9</ele>
        <time>2015-11-11T08:35:08Z</time>
      </trkpt>
      <trkpt lat="43.74241" lon="5.90295">
        <ele>382.25</ele>
        <time>2015-11-11T08:35:15Z</time>
      </trkpt>
      <trkpt lat="43.74242" lon="5.90324">
        <ele>381.02</ele>
        <time>2015-11-11T08:35:22Z</time>
      </trkpt>
      <trkpt lat="43.74238" lon="5.90351">
        <ele>377.25</ele>
        <time>2015-11-11T08:35:29Z</time>
      </trkpt>
      <trkpt lat="43.74233" lon="5.90378">
        <ele>379.36</ele>
        <time>2015-11-11T08:35:36Z</time>
      </trkpt>
      <trkpt lat="43.74223" lon="5.90401">
        <ele>384.75</ele>
        <time>2015-11-11T08:35:44Z</time>
      </trkpt>
      <trkpt lat="43.74209" lon="5.90421">
        <ele>386.67</ele>
        <time>2015-11-11T08:35:53Z</time>
      </trkpt>
      <trkpt lat="43.74193" lon="5.90434">
        <ele>389.48</ele>
        <time>2015-11-11T08:36:02Z</time>
      </trkpt>
      <trkpt lat="43.74181" lon="5.90455">
        <ele>394.29</ele>
        <time>2015-11-11T08:36:13Z</time>
      </trkpt>
      <trkpt lat="43.74175" lon="5.9048">
        <ele>392.31</ele>
        <time>2015-11-11T08:36:23Z</time>
      </trkpt>
      <trkpt lat="43.7417" lon="5.90505">
        <ele>395.14</ele>
        <time>2015-11-11T08:36:33Z</time>
      </trkpt>
      <trkpt lat="43.74166" lon="5.9053">
        <ele>395.81</ele>
        <time>2015-11-11T08:36:42Z</time>
      </trkpt>
      <trkpt lat="43.74158" lon="5.90552">
        <ele>397.16</ele>
        <time>2015-11-11T08:36:51Z</time>
      </trkpt>
      <trkpt lat="43.74148" lon="5.90575">
        <ele>398.23</ele>
        <time>2015-11-11T08:37:00Z</time>
      </trkpt>
      <trkpt lat="43.74136" lon="5.90595">
        <ele>400.11</ele>
        <time>2015-11-11T08:37:10Z</time>
      </trkpt>
      <trkpt lat="43.74122" lon="5.90614">
        <ele>402.95</ele>
        <time>2015-11-11T08:37:20Z</time>
      </trkpt>
      <trkpt lat="43.74106" lon="5.90628">
        <ele>405.18</ele>
        <time>2015-11-11T08:37:29Z</time>
      </trkpt>
      <trkpt lat="43.74088" lon="5.90622">
        <ele>406.98</ele>
        <time>2015-11-11T08:37:39Z</time>
      </trkpt>
      <trkpt lat="43.7407" lon="5.90617">
        <ele>408.98</ele>
        <time>2015-11-11T08:37:50Z</time>
      </trkpt>
      <trkpt lat="43.74051" lon="5.9062">
        <ele>411.24</ele>
        <time>2015-11-11T08:38:01Z</time>
      </trkpt>
      <trkpt lat="43.74033" lon="5.90625">
        <ele>413.7</ele>
        <time>2015-11-11T08:38:11Z</time>
      </trkpt>
      <trkpt lat="43.74016" lon="5.90637">
        <ele>416.43</ele>
        <time>2015-11-11T08:38:21Z</time>
      </trkpt>
      <trkpt lat="43.74005" lon="5.90659">
        <ele>419.01</ele>
        <time>2015-11-11T08:38:31Z</time>
      </trkpt>
      <trkpt lat="43.73998" lon="5.90684">
        <ele>421.86</ele>
        <time>2015-11-11T08:38:41Z</time>
      </trkpt>
      <trkpt lat="43.73988" lon="5.90706">
        <ele>423.42</ele>
        <time>2015-11-11T08:38:50Z</time>
      </trkpt>
      <trkpt lat="43.73987" lon="5.90733">
        <ele>421.34</ele>
        <time>2015-11-11T08:38:59Z</time>
      </trkpt>
      <trkpt lat="43.73977" lon="5.90756">
        <ele>424.67</ele>
        <time>2015-11-11T08:39:08Z</time>
      </trkpt>
      <trkpt lat="43.73963" lon="5.90773">
        <ele>426.64</ele>
        <time>2015-11-11T08:39:18Z</time>
      </trkpt>
      <trkpt lat="43.73944" lon="5.90776">
        <ele>429.91</ele>
        <time>2015-11-11T08:39:29Z</time>
      </trkpt>
      <trkpt lat="43.73926" lon="5.90783">
        <ele>432.07</ele>
        <time>2015-11-11T08:39:41Z</time>
      </trkpt>
      <trkpt lat="43.73908" lon="5.9079">
        <ele>438.04</ele>
        <time>2015-11-11T08:39:53Z</time>
      </trkpt>
      <trkpt lat="43.73891" lon="5.90799">
        <ele>439.77</ele>
        <time>2015-11-11T08:40:02Z</time>
      </trkpt>
      <trkpt lat="43.73877" lon="5.90817">
        <ele>440.94</ele>
        <time>2015-11-11T08:40:12Z</time>
      </trkpt>
      <trkpt lat="43.73887" lon="5.90838">
        <ele>445.16</ele>
        <time>2015-11-11T08:40:21Z</time>
      </trkpt>
      <trkpt lat="43.73903" lon="5.90851">
        <ele>448.93</ele>
        <time>2015-11-11T08:40:31Z</time>
      </trkpt>
      <trkpt lat="43.73913" lon="5.90874">
        <ele>445.07</ele>
        <time>2015-11-11T08:40:42Z</time>
      </trkpt>
      <trkpt lat="43.73915" lon="5.909">
        <ele>445.45</ele>
        <time>2015-11-11T08:40:54Z</time>
      </trkpt>
      <trkpt lat="43.73918" lon="5.90926">
        <ele>444.29</ele>
        <time>2015-11-11T08:41:06Z</time>
      </trkpt>
      <trkpt lat="43.73911" lon="5.9095">
        <ele>446.19</ele>
        <time>2015-11-11T08:41:17Z</time>
      </trkpt>
      <trkpt lat="43.73904" lon="5.90973">
        <ele>447.68</ele>
        <time>2015-11-11T08:41:27Z</time>
      </trkpt>
      <trkpt lat="43.73895" lon="5.90997">
        <ele>450.79</ele>
        <time>2015-11-11T08:41:38Z</time>
      </trkpt>
      <trkpt lat="43.73881" lon="5.91014">
        <ele>454.41</ele>
        <time>2015-11-11T08:41:49Z</time>
      </trkpt>
      <trkpt lat="43.7388" lon="5.9104">
        <ele>453.73</ele>
        <time>2015-11-11T08:42:00Z</time>
      </trkpt>
      <trkpt lat="43.73879" lon="5.91065">
        <ele>456.22</ele>
        <time>2015-11-11T08:42:10Z</time>
      </trkpt>
      <trkpt lat="43.7388" lon="5.91091">
        <ele>456.42</ele>
        <time>2015-11-11T08:42:21Z</time>
      </trkpt>
      <trkpt lat="43.73899" lon="5.91088">
        <ele>457.98</ele>
        <time>2015-11-11T08:42:31Z</time>
      </trkpt>
      <trkpt lat="43.73917" lon="5.91083">
        <ele>461.22</ele>
        <time>2015-11-11T08:42:41Z</time>
      </trkpt>
      <trkpt lat="43.73929" lon="5.91061">
        <ele>463.11</ele>
        <time>2015-11-11T08:42:52Z</time>
      </trkpt>
      <trkpt lat="43.73946" lon="5.91047">
        <ele>464.81</ele>
        <time>2015-11-11T08:43:03Z</time>
      </trkpt>
      <trkpt lat="43.73965" lon="5.91049">
        <ele>467.12</ele>
        <time>2015-11-11T08:43:14Z</time>
      </trkpt>
      <trkpt lat="43.73982" lon="5.91037">
        <ele>468.85</ele>
        <time>2015-11-11T08:43:24Z</time>
      </trkpt>
      <trkpt lat="43.73981" lon="5.91063">
        <ele>468.12</ele>
        <time>2015-11-11T08:43:50Z</time>
      </trkpt>
      <trkpt lat="43.73966" lon="5.9108">
        <ele>473.95</ele>
        <time>2015-11-11T08:44:00Z</time>
      </trkpt>
      <trkpt lat="43.73956" lon="5.911">
        <ele>475.43</ele>
        <time>2015-11-11T08:44:09Z</time>
      </trkpt>
      <trkpt lat="43.73949" lon="5.91124">
        <ele>475.59</ele>
        <time>2015-11-11T08:44:16Z</time>
      </trkpt>
      <trkpt lat="43.73945" lon="5.91151">
        <ele>476.03</ele>
        <time>2015-11-11T08:44:23Z</time>
      </trkpt>
      <trkpt lat="43.73943" lon="5.91179">
        <ele>474.46</ele>
        <time>2015-11-11T08:44:29Z</time>
      </trkpt>
      <trkpt lat="43.73942" lon="5.91209">
        <ele>474.31</ele>
        <time>2015-11-11T08:44:35Z</time>
      </trkpt>
      <trkpt lat="43.73929" lon="5.91227">
        <ele>476.6</ele>
        <time>2015-11-11T08:44:42Z</time>
      </trkpt>
      <trkpt lat="43.73914" lon="5.91242">
        <ele>477.64</ele>
        <time>2015-11-11T08:44:52Z</time>
      </trkpt>
      <trkpt lat="43.73894" lon="5.91244">
        <ele>479.06</ele>
        <time>2015-11-11T08:45:00Z</time>
      </trkpt>
      <trkpt lat="43.73878" lon="5.91255">
        <ele>478.69</ele>
        <time>2015-11-11T08:45:07Z</time>
      </trkpt>
      <trkpt lat="43.73869" lon="5.91281">
        <ele>478.92</ele>
        <time>2015-11-11T08:45:14Z</time>
      </trkpt>
      <trkpt lat="43.73854" lon="5.913">
        <ele>480.49</ele>
        <time>2015-11-11T08:45:21Z</time>
      </trkpt>
      <trkpt lat="43.73838" lon="5.91315">
        <ele>484.14</ele>
        <time>2015-11-11T08:45:29Z</time>
      </trkpt>
      <trkpt lat="43.73821" lon="5.91327">
        <ele>485.24</ele>
        <time>2015-11-11T08:45:38Z</time>
      </trkpt>
      <trkpt lat="43.73803" lon="5.91334">
        <ele>483.11</ele>
        <time>2015-11-11T08:45:47Z</time>
      </trkpt>
      <trkpt lat="43.73787" lon="5.91343">
        <ele>485.98</ele>
        <time>2015-11-11T08:45:55Z</time>
      </trkpt>
      <trkpt lat="43.73768" lon="5.91345">
        <ele>487.25</ele>
        <time>2015-11-11T08:46:04Z</time>
      </trkpt>
      <trkpt lat="43.7375" lon="5.91352">
        <ele>487.36</ele>
        <time>2015-11-11T08:46:14Z</time>
      </trkpt>
      <trkpt lat="43.73738" lon="5.91371">
        <ele>488.83</ele>
        <time>2015-11-11T08:46:23Z</time>
      </trkpt>
      <trkpt lat="43.73725" lon="5.91389">
        <ele>488.25</ele>
        <time>2015-11-11T08:46:32Z</time>
      </trkpt>
      <trkpt lat="43.73712" lon="5.91408">
        <ele>490.42</ele>
        <time>2015-11-11T08:46:41Z</time>
      </trkpt>
      <trkpt lat="43.73702" lon="5.91431">
        <ele>492.35</ele>
        <time>2015-11-11T08:46:50Z</time>
      </trkpt>
      <trkpt lat="43.73691" lon="5.91452">
        <ele>495.58</ele>
        <time>2015-11-11T08:46:59Z</time>
      </trkpt>
      <trkpt lat="43.73677" lon="5.9147">
        <ele>498.86</ele>
        <time>2015-11-11T08:47:10Z</time>
      </trkpt>
      <trkpt lat="43.73664" lon="5.9149">
        <ele>502.58</ele>
        <time>2015-11-11T08:47:24Z</time>
      </trkpt>
      <trkpt lat="43.73659" lon="5.91514">
        <ele>505.21</ele>
        <time>2015-11-11T08:47:38Z</time>
      </trkpt>
      <trkpt lat="43.73661" lon="5.9154">
        <ele>506.05</ele>
        <time>2015-11-11T08:47:54Z</time>
      </trkpt>
      <trkpt lat="43.73663" lon="5.91566">
        <ele>507.74</ele>
        <time>2015-11-11T08:48:23Z</time>
      </trkpt>
      <trkpt lat="43.73648" lon="5.91581">
        <ele>512.42</ele>
        <time>2015-11-11T08:48:44Z</time>
      </trkpt>
      <trkpt lat="43.73636" lon="5.916">
        <ele>517.79</ele>
        <time>2015-11-11T08:49:41Z</time>
      </trkpt>
      <trkpt lat="43.73628" lon="5.91623">
        <ele>532.3</ele>
        <time>2015-11-11T08:50:23Z</time>
      </trkpt>
      <trkpt lat="43.7362" lon="5.91646">
        <ele>540.59</ele>
        <time>2015-11-11T08:51:20Z</time>
      </trkpt>
      <trkpt lat="43.73604" lon="5.91658">
        <ele>545.81</ele>
        <time>2015-11-11T08:51:55Z</time>
      </trkpt>
      <trkpt lat="43.73587" lon="5.91649">
        <ele>547.85</ele>
        <time>2015-11-11T08:52:06Z</time>
      </trkpt>
      <trkpt lat="43.73571" lon="5.91662">
        <ele>550.97</ele>
        <time>2015-11-11T08:52:19Z</time>
      </trkpt>
      <trkpt lat="43.73555" lon="5.91673">
        <ele>550.9</ele>
        <time>2015-11-11T08:52:33Z</time>
      </trkpt>
      <trkpt lat="43.73556" lon="5.91647">
        <ele>553.72</ele>
        <time>2015-11-11T08:53:11Z</time>
      </trkpt>
      <trkpt lat="43.73553" lon="5.91622">
        <ele>558.15</ele>
        <time>2015-11-11T08:53:31Z</time>
      </trkpt>
      <trkpt lat="43.73549" lon="5.91597">
        <ele>560.27</ele>
        <time>2015-11-11T08:53:49Z</time>
      </trkpt>
      <trkpt lat="43.73552" lon="5.91573">
        <ele>561.78</ele>
        <time>2015-11-11T08:54:06Z</time>
      </trkpt>
      <trkpt lat="43.73551" lon="5.91547">
        <ele>567.12</ele>
        <time>2015-11-11T08:54:24Z</time>
      </trkpt>
      <trkpt lat="43.73542" lon="5.91525">
        <ele>570.83</ele>
        <time>2015-11-11T08:54:41Z</time>
      </trkpt>
      <trkpt lat="43.73525" lon="5.91534">
        <ele>573.33</ele>
        <time>2015-11-11T08:55:04Z</time>
      </trkpt>
      <trkpt lat="43.73509" lon="5.9152">
        <ele>579.5</ele>
        <time>2015-11-11T08:55:50Z</time>
      </trkpt>
      <trkpt lat="43.73491" lon="5.9152">
        <ele>579.57</ele>
        <time>2015-11-11T08:56:13Z</time>
      </trkpt>
      <trkpt lat="43.73488" lon="5.91495">
        <ele>583.24</ele>
        <time>2015-11-11T08:57:45Z</time>
      </trkpt>
      <trkpt lat="43.73473" lon="5.91481">
        <ele>584.3</ele>
        <time>2015-11-11T08:58:06Z</time>
      </trkpt>
      <trkpt lat="43.73457" lon="5.91495">
        <ele>584.39</ele>
        <time>2015-11-11T08:58:16Z</time>
      </trkpt>
      <trkpt lat="43.73439" lon="5.91507">
        <ele>582.76</ele>
        <time>2015-11-11T08:58:27Z</time>
      </trkpt>
      <trkpt lat="43.73421" lon="5.91502">
        <ele>586.42</ele>
        <time>2015-11-11T08:58:38Z</time>
      </trkpt>
      <trkpt lat="43.73428" lon="5.91477">
        <ele>584.28</ele>
        <time>2015-11-11T08:58:48Z</time>
      </trkpt>
      <trkpt lat="43.73435" lon="5.91453">
        <ele>583.12</ele>
        <time>2015-11-11T08:58:57Z</time>
      </trkpt>
      <trkpt lat="43.73444" lon="5.91431">
        <ele>582.01</ele>
        <time>2015-11-11T08:59:04Z</time>
      </trkpt>
      <trkpt lat="43.7346" lon="5.91415">
        <ele>583.1</ele>
        <time>2015-11-11T08:59:10Z</time>
      </trkpt>
      <trkpt lat="43.73475" lon="5.91394">
        <ele>582.49</ele>
        <time>2015-11-11T08:59:16Z</time>
      </trkpt>
      <trkpt lat="43.73485" lon="5.91368">
        <ele>582.46</ele>
        <time>2015-11-11T08:59:22Z</time>
      </trkpt>
      <trkpt lat="43.73491" lon="5.91341">
        <ele>582.1</ele>
        <time>2015-11-11T08:59:29Z</time>
      </trkpt>
      <trkpt lat="43.73502" lon="5.91321">
        <ele>583.21</ele>
        <time>2015-11-11T08:59:35Z</time>
      </trkpt>
      <trkpt lat="43.7351" lon="5.91298">
        <ele>586.65</ele>
        <time>2015-11-11T08:59:41Z</time>
      </trkpt>
      <trkpt lat="43.73523" lon="5.91276">
        <ele>587.28</ele>
        <time>2015-11-11T08:59:48Z</time>
      </trkpt>
      <trkpt lat="43.73537" lon="5.91261">
        <ele>586.15</ele>
        <time>2015-11-11T08:59:55Z</time>
      </trkpt>
      <trkpt lat="43.73542" lon="5.91234">
        <ele>582.6</ele>
        <time>2015-11-11T09:00:01Z</time>
      </trkpt>
      <trkpt lat="43.73546" lon="5.91206">
        <ele>581.88</ele>
        <time>2015-11-11T09:00:06Z</time>
      </trkpt>
      <trkpt lat="43.73549" lon="5.91176">
        <ele>580.84</ele>
        <time>2015-11-11T09:00:10Z</time>
      </trkpt>
      <trkpt lat="43.73561" lon="5.91151">
        <ele>582.6</ele>
        <time>2015-11-11T09:00:15Z</time>
      </trkpt>
      <trkpt lat="43.73566" lon="5.91127">
        <ele>581.76</ele>
        <time>2015-11-11T09:00:19Z</time>
      </trkpt>
      <trkpt lat="43.73568" lon="5.91102">
        <ele>579.63</ele>
        <time>2015-11-11T09:00:25Z</time>
      </trkpt>
      <trkpt lat="43.73553" lon="5.91081">
        <ele>577.55</ele>
        <time>2015-11-11T09:00:32Z</time>
      </trkpt>
      <trkpt lat="43.73535" lon="5.91066">
        <ele>574.64</ele>
        <time>2015-11-11T09:00:36Z</time>
      </trkpt>
      <trkpt lat="43.73519" lon="5.91049">
        <ele>573.04</ele>
        <time>2015-11-11T09:00:39Z</time>
      </trkpt>
      <trkpt lat="43.73498" lon="5.91036">
        <ele>572.59</ele>
        <time>2015-11-11T09:00:42Z</time>
      </trkpt>
      <trkpt lat="43.73482" lon="5.9102">
        <ele>572.29</ele>
        <time>2015-11-11T09:00:45Z</time>
      </trkpt>
      <trkpt lat="43.73462" lon="5.91007">
        <ele>569.37</ele>
        <time>2015-11-11T09:00:49Z</time>
      </trkpt>
      <trkpt lat="43.73444" lon="5.9099">
        <ele>566.5</ele>
        <time>2015-11-11T09:00:53Z</time>
      </trkpt>
      <trkpt lat="43.73424" lon="5.90971">
        <ele>564.63</ele>
        <time>2015-11-11T09:00:57Z</time>
      </trkpt>
      <trkpt lat="43.73408" lon="5.90956">
        <ele>563.92</ele>
        <time>2015-11-11T09:01:00Z</time>
      </trkpt>
      <trkpt lat="43.73392" lon="5.90936">
        <ele>562.7</ele>
        <time>2015-11-11T09:01:03Z</time>
      </trkpt>
      <trkpt lat="43.73372" lon="5.90918">
        <ele>561.55</ele>
        <time>2015-11-11T09:01:06Z</time>
      </trkpt>
      <trkpt lat="43.73353" lon="5.90903">
        <ele>558.91</ele>
        <time>2015-11-11T09:01:09Z</time>
      </trkpt>
      <trkpt lat="43.73369" lon="5.90881">
        <ele>558.05</ele>
        <time>2015-11-11T09:02:42Z</time>
      </trkpt>
      <trkpt lat="43.73379" lon="5.90858">
        <ele>555.14</ele>
        <time>2015-11-11T09:02:47Z</time>
      </trkpt>
      <trkpt lat="43.73373" lon="5.90833">
        <ele>552.24</ele>
        <time>2015-11-11T09:02:52Z</time>
      </trkpt>
      <trkpt lat="43.73384" lon="5.90808">
        <ele>547.54</ele>
        <time>2015-11-11T09:02:59Z</time>
      </trkpt>
      <trkpt lat="43.7339" lon="5.90784">
        <ele>549.47</ele>
        <time>2015-11-11T09:03:06Z</time>
      </trkpt>
      <trkpt lat="43.73397" lon="5.9076">
        <ele>548.21</ele>
        <time>2015-11-11T09:03:15Z</time>
      </trkpt>
      <trkpt lat="43.73409" lon="5.90739">
        <ele>550.82</ele>
        <time>2015-11-11T09:03:24Z</time>
      </trkpt>
      <trkpt lat="43.7341" lon="5.90711">
        <ele>549.01</ele>
        <time>2015-11-11T09:03:32Z</time>
      </trkpt>
      <trkpt lat="43.73414" lon="5.90682">
        <ele>546.42</ele>
        <time>2015-11-11T09:03:37Z</time>
      </trkpt>
      <trkpt lat="43.73429" lon="5.90666">
        <ele>545.75</ele>
        <time>2015-11-11T09:03:41Z</time>
      </trkpt>
      <trkpt lat="43.73448" lon="5.90676">
        <ele>545.02</ele>
        <time>2015-11-11T09:03:45Z</time>
      </trkpt>
      <trkpt lat="43.73465" lon="5.90688">
        <ele>544.29</ele>
        <time>2015-11-11T09:03:49Z</time>
      </trkpt>
      <trkpt lat="43.73479" lon="5.90702">
        <ele>545.18</ele>
        <time>2015-11-11T09:03:54Z</time>
      </trkpt>
      <trkpt lat="43.73497" lon="5.90716">
        <ele>545.87</ele>
        <time>2015-11-11T09:04:01Z</time>
      </trkpt>
      <trkpt lat="43.73515" lon="5.90732">
        <ele>547.72</ele>
        <time>2015-11-11T09:04:08Z</time>
      </trkpt>
      <trkpt lat="43.7353" lon="5.90748">
        <ele>546.4</ele>
        <time>2015-11-11T09:04:12Z</time>
      </trkpt>
      <trkpt lat="43.73544" lon="5.90765">
        <ele>547.51</ele>
        <time>2015-11-11T09:04:15Z</time>
      </trkpt>
      <trkpt lat="43.7356" lon="5.90779">
        <ele>548.26</ele>
        <time>2015-11-11T09:04:19Z</time>
      </trkpt>
      <trkpt lat="43.73565" lon="5.90755">
        <ele>545.4</ele>
        <time>2015-11-11T09:04:24Z</time>
      </trkpt>
      <trkpt lat="43.73564" lon="5.90729">
        <ele>540.94</ele>
        <time>2015-11-11T09:04:28Z</time>
      </trkpt>
      <trkpt lat="43.73563" lon="5.90698">
        <ele>533.36</ele>
        <time>2015-11-11T09:04:33Z</time>
      </trkpt>
      <trkpt lat="43.73562" lon="5.90672">
        <ele>530.12</ele>
        <time>2015-11-11T09:04:37Z</time>
      </trkpt>
      <trkpt lat="43.73549" lon="5.90653">
        <ele>525.55</ele>
        <time>2015-11-11T09:04:42Z</time>
      </trkpt>
      <trkpt lat="43.73531" lon="5.90645">
        <ele>525.25</ele>
        <time>2015-11-11T09:04:48Z</time>
      </trkpt>
      <trkpt lat="43.7352" lon="5.90621">
        <ele>515.87</ele>
        <time>2015-11-11T09:04:53Z</time>
      </trkpt>
      <trkpt lat="43.73518" lon="5.90595">
        <ele>510.66</ele>
        <time>2015-11-11T09:04:57Z</time>
      </trkpt>
      <trkpt lat="43.73522" lon="5.90565">
        <ele>505.29</ele>
        <time>2015-11-11T09:05:02Z</time>
      </trkpt>
      <trkpt lat="43.73516" lon="5.90531">
        <ele>501.62</ele>
        <time>2015-11-11T09:05:06Z</time>
      </trkpt>
      <trkpt lat="43.73503" lon="5.90511">
        <ele>500.45</ele>
        <time>2015-11-11T09:05:10Z</time>
      </trkpt>
      <trkpt lat="43.73495" lon="5.90487">
        <ele>497.57</ele>
        <time>2015-11-11T09:05:14Z</time>
      </trkpt>
      <trkpt lat="43.73491" lon="5.90459">
        <ele>492.78</ele>
        <time>2015-11-11T09:05:17Z</time>
      </trkpt>
      <trkpt lat="43.73492" lon="5.90427">
        <ele>489.15</ele>
        <time>2015-11-11T09:05:21Z</time>
      </trkpt>
      <trkpt lat="43.73478" lon="5.90408">
        <ele>484.48</ele>
        <time>2015-11-11T09:05:24Z</time>
      </trkpt>
      <trkpt lat="43.73466" lon="5.90381">
        <ele>479.69</ele>
        <time>2015-11-11T09:05:29Z</time>
      </trkpt>
      <trkpt lat="43.73454" lon="5.90359">
        <ele>473.66</ele>
        <time>2015-11-11T09:05:35Z</time>
      </trkpt>
      <trkpt lat="43.73436" lon="5.90343">
        <ele>468.72</ele>
        <time>2015-11-11T09:05:40Z</time>
      </trkpt>
      <trkpt lat="43.73434" lon="5.90318">
        <ele>472.27</ele>
        <time>2015-11-11T09:06:47Z</time>
      </trkpt>
      <trkpt lat="43.73455" lon="5.90315">
        <ele>467.85</ele>
        <time>2015-11-11T09:06:56Z</time>
      </trkpt>
      <trkpt lat="43.73474" lon="5.90303">
        <ele>467.4</ele>
        <time>2015-11-11T09:07:00Z</time>
      </trkpt>
      <trkpt lat="43.73486" lon="5.90278">
        <ele>468.18</ele>
        <time>2015-11-11T09:07:05Z</time>
      </trkpt>
      <trkpt lat="43.73499" lon="5.90259">
        <ele>464.48</ele>
        <time>2015-11-11T09:07:08Z</time>
      </trkpt>
      <trkpt lat="43.73516" lon="5.90237">
        <ele>461.69</ele>
        <time>2015-11-11T09:07:12Z</time>
      </trkpt>
      <trkpt lat="43.7353" lon="5.90221">
        <ele>459.67</ele>
        <time>2015-11-11T09:07:15Z</time>
      </trkpt>
      <trkpt lat="43.73547" lon="5.90208">
        <ele>456.41</ele>
        <time>2015-11-11T09:07:20Z</time>
      </trkpt>
      <trkpt lat="43.73566" lon="5.90194">
        <ele>453.84</ele>
        <time>2015-11-11T09:07:25Z</time>
      </trkpt>
      <trkpt lat="43.73585" lon="5.902">
        <ele>449.59</ele>
        <time>2015-11-11T09:07:29Z</time>
      </trkpt>
      <trkpt lat="43.73605" lon="5.90205">
        <ele>445.08</ele>
        <time>2015-11-11T09:07:33Z</time>
      </trkpt>
      <trkpt lat="43.73625" lon="5.90206">
        <ele>439.08</ele>
        <time>2015-11-11T09:07:38Z</time>
      </trkpt>
      <trkpt lat="43.73649" lon="5.902">
        <ele>435.92</ele>
        <time>2015-11-11T09:07:42Z</time>
      </trkpt>
      <trkpt lat="43.73668" lon="5.90195">
        <ele>431.26</ele>
        <time>2015-11-11T09:07:47Z</time>
      </trkpt>
      <trkpt lat="43.73686" lon="5.90186">
        <ele>429.04</ele>
        <time>2015-11-11T09:07:59Z</time>
      </trkpt>
      <trkpt lat="43.73701" lon="5.9017">
        <ele>426.19</ele>
        <time>2015-11-11T09:08:01Z</time>
      </trkpt>
      <trkpt lat="43.73721" lon="5.90153">
        <ele>423.49</ele>
        <time>2015-11-11T09:08:05Z</time>
      </trkpt>
      <trkpt lat="43.73738" lon="5.9014">
        <ele>419.76</ele>
        <time>2015-11-11T09:08:09Z</time>
      </trkpt>
      <trkpt lat="43.73752" lon="5.90121">
        <ele>414.66</ele>
        <time>2015-11-11T09:08:14Z</time>
      </trkpt>
      <trkpt lat="43.73765" lon="5.90103">
        <ele>411.67</ele>
        <time>2015-11-11T09:08:17Z</time>
      </trkpt>
      <trkpt lat="43.73783" lon="5.90088">
        <ele>408.8</ele>
        <time>2015-11-11T09:08:20Z</time>
      </trkpt>
      <trkpt lat="43.73802" lon="5.90073">
        <ele>407.06</ele>
        <time>2015-11-11T09:08:23Z</time>
      </trkpt>
      <trkpt lat="43.73817" lon="5.90056">
        <ele>403.34</ele>
        <time>2015-11-11T09:08:26Z</time>
      </trkpt>
      <trkpt lat="43.73832" lon="5.90042">
        <ele>401.75</ele>
        <time>2015-11-11T09:08:29Z</time>
      </trkpt>
      <trkpt lat="43.73843" lon="5.90015">
        <ele>396.93</ele>
        <time>2015-11-11T09:08:36Z</time>
      </trkpt>
      <trkpt lat="43.73858" lon="5.89995">
        <ele>395.03</ele>
        <time>2015-11-11T09:08:40Z</time>
      </trkpt>
      <trkpt lat="43.73876" lon="5.89992">
        <ele>393.35</ele>
        <time>2015-11-11T09:08:44Z</time>
      </trkpt>
      <trkpt lat="43.73895" lon="5.89999">
        <ele>393.25</ele>
        <time>2015-11-11T09:08:48Z</time>
      </trkpt>
      <trkpt lat="43.73912" lon="5.89984">
        <ele>391.55</ele>
        <time>2015-11-11T09:08:53Z</time>
      </trkpt>
      <trkpt lat="43.73929" lon="5.89968">
        <ele>390.7</ele>
        <time>2015-11-11T09:08:57Z</time>
      </trkpt>
      <trkpt lat="43.73946" lon="5.89953">
        <ele>387.08</ele>
        <time>2015-11-11T09:09:01Z</time>
      </trkpt>
      <trkpt lat="43.7394" lon="5.89927">
        <ele>384.88</ele>
        <time>2015-11-11T09:09:07Z</time>
      </trkpt>
      <trkpt lat="43.73925" lon="5.89913">
        <ele>381.86</ele>
        <time>2015-11-11T09:09:13Z</time>
      </trkpt>
      <trkpt lat="43.73939" lon="5.89891">
        <ele>381.64</ele>
        <time>2015-11-11T09:09:18Z</time>
      </trkpt>
      <trkpt lat="43.7396" lon="5.89886">
        <ele>380.28</ele>
        <time>2015-11-11T09:09:24Z</time>
      </trkpt>
      <trkpt lat="43.73976" lon="5.89899">
        <ele>381.18</ele>
        <time>2015-11-11T09:09:28Z</time>
      </trkpt>
      <trkpt lat="43.73995" lon="5.89898">
        <ele>379.71</ele>
        <time>2015-11-11T09:09:33Z</time>
      </trkpt>
      <trkpt lat="43.74012" lon="5.89881">
        <ele>378.02</ele>
        <time>2015-11-11T09:09:37Z</time>
      </trkpt>
      <trkpt lat="43.74022" lon="5.89861">
        <ele>375.73</ele>
        <time>2015-11-11T09:09:41Z</time>
      </trkpt>
      <trkpt lat="43.74042" lon="5.8985">
        <ele>373.32</ele>
        <time>2015-11-11T09:09:48Z</time>
      </trkpt>
      <trkpt lat="43.74058" lon="5.89836">
        <ele>372.37</ele>
        <time>2015-11-11T09:09:55Z</time>
      </trkpt>
      <trkpt lat="43.74057" lon="5.89807">
        <ele>370.38</ele>
        <time>2015-11-11T09:10:01Z</time>
      </trkpt>
      <trkpt lat="43.74071" lon="5.89788">
        <ele>371.71</ele>
        <time>2015-11-11T09:10:07Z</time>
      </trkpt>
      <trkpt lat="43.74091" lon="5.89779">
        <ele>373.68</ele>
        <time>2015-11-11T09:25:13Z</time>
      </trkpt>
      <trkpt lat="43.74111" lon="5.89769">
        <ele>373.76</ele>
        <time>2015-11-11T09:25:18Z</time>
      </trkpt>
      <trkpt lat="43.7413" lon="5.89774">
        <ele>374.13</ele>
        <time>2015-11-11T09:25:23Z</time>
      </trkpt>
      <trkpt lat="43.74148" lon="5.89767">
        <ele>373.3</ele>
        <time>2015-11-11T09:25:28Z</time>
      </trkpt>
      <trkpt lat="43.74163" lon="5.89745">
        <ele>370.93</ele>
        <time>2015-11-11T09:25:32Z</time>
      </trkpt>
      <trkpt lat="43.7418" lon="5.89734">
        <ele>370.97</ele>
        <time>2015-11-11T09:25:36Z</time>
      </trkpt>
      <trkpt lat="43.742" lon="5.89737">
        <ele>369.48</ele>
        <time>2015-11-11T09:25:40Z</time>
      </trkpt>
      <trkpt lat="43.74223" lon="5.89734">
        <ele>370.19</ele>
        <time>2015-11-11T09:25:44Z</time>
      </trkpt>
      <trkpt lat="43.74242" lon="5.89738">
        <ele>372.05</ele>
        <time>2015-11-11T09:25:49Z</time>
      </trkpt>
      <trkpt lat="43.74261" lon="5.89757">
        <ele>371.48</ele>
        <time>2015-11-11T09:25:53Z</time>
      </trkpt>
      <trkpt lat="43.74277" lon="5.89782">
        <ele>368.65</ele>
        <time>2015-11-11T09:25:56Z</time>
      </trkpt>
      <trkpt lat="43.74294" lon="5.89794">
        <ele>364.17</ele>
        <time>2015-11-11T09:25:59Z</time>
      </trkpt>
      <trkpt lat="43.74317" lon="5.89794">
        <ele>361.48</ele>
        <time>2015-11-11T09:26:02Z</time>
      </trkpt>
      <trkpt lat="43.74338" lon="5.89788">
        <ele>359.9</ele>
        <time>2015-11-11T09:26:05Z</time>
      </trkpt>
      <trkpt lat="43.74358" lon="5.8978">
        <ele>359.2</ele>
        <time>2015-11-11T09:26:08Z</time>
      </trkpt>
      <trkpt lat="43.74381" lon="5.89781">
        <ele>358.86</ele>
        <time>2015-11-11T09:26:11Z</time>
      </trkpt>
      <trkpt lat="43.74401" lon="5.89803">
        <ele>357.44</ele>
        <time>2015-11-11T09:26:14Z</time>
      </trkpt>
      <trkpt lat="43.7442" lon="5.89822">
        <ele>354.02</ele>
        <time>2015-11-11T09:26:17Z</time>
      </trkpt>
      <trkpt lat="43.7444" lon="5.89827">
        <ele>350.46</ele>
        <time>2015-11-11T09:26:20Z</time>
      </trkpt>
      <trkpt lat="43.74461" lon="5.89825">
        <ele>347.77</ele>
        <time>2015-11-11T09:26:23Z</time>
      </trkpt>
      <trkpt lat="43.74481" lon="5.89816">
        <ele>345.68</ele>
        <time>2015-11-11T09:26:26Z</time>
      </trkpt>
      <trkpt lat="43.745" lon="5.89803">
        <ele>343.3</ele>
        <time>2015-11-11T09:26:29Z</time>
      </trkpt>
      <trkpt lat="43.74524" lon="5.89795">
        <ele>342.25</ele>
        <time>2015-11-11T09:26:33Z</time>
      </trkpt>
      <trkpt lat="43.74544" lon="5.8979">
        <ele>340.87</ele>
        <time>2015-11-11T09:26:37Z</time>
      </trkpt>
      <trkpt lat="43.74557" lon="5.89771">
        <ele>337.98</ele>
        <time>2015-11-11T09:26:42Z</time>
      </trkpt>
      <trkpt lat="43.74571" lon="5.89752">
        <ele>337.76</ele>
        <time>2015-11-11T09:26:50Z</time>
      </trkpt>
      <trkpt lat="43.74587" lon="5.8974">
        <ele>339.93</ele>
        <time>2015-11-11T09:27:00Z</time>
      </trkpt>
      <trkpt lat="43.74581" lon="5.89767">
        <ele>336.29</ele>
        <time>2015-11-11T09:27:46Z</time>
      </trkpt>
      <trkpt lat="43.74571" lon="5.8979">
        <ele>335.8</ele>
        <time>2015-11-11T09:27:54Z</time>
      </trkpt>
      <trkpt lat="43.74561" lon="5.8981">
        <ele>338.6</ele>
        <time>2015-11-11T09:28:02Z</time>
      </trkpt>
      <trkpt lat="43.74548" lon="5.89829">
        <ele>339.51</ele>
        <time>2015-11-11T09:28:10Z</time>
      </trkpt>
      <trkpt lat="43.74539" lon="5.8985">
        <ele>340</ele>
        <time>2015-11-11T09:28:19Z</time>
      </trkpt>
      <trkpt lat="43.74527" lon="5.89871">
        <ele>341.22</ele>
        <time>2015-11-11T09:28:28Z</time>
      </trkpt>
      <trkpt lat="43.74514" lon="5.89893">
        <ele>344.14</ele>
        <time>2015-11-11T09:28:38Z</time>
      </trkpt>
      <trkpt lat="43.74501" lon="5.8991">
        <ele>346.56</ele>
        <time>2015-11-11T09:28:45Z</time>
      </trkpt>
      <trkpt lat="43.74487" lon="5.89928">
        <ele>348.47</ele>
        <time>2015-11-11T09:28:53Z</time>
      </trkpt>
      <trkpt lat="43.74474" lon="5.89946">
        <ele>349.99</ele>
        <time>2015-11-11T09:29:01Z</time>
      </trkpt>
      <trkpt lat="43.7446" lon="5.89962">
        <ele>351.12</ele>
        <time>2015-11-11T09:29:10Z</time>
      </trkpt>
      <trkpt lat="43.74444" lon="5.89977">
        <ele>353.65</ele>
        <time>2015-11-11T09:29:20Z</time>
      </trkpt>
      <trkpt lat="43.74428" lon="5.89991">
        <ele>355.37</ele>
        <time>2015-11-11T09:29:29Z</time>
      </trkpt>
      <trkpt lat="43.74412" lon="5.90006">
        <ele>352.49</ele>
        <time>2015-11-11T09:29:38Z</time>
      </trkpt>
      <trkpt lat="43.74398" lon="5.90021">
        <ele>355.32</ele>
        <time>2015-11-11T09:29:46Z</time>
      </trkpt>
      <trkpt lat="43.74389" lon="5.90044">
        <ele>358.4</ele>
        <time>2015-11-11T09:29:55Z</time>
      </trkpt>
      <trkpt lat="43.74379" lon="5.90065">
        <ele>360.54</ele>
        <time>2015-11-11T09:30:03Z</time>
      </trkpt>
      <trkpt lat="43.74365" lon="5.90083">
        <ele>363.9</ele>
        <time>2015-11-11T09:30:11Z</time>
      </trkpt>
      <trkpt lat="43.74348" lon="5.90094">
        <ele>360.44</ele>
        <time>2015-11-11T09:30:18Z</time>
      </trkpt>
      <trkpt lat="43.74331" lon="5.90103">
        <ele>359.68</ele>
        <time>2015-11-11T09:30:25Z</time>
      </trkpt>
      <trkpt lat="43.74311" lon="5.90108">
        <ele>362.05</ele>
        <time>2015-11-11T09:30:33Z</time>
      </trkpt>
      <trkpt lat="43.74293" lon="5.9011">
        <ele>367.5</ele>
        <time>2015-11-11T09:30:41Z</time>
      </trkpt>
      <trkpt lat="43.74275" lon="5.90118">
        <ele>373.98</ele>
        <time>2015-11-11T09:30:50Z</time>
      </trkpt>
      <trkpt lat="43.74263" lon="5.90136">
        <ele>384.41</ele>
        <time>2015-11-11T09:30:59Z</time>
      </trkpt>
      <trkpt lat="43.74252" lon="5.90156">
        <ele>387.75</ele>
        <time>2015-11-11T09:31:08Z</time>
      </trkpt>
      <trkpt lat="43.74241" lon="5.90177">
        <ele>389.39</ele>
        <time>2015-11-11T09:31:18Z</time>
      </trkpt>
      <trkpt lat="43.7424" lon="5.90203">
        <ele>387.2</ele>
        <time>2015-11-11T09:31:28Z</time>
      </trkpt>
      <trkpt lat="43.74239" lon="5.90229">
        <ele>387.87</ele>
        <time>2015-11-11T09:31:35Z</time>
      </trkpt>
      <trkpt lat="43.74243" lon="5.90257">
        <ele>389.28</ele>
        <time>2015-11-11T09:31:43Z</time>
      </trkpt>
      <trkpt lat="43.74246" lon="5.90283">
        <ele>387.42</ele>
        <time>2015-11-11T09:31:51Z</time>
      </trkpt>
      <trkpt lat="43.74242" lon="5.90309">
        <ele>388.23</ele>
        <time>2015-11-11T09:31:59Z</time>
      </trkpt>
      <trkpt lat="43.74246" lon="5.90336">
        <ele>388.29</ele>
        <time>2015-11-11T09:32:07Z</time>
      </trkpt>
      <trkpt lat="43.74241" lon="5.90362">
        <ele>382.11</ele>
        <time>2015-11-11T09:32:14Z</time>
      </trkpt>
      <trkpt lat="43.74234" lon="5.90385">
        <ele>379.19</ele>
        <time>2015-11-11T09:32:21Z</time>
      </trkpt>
      <trkpt lat="43.74222" lon="5.90406">
        <ele>383.65</ele>
        <time>2015-11-11T09:32:29Z</time>
      </trkpt>
      <trkpt lat="43.74206" lon="5.90422">
        <ele>386.11</ele>
        <time>2015-11-11T09:32:37Z</time>
      </trkpt>
      <trkpt lat="43.74191" lon="5.90436">
        <ele>385.75</ele>
        <time>2015-11-11T09:32:45Z</time>
      </trkpt>
      <trkpt lat="43.74182" lon="5.90459">
        <ele>386.95</ele>
        <time>2015-11-11T09:32:54Z</time>
      </trkpt>
      <trkpt lat="43.74177" lon="5.90486">
        <ele>386.57</ele>
        <time>2015-11-11T09:33:05Z</time>
      </trkpt>
      <trkpt lat="43.74171" lon="5.90509">
        <ele>389.16</ele>
        <time>2015-11-11T09:33:14Z</time>
      </trkpt>
      <trkpt lat="43.74163" lon="5.90533">
        <ele>391.48</ele>
        <time>2015-11-11T09:33:23Z</time>
      </trkpt>
      <trkpt lat="43.74151" lon="5.90556">
        <ele>389.3</ele>
        <time>2015-11-11T09:33:32Z</time>
      </trkpt>
      <trkpt lat="43.74141" lon="5.90579">
        <ele>389.84</ele>
        <time>2015-11-11T09:33:42Z</time>
      </trkpt>
      <trkpt lat="43.74135" lon="5.90603">
        <ele>393.94</ele>
        <time>2015-11-11T09:33:53Z</time>
      </trkpt>
      <trkpt lat="43.74124" lon="5.90626">
        <ele>396.82</ele>
        <time>2015-11-11T09:34:06Z</time>
      </trkpt>
      <trkpt lat="43.74105" lon="5.90629">
        <ele>395.15</ele>
        <time>2015-11-11T09:34:15Z</time>
      </trkpt>
      <trkpt lat="43.74088" lon="5.90621">
        <ele>409.35</ele>
        <time>2015-11-11T09:34:27Z</time>
      </trkpt>
      <trkpt lat="43.7407" lon="5.90618">
        <ele>407.37</ele>
        <time>2015-11-11T09:34:38Z</time>
      </trkpt>
      <trkpt lat="43.74051" lon="5.90623">
        <ele>409.16</ele>
        <time>2015-11-11T09:34:50Z</time>
      </trkpt>
      <trkpt lat="43.74033" lon="5.90627">
        <ele>412.85</ele>
        <time>2015-11-11T09:35:03Z</time>
      </trkpt>
      <trkpt lat="43.74016" lon="5.90641">
        <ele>410.82</ele>
        <time>2015-11-11T09:35:18Z</time>
      </trkpt>
      <trkpt lat="43.74004" lon="5.90662">
        <ele>412</ele>
        <time>2015-11-11T09:35:30Z</time>
      </trkpt>
      <trkpt lat="43.73999" lon="5.90686">
        <ele>413.81</ele>
        <time>2015-11-11T09:35:42Z</time>
      </trkpt>
      <trkpt lat="43.73992" lon="5.90711">
        <ele>417.3</ele>
        <time>2015-11-11T09:35:57Z</time>
      </trkpt>
      <trkpt lat="43.73988" lon="5.90736">
        <ele>419.56</ele>
        <time>2015-11-11T09:36:09Z</time>
      </trkpt>
      <trkpt lat="43.73978" lon="5.90757">
        <ele>420.73</ele>
        <time>2015-11-11T09:36:21Z</time>
      </trkpt>
      <trkpt lat="43.73962" lon="5.9077">
        <ele>422.24</ele>
        <time>2015-11-11T09:36:33Z</time>
      </trkpt>
      <trkpt lat="43.73944" lon="5.90775">
        <ele>423.97</ele>
        <time>2015-11-11T09:36:45Z</time>
      </trkpt>
      <trkpt lat="43.73926" lon="5.90782">
        <ele>426.93</ele>
        <time>2015-11-11T09:36:57Z</time>
      </trkpt>
      <trkpt lat="43.73907" lon="5.90787">
        <ele>433.07</ele>
        <time>2015-11-11T09:37:14Z</time>
      </trkpt>
      <trkpt lat="43.7389" lon="5.908">
        <ele>438.35</ele>
        <time>2015-11-11T09:37:30Z</time>
      </trkpt>
      <trkpt lat="43.73881" lon="5.90822">
        <ele>438.76</ele>
        <time>2015-11-11T09:37:44Z</time>
      </trkpt>
      <trkpt lat="43.73897" lon="5.90838">
        <ele>440.08</ele>
        <time>2015-11-11T09:37:58Z</time>
      </trkpt>
      <trkpt lat="43.73911" lon="5.90854">
        <ele>445.42</ele>
        <time>2015-11-11T09:38:11Z</time>
      </trkpt>
      <trkpt lat="43.73914" lon="5.90878">
        <ele>443.74</ele>
        <time>2015-11-11T09:38:22Z</time>
      </trkpt>
      <trkpt lat="43.73918" lon="5.90903">
        <ele>443.47</ele>
        <time>2015-11-11T09:38:34Z</time>
      </trkpt>
      <trkpt lat="43.73918" lon="5.9093">
        <ele>443.53</ele>
        <time>2015-11-11T09:38:45Z</time>
      </trkpt>
      <trkpt lat="43.7391" lon="5.90954">
        <ele>442.3</ele>
        <time>2015-11-11T09:38:56Z</time>
      </trkpt>
      <trkpt lat="43.73903" lon="5.90978">
        <ele>442.27</ele>
        <time>2015-11-11T09:39:07Z</time>
      </trkpt>
      <trkpt lat="43.73896" lon="5.91">
        <ele>446.85</ele>
        <time>2015-11-11T09:39:18Z</time>
      </trkpt>
      <trkpt lat="43.73886" lon="5.91021">
        <ele>450.46</ele>
        <time>2015-11-11T09:39:29Z</time>
      </trkpt>
      <trkpt lat="43.73884" lon="5.91048">
        <ele>452.5</ele>
        <time>2015-11-11T09:39:40Z</time>
      </trkpt>
      <trkpt lat="43.73882" lon="5.91074">
        <ele>456.33</ele>
        <time>2015-11-11T09:39:51Z</time>
      </trkpt>
      <trkpt lat="43.73898" lon="5.91087">
        <ele>458.08</ele>
        <time>2015-11-11T09:40:05Z</time>
      </trkpt>
      <trkpt lat="43.73916" lon="5.91084">
        <ele>457.97</ele>
        <time>2015-11-11T09:40:15Z</time>
      </trkpt>
      <trkpt lat="43.73929" lon="5.91067">
        <ele>458.64</ele>
        <time>2015-11-11T09:40:26Z</time>
      </trkpt>
      <trkpt lat="43.73944" lon="5.9105">
        <ele>459.48</ele>
        <time>2015-11-11T09:40:37Z</time>
      </trkpt>
      <trkpt lat="43.73962" lon="5.91049">
        <ele>458.68</ele>
        <time>2015-11-11T09:40:46Z</time>
      </trkpt>
      <trkpt lat="43.73981" lon="5.91042">
        <ele>462.09</ele>
        <time>2015-11-11T09:40:56Z</time>
      </trkpt>
      <trkpt lat="43.73985" lon="5.91067">
        <ele>468.58</ele>
        <time>2015-11-11T09:41:21Z</time>
      </trkpt>
      <trkpt lat="43.7397" lon="5.91082">
        <ele>470.07</ele>
        <time>2015-11-11T09:41:32Z</time>
      </trkpt>
      <trkpt lat="43.7396" lon="5.91104">
        <ele>472.02</ele>
        <time>2015-11-11T09:41:42Z</time>
      </trkpt>
      <trkpt lat="43.73952" lon="5.9113">
        <ele>470.78</ele>
        <time>2015-11-11T09:41:50Z</time>
      </trkpt>
      <trkpt lat="43.73948" lon="5.91155">
        <ele>471.72</ele>
        <time>2015-11-11T09:41:56Z</time>
      </trkpt>
      <trkpt lat="43.73946" lon="5.91182">
        <ele>472.98</ele>
        <time>2015-11-11T09:42:02Z</time>
      </trkpt>
      <trkpt lat="43.73945" lon="5.91209">
        <ele>470.55</ele>
        <time>2015-11-11T09:42:08Z</time>
      </trkpt>
      <trkpt lat="43.73932" lon="5.91228">
        <ele>471.14</ele>
        <time>2015-11-11T09:42:14Z</time>
      </trkpt>
      <trkpt lat="43.73915" lon="5.91238">
        <ele>472.18</ele>
        <time>2015-11-11T09:42:21Z</time>
      </trkpt>
      <trkpt lat="43.73897" lon="5.91247">
        <ele>471.8</ele>
        <time>2015-11-11T09:42:28Z</time>
      </trkpt>
      <trkpt lat="43.73879" lon="5.91256">
        <ele>472.16</ele>
        <time>2015-11-11T09:42:35Z</time>
      </trkpt>
      <trkpt lat="43.7387" lon="5.91281">
        <ele>474.16</ele>
        <time>2015-11-11T09:42:42Z</time>
      </trkpt>
      <trkpt lat="43.73861" lon="5.91304">
        <ele>475.14</ele>
        <time>2015-11-11T09:42:51Z</time>
      </trkpt>
      <trkpt lat="43.73845" lon="5.91319">
        <ele>474.3</ele>
        <time>2015-11-11T09:43:02Z</time>
      </trkpt>
      <trkpt lat="43.73828" lon="5.9133">
        <ele>479.53</ele>
        <time>2015-11-11T09:43:12Z</time>
      </trkpt>
      <trkpt lat="43.7381" lon="5.91337">
        <ele>480.88</ele>
        <time>2015-11-11T09:43:24Z</time>
      </trkpt>
      <trkpt lat="43.73793" lon="5.91347">
        <ele>480.59</ele>
        <time>2015-11-11T09:43:34Z</time>
      </trkpt>
      <trkpt lat="43.73774" lon="5.9135">
        <ele>481.99</ele>
        <time>2015-11-11T09:43:44Z</time>
      </trkpt>
      <trkpt lat="43.73756" lon="5.91352">
        <ele>484.69</ele>
        <time>2015-11-11T09:43:56Z</time>
      </trkpt>
      <trkpt lat="43.73741" lon="5.9137">
        <ele>486.08</ele>
        <time>2015-11-11T09:44:08Z</time>
      </trkpt>
      <trkpt lat="43.73728" lon="5.91387">
        <ele>487.69</ele>
        <time>2015-11-11T09:44:17Z</time>
      </trkpt>
      <trkpt lat="43.73715" lon="5.91405">
        <ele>490.09</ele>
        <time>2015-11-11T09:44:27Z</time>
      </trkpt>
      <trkpt lat="43.73707" lon="5.91428">
        <ele>492.92</ele>
        <time>2015-11-11T09:44:37Z</time>
      </trkpt>
      <trkpt lat="43.73698" lon="5.91451">
        <ele>492.12</ele>
        <time>2015-11-11T09:44:47Z</time>
      </trkpt>
      <trkpt lat="43.73683" lon="5.91468">
        <ele>496.18</ele>
        <time>2015-11-11T09:45:01Z</time>
      </trkpt>
      <trkpt lat="43.73671" lon="5.91489">
        <ele>500.6</ele>
        <time>2015-11-11T09:45:16Z</time>
      </trkpt>
      <trkpt lat="43.73662" lon="5.91511">
        <ele>502.19</ele>
        <time>2015-11-11T09:45:33Z</time>
      </trkpt>
      <trkpt lat="43.73664" lon="5.91537">
        <ele>502.07</ele>
        <time>2015-11-11T09:45:47Z</time>
      </trkpt>
      <trkpt lat="43.73664" lon="5.91562">
        <ele>507.42</ele>
        <time>2015-11-11T09:46:07Z</time>
      </trkpt>
      <trkpt lat="43.73649" lon="5.9158">
        <ele>514.05</ele>
        <time>2015-11-11T09:46:39Z</time>
      </trkpt>
      <trkpt lat="43.73639" lon="5.91601">
        <ele>521.5</ele>
        <time>2015-11-11T09:47:14Z</time>
      </trkpt>
      <trkpt lat="43.73632" lon="5.91624">
        <ele>525.98</ele>
        <time>2015-11-11T09:48:20Z</time>
      </trkpt>
      <trkpt lat="43.73627" lon="5.91648">
        <ele>533.14</ele>
        <time>2015-11-11T09:50:09Z</time>
      </trkpt>
      <trkpt lat="43.73612" lon="5.91662">
        <ele>538.61</ele>
        <time>2015-11-11T09:50:41Z</time>
      </trkpt>
      <trkpt lat="43.73594" lon="5.91657">
        <ele>539.6</ele>
        <time>2015-11-11T09:50:52Z</time>
      </trkpt>
      <trkpt lat="43.73575" lon="5.91662">
        <ele>542.94</ele>
        <time>2015-11-11T09:51:03Z</time>
      </trkpt>
      <trkpt lat="43.73559" lon="5.91675">
        <ele>543.3</ele>
        <time>2015-11-11T09:51:15Z</time>
      </trkpt>
      <trkpt lat="43.73557" lon="5.9165">
        <ele>550.2</ele>
        <time>2015-11-11T09:51:45Z</time>
      </trkpt>
      <trkpt lat="43.73554" lon="5.91624">
        <ele>554.74</ele>
        <time>2015-11-11T09:51:58Z</time>
      </trkpt>
      <trkpt lat="43.73553" lon="5.91599">
        <ele>556.27</ele>
        <time>2015-11-11T09:52:11Z</time>
      </trkpt>
      <trkpt lat="43.73553" lon="5.91573">
        <ele>559.22</ele>
        <time>2015-11-11T09:52:26Z</time>
      </trkpt>
      <trkpt lat="43.73551" lon="5.91548">
        <ele>564.94</ele>
        <time>2015-11-11T09:52:43Z</time>
      </trkpt>
      <trkpt lat="43.73539" lon="5.91528">
        <ele>564.14</ele>
        <time>2015-11-11T09:52:56Z</time>
      </trkpt>
      <trkpt lat="43.73522" lon="5.91534">
        <ele>567.69</ele>
        <time>2015-11-11T09:53:24Z</time>
      </trkpt>
      <trkpt lat="43.73506" lon="5.91523">
        <ele>572.69</ele>
        <time>2015-11-11T09:54:05Z</time>
      </trkpt>
      <trkpt lat="43.73489" lon="5.91515">
        <ele>574.21</ele>
        <time>2015-11-11T09:54:31Z</time>
      </trkpt>
      <trkpt lat="43.73488" lon="5.91488">
        <ele>576.05</ele>
        <time>2015-11-11T09:54:56Z</time>
      </trkpt>
      <trkpt lat="43.7347" lon="5.91483">
        <ele>577.68</ele>
        <time>2015-11-11T09:55:06Z</time>
      </trkpt>
      <trkpt lat="43.73455" lon="5.91497">
        <ele>580.98</ele>
        <time>2015-11-11T09:55:17Z</time>
      </trkpt>
      <trkpt lat="43.73438" lon="5.91509">
        <ele>583.63</ele>
        <time>2015-11-11T09:55:31Z</time>
      </trkpt>
      <trkpt lat="43.73424" lon="5.91492">
        <ele>584.34</ele>
        <time>2015-11-11T09:55:43Z</time>
      </trkpt>
      <trkpt lat="43.73431" lon="5.91469">
        <ele>585.09</ele>
        <time>2015-11-11T09:55:49Z</time>
      </trkpt>
      <trkpt lat="43.73439" lon="5.91443">
        <ele>584.3</ele>
        <time>2015-11-11T09:55:54Z</time>
      </trkpt>
      <trkpt lat="43.7345" lon="5.91422">
        <ele>586.93</ele>
        <time>2015-11-11T09:56:00Z</time>
      </trkpt>
      <trkpt lat="43.73465" lon="5.91407">
        <ele>586.14</ele>
        <time>2015-11-11T09:56:05Z</time>
      </trkpt>
      <trkpt lat="43.73475" lon="5.91385">
        <ele>584.99</ele>
        <time>2015-11-11T09:56:10Z</time>
      </trkpt>
      <trkpt lat="43.73482" lon="5.91358">
        <ele>583.39</ele>
        <time>2015-11-11T09:56:15Z</time>
      </trkpt>
      <trkpt lat="43.73491" lon="5.91335">
        <ele>582.31</ele>
        <time>2015-11-11T09:56:20Z</time>
      </trkpt>
      <trkpt lat="43.73502" lon="5.91311">
        <ele>581.49</ele>
        <time>2015-11-11T09:56:26Z</time>
      </trkpt>
      <trkpt lat="43.73515" lon="5.91287">
        <ele>582.73</ele>
        <time>2015-11-11T09:56:32Z</time>
      </trkpt>
      <trkpt lat="43.73525" lon="5.91265">
        <ele>584.04</ele>
        <time>2015-11-11T09:56:37Z</time>
      </trkpt>
      <trkpt lat="43.7354" lon="5.91244">
        <ele>582.3</ele>
        <time>2015-11-11T09:56:43Z</time>
      </trkpt>
      <trkpt lat="43.73542" lon="5.91215">
        <ele>581.75</ele>
        <time>2015-11-11T09:56:47Z</time>
      </trkpt>
      <trkpt lat="43.73548" lon="5.91183">
        <ele>581.52</ele>
        <time>2015-11-11T09:56:51Z</time>
      </trkpt>
      <trkpt lat="43.73558" lon="5.91158">
        <ele>578.16</ele>
        <time>2015-11-11T09:56:56Z</time>
      </trkpt>
      <trkpt lat="43.73565" lon="5.91135">
        <ele>578.21</ele>
        <time>2015-11-11T09:57:01Z</time>
      </trkpt>
      <trkpt lat="43.73568" lon="5.91107">
        <ele>577.15</ele>
        <time>2015-11-11T09:57:06Z</time>
      </trkpt>
      <trkpt lat="43.73583" lon="5.91122">
        <ele>573.25</ele>
        <time>2015-11-11T09:58:03Z</time>
      </trkpt>
      <trkpt lat="43.73592" lon="5.91146">
        <ele>567.39</ele>
        <time>2015-11-11T09:58:11Z</time>
      </trkpt>
      <trkpt lat="43.73609" lon="5.91156">
        <ele>550.53</ele>
        <time>2015-11-11T09:58:39Z</time>
      </trkpt>
      <trkpt lat="43.73624" lon="5.91171">
        <ele>539.87</ele>
        <time>2015-11-11T09:58:52Z</time>
      </trkpt>
      <trkpt lat="43.73644" lon="5.91175">
        <ele>529.95</ele>
        <time>2015-11-11T09:59:12Z</time>
      </trkpt>
      <trkpt lat="43.73658" lon="5.91194">
        <ele>523.18</ele>
        <time>2015-11-11T09:59:26Z</time>
      </trkpt>
      <trkpt lat="43.73667" lon="5.91217">
        <ele>518.99</ele>
        <time>2015-11-11T09:59:31Z</time>
      </trkpt>
      <trkpt lat="43.73687" lon="5.91214">
        <ele>513.7</ele>
        <time>2015-11-11T09:59:39Z</time>
      </trkpt>
      <trkpt lat="43.73706" lon="5.91215">
        <ele>507.63</ele>
        <time>2015-11-11T09:59:46Z</time>
      </trkpt>
      <trkpt lat="43.73727" lon="5.91213">
        <ele>499.95</ele>
        <time>2015-11-11T09:59:54Z</time>
      </trkpt>
      <trkpt lat="43.73744" lon="5.91223">
        <ele>494.3</ele>
        <time>2015-11-11T09:59:59Z</time>
      </trkpt>
      <trkpt lat="43.7376" lon="5.91241">
        <ele>491.34</ele>
        <time>2015-11-11T10:00:04Z</time>
      </trkpt>
      <trkpt lat="43.73778" lon="5.91254">
        <ele>487.81</ele>
        <time>2015-11-11T10:00:08Z</time>
      </trkpt>
      <trkpt lat="43.73782" lon="5.91279">
        <ele>485.48</ele>
        <time>2015-11-11T10:00:13Z</time>
      </trkpt>
      <trkpt lat="43.73805" lon="5.9129">
        <ele>483.31</ele>
        <time>2015-11-11T10:00:18Z</time>
      </trkpt>
      <trkpt lat="43.73825" lon="5.91294">
        <ele>479</ele>
        <time>2015-11-11T10:00:22Z</time>
      </trkpt>
      <trkpt lat="43.73844" lon="5.91302">
        <ele>476.91</ele>
        <time>2015-11-11T10:00:26Z</time>
      </trkpt>
      <trkpt lat="43.73862" lon="5.91297">
        <ele>475.73</ele>
        <time>2015-11-11T10:00:33Z</time>
      </trkpt>
      <trkpt lat="43.73875" lon="5.91275">
        <ele>473.48</ele>
        <time>2015-11-11T10:00:39Z</time>
      </trkpt>
      <trkpt lat="43.73889" lon="5.91252">
        <ele>471.87</ele>
        <time>2015-11-11T10:00:44Z</time>
      </trkpt>
      <trkpt lat="43.73907" lon="5.91246">
        <ele>472.2</ele>
        <time>2015-11-11T10:00:47Z</time>
      </trkpt>
      <trkpt lat="43.73926" lon="5.91233">
        <ele>471.36</ele>
        <time>2015-11-11T10:00:50Z</time>
      </trkpt>
      <trkpt lat="43.73944" lon="5.91224">
        <ele>471.25</ele>
        <time>2015-11-11T10:00:59Z</time>
      </trkpt>
      <trkpt lat="43.73946" lon="5.91197">
        <ele>472.16</ele>
        <time>2015-11-11T10:01:08Z</time>
      </trkpt>
      <trkpt lat="43.73946" lon="5.9117">
        <ele>473.46</ele>
        <time>2015-11-11T10:01:13Z</time>
      </trkpt>
      <trkpt lat="43.73948" lon="5.91141">
        <ele>472.51</ele>
        <time>2015-11-11T10:01:17Z</time>
      </trkpt>
      <trkpt lat="43.73954" lon="5.91115">
        <ele>471.76</ele>
        <time>2015-11-11T10:01:21Z</time>
      </trkpt>
      <trkpt lat="43.73964" lon="5.91092">
        <ele>471.27</ele>
        <time>2015-11-11T10:01:25Z</time>
      </trkpt>
      <trkpt lat="43.73977" lon="5.91072">
        <ele>470.49</ele>
        <time>2015-11-11T10:01:29Z</time>
      </trkpt>
      <trkpt lat="43.73992" lon="5.91053">
        <ele>467.7</ele>
        <time>2015-11-11T10:01:33Z</time>
      </trkpt>
      <trkpt lat="43.74" lon="5.91031">
        <ele>465.28</ele>
        <time>2015-11-11T10:01:40Z</time>
      </trkpt>
      <trkpt lat="43.74002" lon="5.91005">
        <ele>466.13</ele>
        <time>2015-11-11T10:01:49Z</time>
      </trkpt>
      <trkpt lat="43.74006" lon="5.90978">
        <ele>463.08</ele>
        <time>2015-11-11T10:01:56Z</time>
      </trkpt>
      <trkpt lat="43.73996" lon="5.90956">
        <ele>453.05</ele>
        <time>2015-11-11T10:02:03Z</time>
      </trkpt>
      <trkpt lat="43.73988" lon="5.90931">
        <ele>444.43</ele>
        <time>2015-11-11T10:02:10Z</time>
      </trkpt>
      <trkpt lat="43.73981" lon="5.90906">
        <ele>438.9</ele>
        <time>2015-11-11T10:02:15Z</time>
      </trkpt>
      <trkpt lat="43.73972" lon="5.90884">
        <ele>432.42</ele>
        <time>2015-11-11T10:02:20Z</time>
      </trkpt>
      <trkpt lat="43.73969" lon="5.90857">
        <ele>429.55</ele>
        <time>2015-11-11T10:02:28Z</time>
      </trkpt>
      <trkpt lat="43.73948" lon="5.90856">
        <ele>418.83</ele>
        <time>2015-11-11T10:03:06Z</time>
      </trkpt>
      <trkpt lat="43.73951" lon="5.90827">
        <ele>415.6</ele>
        <time>2015-11-11T10:03:11Z</time>
      </trkpt>
      <trkpt lat="43.73964" lon="5.90803">
        <ele>414.2</ele>
        <time>2015-11-11T10:03:15Z</time>
      </trkpt>
      <trkpt lat="43.7398" lon="5.90792">
        <ele>414.11</ele>
        <time>2015-11-11T10:03:19Z</time>
      </trkpt>
      <trkpt lat="43.73993" lon="5.90771">
        <ele>413.3</ele>
        <time>2015-11-11T10:03:23Z</time>
      </trkpt>
      <trkpt lat="43.74004" lon="5.90748">
        <ele>411.81</ele>
        <time>2015-11-11T10:03:27Z</time>
      </trkpt>
      <trkpt lat="43.74012" lon="5.90718">
        <ele>408.45</ele>
        <time>2015-11-11T10:03:32Z</time>
      </trkpt>
      <trkpt lat="43.74021" lon="5.90696">
        <ele>406.63</ele>
        <time>2015-11-11T10:03:36Z</time>
      </trkpt>
      <trkpt lat="43.74033" lon="5.90671">
        <ele>402.64</ele>
        <time>2015-11-11T10:03:40Z</time>
      </trkpt>
      <trkpt lat="43.74047" lon="5.90652">
        <ele>401.22</ele>
        <time>2015-11-11T10:03:46Z</time>
      </trkpt>
      <trkpt lat="43.74065" lon="5.90645">
        <ele>399.4</ele>
        <time>2015-11-11T10:03:51Z</time>
      </trkpt>
      <trkpt lat="43.74084" lon="5.90647">
        <ele>396.88</ele>
        <time>2015-11-11T10:03:55Z</time>
      </trkpt>
      <trkpt lat="43.74104" lon="5.90662">
        <ele>395.09</ele>
        <time>2015-11-11T10:03:59Z</time>
      </trkpt>
      <trkpt lat="43.74125" lon="5.90649">
        <ele>392.86</ele>
        <time>2015-11-11T10:04:03Z</time>
      </trkpt>
      <trkpt lat="43.74134" lon="5.90628">
        <ele>392.69</ele>
        <time>2015-11-11T10:04:06Z</time>
      </trkpt>
      <trkpt lat="43.74147" lon="5.90598">
        <ele>391.21</ele>
        <time>2015-11-11T10:04:10Z</time>
      </trkpt>
      <trkpt lat="43.74156" lon="5.90574">
        <ele>388.61</ele>
        <time>2015-11-11T10:04:13Z</time>
      </trkpt>
      <trkpt lat="43.74168" lon="5.90552">
        <ele>388.29</ele>
        <time>2015-11-11T10:04:16Z</time>
      </trkpt>
      <trkpt lat="43.74179" lon="5.90528">
        <ele>383.93</ele>
        <time>2015-11-11T10:04:20Z</time>
      </trkpt>
      <trkpt lat="43.74192" lon="5.90504">
        <ele>382.71</ele>
        <time>2015-11-11T10:04:26Z</time>
      </trkpt>
      <trkpt lat="43.742" lon="5.90481">
        <ele>380.44</ele>
        <time>2015-11-11T10:04:50Z</time>
      </trkpt>
      <trkpt lat="43.74205" lon="5.90456">
        <ele>382</ele>
        <time>2015-11-11T10:04:55Z</time>
      </trkpt>
      <trkpt lat="43.7422" lon="5.90433">
        <ele>379.05</ele>
        <time>2015-11-11T10:05:00Z</time>
      </trkpt>
      <trkpt lat="43.74231" lon="5.9041">
        <ele>377.47</ele>
        <time>2015-11-11T10:05:03Z</time>
      </trkpt>
      <trkpt lat="43.74248" lon="5.90389">
        <ele>375.01</ele>
        <time>2015-11-11T10:05:07Z</time>
      </trkpt>
      <trkpt lat="43.74266" lon="5.90381">
        <ele>375.78</ele>
        <time>2015-11-11T10:05:14Z</time>
      </trkpt>
      <trkpt lat="43.74277" lon="5.90358">
        <ele>373.3</ele>
        <time>2015-11-11T10:05:23Z</time>
      </trkpt>
      <trkpt lat="43.74294" lon="5.90344">
        <ele>372.1</ele>
        <time>2015-11-11T10:05:29Z</time>
      </trkpt>
      <trkpt lat="43.74308" lon="5.90326">
        <ele>373.8</ele>
        <time>2015-11-11T10:05:37Z</time>
      </trkpt>
      <trkpt lat="43.74318" lon="5.90306">
        <ele>378.99</ele>
        <time>2015-11-11T10:06:09Z</time>
      </trkpt>
      <trkpt lat="43.74332" lon="5.90289">
        <ele>384.52</ele>
        <time>2015-11-11T10:06:28Z</time>
      </trkpt>
      <trkpt lat="43.74341" lon="5.90261">
        <ele>383.75</ele>
        <time>2015-11-11T10:06:55Z</time>
      </trkpt>
      <trkpt lat="43.74348" lon="5.90231">
        <ele>375.57</ele>
        <time>2015-11-11T10:07:00Z</time>
      </trkpt>
      <trkpt lat="43.74358" lon="5.90206">
        <ele>373.23</ele>
        <time>2015-11-11T10:07:06Z</time>
      </trkpt>
      <trkpt lat="43.74361" lon="5.90177">
        <ele>370.15</ele>
        <time>2015-11-11T10:07:13Z</time>
      </trkpt>
      <trkpt lat="43.74366" lon="5.90152">
        <ele>368.62</ele>
        <time>2015-11-11T10:07:19Z</time>
      </trkpt>
      <trkpt lat="43.74385" lon="5.90133">
        <ele>365.89</ele>
        <time>2015-11-11T10:07:25Z</time>
      </trkpt>
      <trkpt lat="43.74401" lon="5.90118">
        <ele>365.45</ele>
        <time>2015-11-11T10:07:28Z</time>
      </trkpt>
      <trkpt lat="43.74416" lon="5.901">
        <ele>364.14</ele>
        <time>2015-11-11T10:07:31Z</time>
      </trkpt>
      <trkpt lat="43.74427" lon="5.90079">
        <ele>363.35</ele>
        <time>2015-11-11T10:07:34Z</time>
      </trkpt>
      <trkpt lat="43.74444" lon="5.90058">
        <ele>363.34</ele>
        <time>2015-11-11T10:07:39Z</time>
      </trkpt>
      <trkpt lat="43.74454" lon="5.90033">
        <ele>359.63</ele>
        <time>2015-11-11T10:07:42Z</time>
      </trkpt>
      <trkpt lat="43.74473" lon="5.90021">
        <ele>357.79</ele>
        <time>2015-11-11T10:07:45Z</time>
      </trkpt>
      <trkpt lat="43.74486" lon="5.89995">
        <ele>358.2</ele>
        <time>2015-11-11T10:07:50Z</time>
      </trkpt>
      <trkpt lat="43.74496" lon="5.89974">
        <ele>356.49</ele>
        <time>2015-11-11T10:07:53Z</time>
      </trkpt>
      <trkpt lat="43.74511" lon="5.89955">
        <ele>351.52</ele>
        <time>2015-11-11T10:07:56Z</time>
      </trkpt>
      <trkpt lat="43.74531" lon="5.89946">
        <ele>345.56</ele>
        <time>2015-11-11T10:08:01Z</time>
      </trkpt>
      <trkpt lat="43.7454" lon="5.89922">
        <ele>342.81</ele>
        <time>2015-11-11T10:08:06Z</time>
      </trkpt>
      <trkpt lat="43.74546" lon="5.89898">
        <ele>339.69</ele>
        <time>2015-11-11T10:08:09Z</time>
      </trkpt>
      <trkpt lat="43.74545" lon="5.89871">
        <ele>335.39</ele>
        <time>2015-11-11T10:08:13Z</time>
      </trkpt>
      <trkpt lat="43.74542" lon="5.89846">
        <ele>332.62</ele>
        <time>2015-11-11T10:08:57Z</time>
      </trkpt>
      <trkpt lat="43.74554" lon="5.89824">
        <ele>333.44</ele>
        <time>2015-11-11T10:09:02Z</time>
      </trkpt>
      <trkpt lat="43.74567" lon="5.89801">
        <ele>333.14</ele>
        <time>2015-11-11T10:09:05Z</time>
      </trkpt>
      <trkpt lat="43.7458" lon="5.89778">
        <ele>331.98</ele>
        <time>2015-11-11T10:09:08Z</time>
      </trkpt>
      <trkpt lat="43.74593" lon="5.89756">
        <ele>330.46</ele>
        <time>2015-11-11T10:09:11Z</time>
      </trkpt>
      <trkpt lat="43.74607" lon="5.89738">
        <ele>330.14</ele>
        <time>2015-11-11T10:09:14Z</time>
      </trkpt>
      <trkpt lat="43.74624" lon="5.89722">
        <ele>328.85</ele>
        <time>2015-11-11T10:09:17Z</time>
      </trkpt>
      <trkpt lat="43.74646" lon="5.89714">
        <ele>328.32</ele>
        <time>2015-11-11T10:09:20Z</time>
      </trkpt>
      <trkpt lat="43.74668" lon="5.8971">
        <ele>328.75</ele>
        <time>2015-11-11T10:09:23Z</time>
      </trkpt>
      <trkpt lat="43.74691" lon="5.89702">
        <ele>327.18</ele>
        <time>2015-11-11T10:09:26Z</time>
      </trkpt>
      <trkpt lat="43.74706" lon="5.89679">
        <ele>326.36</ele>
        <time>2015-11-11T10:09:29Z</time>
      </trkpt>
      <trkpt lat="43.74717" lon="5.89652">
        <ele>326.01</ele>
        <time>2015-11-11T10:09:32Z</time>
      </trkpt>
      <trkpt lat="43.74731" lon="5.8963">
        <ele>324.84</ele>
        <time>2015-11-11T10:09:35Z</time>
      </trkpt>
      <trkpt lat="43.74748" lon="5.8961">
        <ele>324.32</ele>
        <time>2015-11-11T10:09:38Z</time>
      </trkpt>
      <trkpt lat="43.74766" lon="5.89586">
        <ele>323</ele>
        <time>2015-11-11T10:09:41Z</time>
      </trkpt>
      <trkpt lat="43.7478" lon="5.89563">
        <ele>320.71</ele>
        <time>2015-11-11T10:09:44Z</time>
      </trkpt>
      <trkpt lat="43.74794" lon="5.89532">
        <ele>320.3</ele>
        <time>2015-11-11T10:09:47Z</time>
      </trkpt>
      <trkpt lat="43.74801" lon="5.89509">
        <ele>319.76</ele>
        <time>2015-11-11T10:09:49Z</time>
      </trkpt>
      <trkpt lat="43.74809" lon="5.89485">
        <ele>317.87</ele>
        <time>2015-11-11T10:09:51Z</time>
      </trkpt>
      <trkpt lat="43.74821" lon="5.89454">
        <ele>313.95</ele>
        <time>2015-11-11T10:09:54Z</time>
      </trkpt>
      <trkpt lat="43.74835" lon="5.89423">
        <ele>311.2</ele>
        <time>2015-11-11T10:09:57Z</time>
      </trkpt>
      <trkpt lat="43.74851" lon="5.89402">
        <ele>308.36</ele>
        <time>2015-11-11T10:10:00Z</time>
      </trkpt>
      <trkpt lat="43.74872" lon="5.89385">
        <ele>308.01</ele>
        <time>2015-11-11T10:10:03Z</time>
      </trkpt>
      <trkpt lat="43.74892" lon="5.89367">
        <ele>307.96</ele>
        <time>2015-11-11T10:10:06Z</time>
      </trkpt>
      <trkpt lat="43.74913" lon="5.89352">
        <ele>308.71</ele>
        <time>2015-11-11T10:10:09Z</time>
      </trkpt>
      <trkpt lat="43.74935" lon="5.89338">
        <ele>308.3</ele>
        <time>2015-11-11T10:10:12Z</time>
      </trkpt>
      <trkpt lat="43.74956" lon="5.89323">
        <ele>310.37</ele>
        <time>2015-11-11T10:10:15Z</time>
      </trkpt>
      <trkpt lat="43.74977" lon="5.89308">
        <ele>310.26</ele>
        <time>2015-11-11T10:10:18Z</time>
      </trkpt>
      <trkpt lat="43.74997" lon="5.89294">
        <ele>309.74</ele>
        <time>2015-11-11T10:10:21Z</time>
      </trkpt>
      <trkpt lat="43.75017" lon="5.89281">
        <ele>308.3</ele>
        <time>2015-11-11T10:10:24Z</time>
      </trkpt>
      <trkpt lat="43.75037" lon="5.89269">
        <ele>309.75</ele>
        <time>2015-11-11T10:10:27Z</time>
      </trkpt>
      <trkpt lat="43.75058" lon="5.89258">
        <ele>309.93</ele>
        <time>2015-11-11T10:10:30Z</time>
      </trkpt>
      <trkpt lat="43.75079" lon="5.89257">
        <ele>310.2</ele>
        <time>2015-11-11T10:10:33Z</time>
      </trkpt>
      <trkpt lat="43.75098" lon="5.89258">
        <ele>310.24</ele>
        <time>2015-11-11T10:10:36Z</time>
      </trkpt>
      <trkpt lat="43.75117" lon="5.89259">
        <ele>310.62</ele>
        <time>2015-11-11T10:10:39Z</time>
      </trkpt>
      <trkpt lat="43.75142" lon="5.89257">
        <ele>312.64</ele>
        <time>2015-11-11T10:10:43Z</time>
      </trkpt>
      <trkpt lat="43.7516" lon="5.89255">
        <ele>311.92</ele>
        <time>2015-11-11T10:10:46Z</time>
      </trkpt>
      <trkpt lat="43.75181" lon="5.89251">
        <ele>309.95</ele>
        <time>2015-11-11T10:10:49Z</time>
      </trkpt>
      <trkpt lat="43.75203" lon="5.89244">
        <ele>307.21</ele>
        <time>2015-11-11T10:10:52Z</time>
      </trkpt>
      <trkpt lat="43.75221" lon="5.89228">
        <ele>304.99</ele>
        <time>2015-11-11T10:10:55Z</time>
      </trkpt>
      <trkpt lat="43.75237" lon="5.89206">
        <ele>304.46</ele>
        <time>2015-11-11T10:10:58Z</time>
      </trkpt>
      <trkpt lat="43.75253" lon="5.89187">
        <ele>305.14</ele>
        <time>2015-11-11T10:11:01Z</time>
      </trkpt>
      <trkpt lat="43.7527" lon="5.89166">
        <ele>305.23</ele>
        <time>2015-11-11T10:11:04Z</time>
      </trkpt>
      <trkpt lat="43.75285" lon="5.89147">
        <ele>305.62</ele>
        <time>2015-11-11T10:11:07Z</time>
      </trkpt>
      <trkpt lat="43.75299" lon="5.89125">
        <ele>304.91</ele>
        <time>2015-11-11T10:11:10Z</time>
      </trkpt>
      <trkpt lat="43.75312" lon="5.89098">
        <ele>302.08</ele>
        <time>2015-11-11T10:11:13Z</time>
      </trkpt>
      <trkpt lat="43.75323" lon="5.89067">
        <ele>299.6</ele>
        <time>2015-11-11T10:11:16Z</time>
      </trkpt>
      <trkpt lat="43.75329" lon="5.89041">
        <ele>298.79</ele>
        <time>2015-11-11T10:11:19Z</time>
      </trkpt>
      <trkpt lat="43.75334" lon="5.89012">
        <ele>298.09</ele>
        <time>2015-11-11T10:11:23Z</time>
      </trkpt>
      <trkpt lat="43.75354" lon="5.88998">
        <ele>299.77</ele>
        <time>2015-11-11T10:11:28Z</time>
      </trkpt>
      <trkpt lat="43.75373" lon="5.88995">
        <ele>298.81</ele>
        <time>2015-11-11T10:11:31Z</time>
      </trkpt>
      <trkpt lat="43.75394" lon="5.88994">
        <ele>298.78</ele>
        <time>2015-11-11T10:11:35Z</time>
      </trkpt>
      <trkpt lat="43.75416" lon="5.8899">
        <ele>297.84</ele>
        <time>2015-11-11T10:11:39Z</time>
      </trkpt>
      <trkpt lat="43.75431" lon="5.89005">
        <ele>298.51</ele>
        <time>2015-11-11T10:11:46Z</time>
      </trkpt>
      <trkpt lat="43.75436" lon="5.89037">
        <ele>294.75</ele>
        <time>2015-11-11T10:11:51Z</time>
      </trkpt>
      <trkpt lat="43.75434" lon="5.89062">
        <ele>294.31</ele>
        <time>2015-11-11T10:11:54Z</time>
      </trkpt>
      <trkpt lat="43.75439" lon="5.8909">
        <ele>294.68</ele>
        <time>2015-11-11T10:11:58Z</time>
      </trkpt>
      <trkpt lat="43.75429" lon="5.89115">
        <ele>294.7</ele>
        <time>2015-11-11T10:12:04Z</time>
      </trkpt>
      <trkpt lat="43.7541" lon="5.89136">
        <ele>292.65</ele>
        <time>2015-11-11T10:12:08Z</time>
      </trkpt>
      <trkpt lat="43.75404" lon="5.89165">
        <ele>292.7</ele>
        <time>2015-11-11T10:12:12Z</time>
      </trkpt>
      <trkpt lat="43.75402" lon="5.89193">
        <ele>293.98</ele>
        <time>2015-11-11T10:12:17Z</time>
      </trkpt>
      <trkpt lat="43.75402" lon="5.89218">
        <ele>293.48</ele>
        <time>2015-11-11T10:12:21Z</time>
      </trkpt>
      <trkpt lat="43.75397" lon="5.89246">
        <ele>292.41</ele>
        <time>2015-11-11T10:12:26Z</time>
      </trkpt>
      <trkpt lat="43.75398" lon="5.89271">
        <ele>292.97</ele>
        <time>2015-11-11T10:12:31Z</time>
      </trkpt>
      <trkpt lat="43.75401" lon="5.89299">
        <ele>291.29</ele>
        <time>2015-11-11T10:12:35Z</time>
      </trkpt>
      <trkpt lat="43.75403" lon="5.89326">
        <ele>289.31</ele>
        <time>2015-11-11T10:12:39Z</time>
      </trkpt>
      <trkpt lat="43.754" lon="5.89352">
        <ele>291.62</ele>
        <time>2015-11-11T10:12:43Z</time>
      </trkpt>
      <trkpt lat="43.75397" lon="5.89379">
        <ele>290.54</ele>
        <time>2015-11-11T10:12:48Z</time>
      </trkpt>
      <trkpt lat="43.75396" lon="5.89407">
        <ele>289.78</ele>
        <time>2015-11-11T10:12:53Z</time>
      </trkpt>
      <trkpt lat="43.75394" lon="5.89436">
        <ele>291.2</ele>
        <time>2015-11-11T10:12:58Z</time>
      </trkpt>
      <trkpt lat="43.7539" lon="5.89466">
        <ele>291.83</ele>
        <time>2015-11-11T10:13:03Z</time>
      </trkpt>
      <trkpt lat="43.75388" lon="5.89492">
        <ele>291.97</ele>
        <time>2015-11-11T10:13:07Z</time>
      </trkpt>
      <trkpt lat="43.75384" lon="5.89521">
        <ele>292.08</ele>
        <time>2015-11-11T10:13:12Z</time>
      </trkpt>
      <trkpt lat="43.75382" lon="5.89548">
        <ele>292.36</ele>
        <time>2015-11-11T10:13:16Z</time>
      </trkpt>
      <trkpt lat="43.75383" lon="5.89572">
        <ele>292.94</ele>
        <time>2015-11-11T10:13:20Z</time>
      </trkpt>
      <trkpt lat="43.7538" lon="5.89598">
        <ele>292.47</ele>
        <time>2015-11-11T10:13:24Z</time>
      </trkpt>
      <trkpt lat="43.75379" lon="5.89629">
        <ele>293.47</ele>
        <time>2015-11-11T10:13:29Z</time>
      </trkpt>
      <trkpt lat="43.75379" lon="5.89659">
        <ele>295.12</ele>
        <time>2015-11-11T10:13:34Z</time>
      </trkpt>
      <trkpt lat="43.75377" lon="5.89684">
        <ele>296.11</ele>
        <time>2015-11-11T10:13:39Z</time>
      </trkpt>
      <trkpt lat="43.75375" lon="5.89711">
        <ele>297.22</ele>
        <time>2015-11-11T10:13:45Z</time>
      </trkpt>
      <trkpt lat="43.75392" lon="5.89722">
        <ele>294.15</ele>
        <time>2015-11-11T10:16:39Z</time>
      </trkpt>
      <trkpt lat="43.75373" lon="5.89721">
        <ele>286.98</ele>
        <time>2015-11-11T10:23:26Z</time>
      </trkpt>
      <trkpt lat="43.75368" lon="5.89746">
        <ele>296.73</ele>
        <time>2015-11-11T10:29:22Z</time>
      </trkpt>
      <trkpt lat="43.75367" lon="5.89774">
        <ele>296.18</ele>
        <time>2015-11-11T10:29:25Z</time>
      </trkpt>
      <trkpt lat="43.75365" lon="5.89803">
        <ele>296.11</ele>
        <time>2015-11-11T10:29:29Z</time>
      </trkpt>
      <trkpt lat="43.75365" lon="5.89832">
        <ele>294.92</ele>
        <time>2015-11-11T10:29:33Z</time>
      </trkpt>
      <trkpt lat="43.75366" lon="5.89863">
        <ele>295.35</ele>
        <time>2015-11-11T10:29:37Z</time>
      </trkpt>
      <trkpt lat="43.7537" lon="5.8989">
        <ele>295.06</ele>
        <time>2015-11-11T10:29:41Z</time>
      </trkpt>
      <trkpt lat="43.75371" lon="5.8992">
        <ele>298.11</ele>
        <time>2015-11-11T10:29:46Z</time>
      </trkpt>
      <trkpt lat="43.75374" lon="5.8995">
        <ele>298.86</ele>
        <time>2015-11-11T10:29:51Z</time>
      </trkpt>
      <trkpt lat="43.75377" lon="5.89976">
        <ele>300.11</ele>
        <time>2015-11-11T10:29:56Z</time>
      </trkpt>
      <trkpt lat="43.75382" lon="5.90001">
        <ele>299.36</ele>
        <time>2015-11-11T10:30:01Z</time>
      </trkpt>
      <trkpt lat="43.75391" lon="5.9003">
        <ele>298.71</ele>
        <time>2015-11-11T10:30:06Z</time>
      </trkpt>
      <trkpt lat="43.75398" lon="5.90054">
        <ele>298.48</ele>
        <time>2015-11-11T10:30:11Z</time>
      </trkpt>
      <trkpt lat="43.75401" lon="5.90079">
        <ele>296.51</ele>
        <time>2015-11-11T10:30:15Z</time>
      </trkpt>
      <trkpt lat="43.75402" lon="5.90106">
        <ele>297.94</ele>
        <time>2015-11-11T10:30:20Z</time>
      </trkpt>
      <trkpt lat="43.75404" lon="5.90138">
        <ele>294.51</ele>
        <time>2015-11-11T10:30:25Z</time>
      </trkpt>
      <trkpt lat="43.75406" lon="5.90165">
        <ele>294.97</ele>
        <time>2015-11-11T10:30:30Z</time>
      </trkpt>
      <trkpt lat="43.75412" lon="5.90189">
        <ele>295.29</ele>
        <time>2015-11-11T10:30:34Z</time>
      </trkpt>
      <trkpt lat="43.75422" lon="5.90217">
        <ele>295.49</ele>
        <time>2015-11-11T10:30:39Z</time>
      </trkpt>
      <trkpt lat="43.75429" lon="5.90242">
        <ele>293.63</ele>
        <time>2015-11-11T10:30:43Z</time>
      </trkpt>
      <trkpt lat="43.75436" lon="5.90271">
        <ele>291.95</ele>
        <time>2015-11-11T10:30:47Z</time>
      </trkpt>
      <trkpt lat="43.75437" lon="5.90296">
        <ele>292.46</ele>
        <time>2015-11-11T10:30:50Z</time>
      </trkpt>
      <trkpt lat="43.7544" lon="5.90329">
        <ele>287.69</ele>
        <time>2015-11-11T10:30:54Z</time>
      </trkpt>
      <trkpt lat="43.75442" lon="5.90357">
        <ele>286.58</ele>
        <time>2015-11-11T10:30:58Z</time>
      </trkpt>
      <trkpt lat="43.75444" lon="5.90387">
        <ele>287.14</ele>
        <time>2015-11-11T10:31:02Z</time>
      </trkpt>
      <trkpt lat="43.75447" lon="5.90418">
        <ele>287.35</ele>
        <time>2015-11-11T10:31:05Z</time>
      </trkpt>
      <trkpt lat="43.75448" lon="5.90445">
        <ele>286.63</ele>
        <time>2015-11-11T10:31:08Z</time>
      </trkpt>
      <trkpt lat="43.75453" lon="5.9047">
        <ele>288.04</ele>
        <time>2015-11-11T10:31:11Z</time>
      </trkpt>
      <trkpt lat="43.75455" lon="5.90501">
        <ele>290.23</ele>
        <time>2015-11-11T10:31:15Z</time>
      </trkpt>
      <trkpt lat="43.75455" lon="5.9053">
        <ele>291.93</ele>
        <time>2015-11-11T10:31:19Z</time>
      </trkpt>
      <trkpt lat="43.7545" lon="5.90555">
        <ele>290.33</ele>
        <time>2015-11-11T10:31:22Z</time>
      </trkpt>
      <trkpt lat="43.75444" lon="5.90587">
        <ele>290.75</ele>
        <time>2015-11-11T10:31:26Z</time>
      </trkpt>
      <trkpt lat="43.75439" lon="5.90618">
        <ele>288.46</ele>
        <time>2015-11-11T10:31:30Z</time>
      </trkpt>
      <trkpt lat="43.75439" lon="5.90649">
        <ele>289.69</ele>
        <time>2015-11-11T10:31:34Z</time>
      </trkpt>
      <trkpt lat="43.75437" lon="5.90677">
        <ele>291.58</ele>
        <time>2015-11-11T10:31:38Z</time>
      </trkpt>
      <trkpt lat="43.75436" lon="5.90708">
        <ele>291.2</ele>
        <time>2015-11-11T10:31:42Z</time>
      </trkpt>
      <trkpt lat="43.75434" lon="5.90733">
        <ele>292.11</ele>
        <time>2015-11-11T10:31:46Z</time>
      </trkpt>
      <trkpt lat="43.7543" lon="5.90759">
        <ele>291.74</ele>
        <time>2015-11-11T10:31:51Z</time>
      </trkpt>
      <trkpt lat="43.75437" lon="5.90783">
        <ele>292.16</ele>
        <time>2015-11-11T10:31:56Z</time>
      </trkpt>
      <trkpt lat="43.75455" lon="5.90795">
        <ele>294.91</ele>
        <time>2015-11-11T10:32:02Z</time>
      </trkpt>
      <trkpt lat="43.75475" lon="5.90797">
        <ele>294.3</ele>
        <time>2015-11-11T10:32:08Z</time>
      </trkpt>
      <trkpt lat="43.75496" lon="5.90801">
        <ele>293.06</ele>
        <time>2015-11-11T10:32:14Z</time>
      </trkpt>
      <trkpt lat="43.75516" lon="5.90805">
        <ele>294.49</ele>
        <time>2015-11-11T10:32:20Z</time>
      </trkpt>
      <trkpt lat="43.75535" lon="5.90809">
        <ele>297.42</ele>
        <time>2015-11-11T10:32:26Z</time>
      </trkpt>
      <trkpt lat="43.75553" lon="5.90816">
        <ele>299.04</ele>
        <time>2015-11-11T10:32:32Z</time>
      </trkpt>
      <trkpt lat="43.75573" lon="5.90824">
        <ele>298.8</ele>
        <time>2015-11-11T10:32:38Z</time>
      </trkpt>
      <trkpt lat="43.75593" lon="5.90831">
        <ele>297.97</ele>
        <time>2015-11-11T10:32:44Z</time>
      </trkpt>
      <trkpt lat="43.75611" lon="5.90842">
        <ele>299.53</ele>
        <time>2015-11-11T10:32:51Z</time>
      </trkpt>
      <trkpt lat="43.75627" lon="5.90855">
        <ele>302.08</ele>
        <time>2015-11-11T10:32:58Z</time>
      </trkpt>
      <trkpt lat="43.75647" lon="5.90859">
        <ele>303.28</ele>
        <time>2015-11-11T10:33:06Z</time>
      </trkpt>
      <trkpt lat="43.75665" lon="5.90854">
        <ele>310.03</ele>
        <time>2015-11-11T10:33:17Z</time>
      </trkpt>
      <trkpt lat="43.75683" lon="5.90845">
        <ele>308.92</ele>
        <time>2015-11-11T10:33:25Z</time>
      </trkpt>
      <trkpt lat="43.75701" lon="5.90835">
        <ele>307.3</ele>
        <time>2015-11-11T10:33:33Z</time>
      </trkpt>
      <trkpt lat="43.7572" lon="5.90833">
        <ele>307.96</ele>
        <time>2015-11-11T10:33:41Z</time>
      </trkpt>
      <trkpt lat="43.75736" lon="5.90819">
        <ele>305.23</ele>
        <time>2015-11-11T10:33:50Z</time>
      </trkpt>
      <trkpt lat="43.75743" lon="5.90793">
        <ele>312.46</ele>
        <time>2015-11-11T10:33:59Z</time>
      </trkpt>
      <trkpt lat="43.75748" lon="5.90768">
        <ele>315.69</ele>
        <time>2015-11-11T10:34:07Z</time>
      </trkpt>
      <trkpt lat="43.75752" lon="5.90741">
        <ele>316.32</ele>
        <time>2015-11-11T10:34:14Z</time>
      </trkpt>
      <trkpt lat="43.75763" lon="5.90718">
        <ele>322.22</ele>
        <time>2015-11-11T10:34:22Z</time>
      </trkpt>
      <trkpt lat="43.75773" lon="5.90693">
        <ele>322.25</ele>
        <time>2015-11-11T10:34:30Z</time>
      </trkpt>
      <trkpt lat="43.75791" lon="5.90689">
        <ele>323.09</ele>
        <time>2015-11-11T10:34:44Z</time>
      </trkpt>
      <trkpt lat="43.75809" lon="5.90689">
        <ele>324.87</ele>
        <time>2015-11-11T10:34:56Z</time>
      </trkpt>
      <trkpt lat="43.75828" lon="5.90682">
        <ele>325.23</ele>
        <time>2015-11-11T10:35:08Z</time>
      </trkpt>
      <trkpt lat="43.75844" lon="5.90667">
        <ele>327.25</ele>
        <time>2015-11-11T10:35:20Z</time>
      </trkpt>
      <trkpt lat="43.75859" lon="5.90652">
        <ele>333.45</ele>
        <time>2015-11-11T10:35:31Z</time>
      </trkpt>
      <trkpt lat="43.75874" lon="5.90635">
        <ele>340.8</ele>
        <time>2015-11-11T10:35:41Z</time>
      </trkpt>
      <trkpt lat="43.75885" lon="5.90615">
        <ele>342.16</ele>
        <time>2015-11-11T10:35:52Z</time>
      </trkpt>
      <trkpt lat="43.75898" lon="5.90595">
        <ele>343.7</ele>
        <time>2015-11-11T10:36:02Z</time>
      </trkpt>
      <trkpt lat="43.7591" lon="5.90576">
        <ele>336.55</ele>
        <time>2015-11-11T10:36:11Z</time>
      </trkpt>
      <trkpt lat="43.75921" lon="5.90555">
        <ele>331.67</ele>
        <time>2015-11-11T10:36:18Z</time>
      </trkpt>
      <trkpt lat="43.75934" lon="5.90532">
        <ele>332.2</ele>
        <time>2015-11-11T10:36:24Z</time>
      </trkpt>
      <trkpt lat="43.75945" lon="5.9051">
        <ele>333.24</ele>
        <time>2015-11-11T10:36:30Z</time>
      </trkpt>
      <trkpt lat="43.75953" lon="5.90485">
        <ele>339.65</ele>
        <time>2015-11-11T10:36:39Z</time>
      </trkpt>
      <trkpt lat="43.75964" lon="5.90462">
        <ele>338.89</ele>
        <time>2015-11-11T10:36:48Z</time>
      </trkpt>
      <trkpt lat="43.75972" lon="5.90439">
        <ele>338.72</ele>
        <time>2015-11-11T10:36:55Z</time>
      </trkpt>
      <trkpt lat="43.7598" lon="5.90414">
        <ele>341.47</ele>
        <time>2015-11-11T10:37:02Z</time>
      </trkpt>
      <trkpt lat="43.75989" lon="5.90389">
        <ele>343.96</ele>
        <time>2015-11-11T10:37:08Z</time>
      </trkpt>
      <trkpt lat="43.75997" lon="5.90362">
        <ele>345.3</ele>
        <time>2015-11-11T10:37:14Z</time>
      </trkpt>
      <trkpt lat="43.76009" lon="5.90341">
        <ele>344.87</ele>
        <time>2015-11-11T10:37:21Z</time>
      </trkpt>
      <trkpt lat="43.76023" lon="5.90321">
        <ele>348.49</ele>
        <time>2015-11-11T10:37:29Z</time>
      </trkpt>
      <trkpt lat="43.76033" lon="5.903">
        <ele>351.84</ele>
        <time>2015-11-11T10:37:36Z</time>
      </trkpt>
      <trkpt lat="43.76045" lon="5.9028">
        <ele>351.34</ele>
        <time>2015-11-11T10:37:44Z</time>
      </trkpt>
      <trkpt lat="43.76059" lon="5.90258">
        <ele>353.84</ele>
        <time>2015-11-11T10:37:52Z</time>
      </trkpt>
      <trkpt lat="43.76075" lon="5.90242">
        <ele>355.2</ele>
        <time>2015-11-11T10:38:00Z</time>
      </trkpt>
      <trkpt lat="43.76078" lon="5.90214">
        <ele>355.62</ele>
        <time>2015-11-11T10:38:08Z</time>
      </trkpt>
      <trkpt lat="43.76077" lon="5.90188">
        <ele>355.7</ele>
        <time>2015-11-11T10:38:14Z</time>
      </trkpt>
      <trkpt lat="43.76079" lon="5.90159">
        <ele>358.02</ele>
        <time>2015-11-11T10:38:53Z</time>
      </trkpt>
      <trkpt lat="43.76086" lon="5.90136">
        <ele>358.74</ele>
        <time>2015-11-11T10:38:59Z</time>
      </trkpt>
      <trkpt lat="43.76086" lon="5.90105">
        <ele>358.74</ele>
        <time>2015-11-11T10:39:06Z</time>
      </trkpt>
      <trkpt lat="43.76094" lon="5.90081">
        <ele>356.93</ele>
        <time>2015-11-11T10:39:09Z</time>
      </trkpt>
      <trkpt lat="43.76093" lon="5.90055">
        <ele>354.66</ele>
        <time>2015-11-11T10:39:11Z</time>
      </trkpt>
      <trkpt lat="43.76086" lon="5.90028">
        <ele>352.6</ele>
        <time>2015-11-11T10:39:13Z</time>
      </trkpt>
      <trkpt lat="43.76081" lon="5.89998">
        <ele>350.33</ele>
        <time>2015-11-11T10:39:15Z</time>
      </trkpt>
      <trkpt lat="43.76073" lon="5.89971">
        <ele>348.76</ele>
        <time>2015-11-11T10:39:17Z</time>
      </trkpt>
      <trkpt lat="43.76076" lon="5.89943">
        <ele>348.84</ele>
        <time>2015-11-11T10:39:21Z</time>
      </trkpt>
      <trkpt lat="43.76092" lon="5.89931">
        <ele>344.97</ele>
        <time>2015-11-11T10:39:25Z</time>
      </trkpt>
      <trkpt lat="43.76109" lon="5.89923">
        <ele>345.22</ele>
        <time>2015-11-11T10:39:29Z</time>
      </trkpt>
      <trkpt lat="43.76128" lon="5.89914">
        <ele>341.99</ele>
        <time>2015-11-11T10:39:33Z</time>
      </trkpt>
      <trkpt lat="43.76146" lon="5.8991">
        <ele>341.86</ele>
        <time>2015-11-11T10:39:38Z</time>
      </trkpt>
      <trkpt lat="43.76144" lon="5.8988">
        <ele>342.85</ele>
        <time>2015-11-11T10:39:44Z</time>
      </trkpt>
      <trkpt lat="43.7614" lon="5.89852">
        <ele>340.14</ele>
        <time>2015-11-11T10:39:49Z</time>
      </trkpt>
      <trkpt lat="43.76139" lon="5.89824">
        <ele>342.33</ele>
        <time>2015-11-11T10:39:54Z</time>
      </trkpt>
      <trkpt lat="43.76145" lon="5.89798">
        <ele>342.2</ele>
        <time>2015-11-11T10:40:00Z</time>
      </trkpt>
      <trkpt lat="43.76164" lon="5.89795">
        <ele>343.21</ele>
        <time>2015-11-11T10:40:09Z</time>
      </trkpt>
      <trkpt lat="43.76183" lon="5.89805">
        <ele>342.29</ele>
        <time>2015-11-11T10:40:16Z</time>
      </trkpt>
      <trkpt lat="43.762" lon="5.89812">
        <ele>343.35</ele>
        <time>2015-11-11T10:40:22Z</time>
      </trkpt>
      <trkpt lat="43.76218" lon="5.89819">
        <ele>346.02</ele>
        <time>2015-11-11T10:40:28Z</time>
      </trkpt>
      <trkpt lat="43.76235" lon="5.89834">
        <ele>346.38</ele>
        <time>2015-11-11T10:40:34Z</time>
      </trkpt>
      <trkpt lat="43.76237" lon="5.89861">
        <ele>347.68</ele>
        <time>2015-11-11T10:40:39Z</time>
      </trkpt>
      <trkpt lat="43.76255" lon="5.89874">
        <ele>348.05</ele>
        <time>2015-11-11T10:40:46Z</time>
      </trkpt>
      <trkpt lat="43.76273" lon="5.89862">
        <ele>349.07</ele>
        <time>2015-11-11T10:40:53Z</time>
      </trkpt>
      <trkpt lat="43.7629" lon="5.89849">
        <ele>353.33</ele>
        <time>2015-11-11T10:41:02Z</time>
      </trkpt>
      <trkpt lat="43.76307" lon="5.89841">
        <ele>357.47</ele>
        <time>2015-11-11T10:41:14Z</time>
      </trkpt>
      <trkpt lat="43.76315" lon="5.89818">
        <ele>352.87</ele>
        <time>2015-11-11T10:41:22Z</time>
      </trkpt>
      <trkpt lat="43.76328" lon="5.89799">
        <ele>352.36</ele>
        <time>2015-11-11T10:41:30Z</time>
      </trkpt>
      <trkpt lat="43.76346" lon="5.89796">
        <ele>351.31</ele>
        <time>2015-11-11T10:41:37Z</time>
      </trkpt>
      <trkpt lat="43.76365" lon="5.89805">
        <ele>352.99</ele>
        <time>2015-11-11T10:41:43Z</time>
      </trkpt>
      <trkpt lat="43.76381" lon="5.8982">
        <ele>354.93</ele>
        <time>2015-11-11T10:41:50Z</time>
      </trkpt>
      <trkpt lat="43.76394" lon="5.89837">
        <ele>357.23</ele>
        <time>2015-11-11T10:41:58Z</time>
      </trkpt>
      <trkpt lat="43.76403" lon="5.8986">
        <ele>357.87</ele>
        <time>2015-11-11T10:42:07Z</time>
      </trkpt>
      <trkpt lat="43.76416" lon="5.89879">
        <ele>360.11</ele>
        <time>2015-11-11T10:42:16Z</time>
      </trkpt>
      <trkpt lat="43.76422" lon="5.89906">
        <ele>361.18</ele>
        <time>2015-11-11T10:42:25Z</time>
      </trkpt>
      <trkpt lat="43.7643" lon="5.8993">
        <ele>363.42</ele>
        <time>2015-11-11T10:42:32Z</time>
      </trkpt>
      <trkpt lat="43.76437" lon="5.89954">
        <ele>363.05</ele>
        <time>2015-11-11T10:42:39Z</time>
      </trkpt>
      <trkpt lat="43.7645" lon="5.89982">
        <ele>362.08</ele>
        <time>2015-11-11T10:42:44Z</time>
      </trkpt>
      <trkpt lat="43.76462" lon="5.90007">
        <ele>361.86</ele>
        <time>2015-11-11T10:42:49Z</time>
      </trkpt>
      <trkpt lat="43.76477" lon="5.90028">
        <ele>360.09</ele>
        <time>2015-11-11T10:42:53Z</time>
      </trkpt>
      <trkpt lat="43.76493" lon="5.90045">
        <ele>358.36</ele>
        <time>2015-11-11T10:42:57Z</time>
      </trkpt>
      <trkpt lat="43.76507" lon="5.90066">
        <ele>359.43</ele>
        <time>2015-11-11T10:43:02Z</time>
      </trkpt>
      <trkpt lat="43.76523" lon="5.90087">
        <ele>364.01</ele>
        <time>2015-11-11T10:43:08Z</time>
      </trkpt>
      <trkpt lat="43.76541" lon="5.90099">
        <ele>363.11</ele>
        <time>2015-11-11T10:43:13Z</time>
      </trkpt>
      <trkpt lat="43.76543" lon="5.90124">
        <ele>362.54</ele>
        <time>2015-11-11T10:43:27Z</time>
      </trkpt>
      <trkpt lat="43.76534" lon="5.90146">
        <ele>364.57</ele>
        <time>2015-11-11T10:43:42Z</time>
      </trkpt>
      <trkpt lat="43.76534" lon="5.90173">
        <ele>369.27</ele>
        <time>2015-11-11T10:43:59Z</time>
      </trkpt>
      <trkpt lat="43.76546" lon="5.90193">
        <ele>370.24</ele>
        <time>2015-11-11T10:44:04Z</time>
      </trkpt>
      <trkpt lat="43.76563" lon="5.90208">
        <ele>369.87</ele>
        <time>2015-11-11T10:44:10Z</time>
      </trkpt>
      <trkpt lat="43.76581" lon="5.90213">
        <ele>365.05</ele>
        <time>2015-11-11T10:44:19Z</time>
      </trkpt>
      <trkpt lat="43.76599" lon="5.9022">
        <ele>360.34</ele>
        <time>2015-11-11T10:44:22Z</time>
      </trkpt>
      <trkpt lat="43.76611" lon="5.90246">
        <ele>355.87</ele>
        <time>2015-11-11T10:44:26Z</time>
      </trkpt>
      <trkpt lat="43.76634" lon="5.90249">
        <ele>352.95</ele>
        <time>2015-11-11T10:44:29Z</time>
      </trkpt>
      <trkpt lat="43.76652" lon="5.90243">
        <ele>351.2</ele>
        <time>2015-11-11T10:44:32Z</time>
      </trkpt>
      <trkpt lat="43.76665" lon="5.90264">
        <ele>352.1</ele>
        <time>2015-11-11T10:44:38Z</time>
      </trkpt>
      <trkpt lat="43.76677" lon="5.90289">
        <ele>353.61</ele>
        <time>2015-11-11T10:44:45Z</time>
      </trkpt>
      <trkpt lat="43.76684" lon="5.90315">
        <ele>354.71</ele>
        <time>2015-11-11T10:44:52Z</time>
      </trkpt>
      <trkpt lat="43.7669" lon="5.90339">
        <ele>357.58</ele>
        <time>2015-11-11T10:44:59Z</time>
      </trkpt>
      <trkpt lat="43.76698" lon="5.90364">
        <ele>361.65</ele>
        <time>2015-11-11T10:45:07Z</time>
      </trkpt>
      <trkpt lat="43.76711" lon="5.90383">
        <ele>364.92</ele>
        <time>2015-11-11T10:45:15Z</time>
      </trkpt>
      <trkpt lat="43.76726" lon="5.90398">
        <ele>366.15</ele>
        <time>2015-11-11T10:45:23Z</time>
      </trkpt>
      <trkpt lat="43.76738" lon="5.90417">
        <ele>368.11</ele>
        <time>2015-11-11T10:45:31Z</time>
      </trkpt>
      <trkpt lat="43.76744" lon="5.90441">
        <ele>370.28</ele>
        <time>2015-11-11T10:45:39Z</time>
      </trkpt>
      <trkpt lat="43.76759" lon="5.90457">
        <ele>372.19</ele>
        <time>2015-11-11T10:45:47Z</time>
      </trkpt>
      <trkpt lat="43.76775" lon="5.90472">
        <ele>373.19</ele>
        <time>2015-11-11T10:45:55Z</time>
      </trkpt>
      <trkpt lat="43.7679" lon="5.90491">
        <ele>370.16</ele>
        <time>2015-11-11T10:46:04Z</time>
      </trkpt>
      <trkpt lat="43.76804" lon="5.90509">
        <ele>371.59</ele>
        <time>2015-11-11T10:46:17Z</time>
      </trkpt>
      <trkpt lat="43.76818" lon="5.90528">
        <ele>372.38</ele>
        <time>2015-11-11T10:46:27Z</time>
      </trkpt>
      <trkpt lat="43.76832" lon="5.90546">
        <ele>373.54</ele>
        <time>2015-11-11T10:46:36Z</time>
      </trkpt>
      <trkpt lat="43.76847" lon="5.90564">
        <ele>376.77</ele>
        <time>2015-11-11T10:46:45Z</time>
      </trkpt>
      <trkpt lat="43.76861" lon="5.90581">
        <ele>379.12</ele>
        <time>2015-11-11T10:46:54Z</time>
      </trkpt>
      <trkpt lat="43.76876" lon="5.906">
        <ele>379.77</ele>
        <time>2015-11-11T10:47:03Z</time>
      </trkpt>
      <trkpt lat="43.76889" lon="5.90618">
        <ele>383.75</ele>
        <time>2015-11-11T10:47:12Z</time>
      </trkpt>
      <trkpt lat="43.76902" lon="5.90637">
        <ele>384.73</ele>
        <time>2015-11-11T10:47:21Z</time>
      </trkpt>
      <trkpt lat="43.76918" lon="5.90654">
        <ele>378.79</ele>
        <time>2015-11-11T10:47:31Z</time>
      </trkpt>
      <trkpt lat="43.76932" lon="5.90673">
        <ele>385.66</ele>
        <time>2015-11-11T10:47:41Z</time>
      </trkpt>
      <trkpt lat="43.76947" lon="5.9069">
        <ele>387.05</ele>
        <time>2015-11-11T10:47:50Z</time>
      </trkpt>
      <trkpt lat="43.76964" lon="5.90702">
        <ele>388.93</ele>
        <time>2015-11-11T10:48:00Z</time>
      </trkpt>
      <trkpt lat="43.76982" lon="5.9071">
        <ele>391.06</ele>
        <time>2015-11-11T10:48:10Z</time>
      </trkpt>
      <trkpt lat="43.77002" lon="5.90714">
        <ele>392.36</ele>
        <time>2015-11-11T10:48:20Z</time>
      </trkpt>
      <trkpt lat="43.77021" lon="5.90714">
        <ele>387.52</ele>
        <time>2015-11-11T10:48:29Z</time>
      </trkpt>
      <trkpt lat="43.7704" lon="5.90718">
        <ele>388.29</ele>
        <time>2015-11-11T10:48:38Z</time>
      </trkpt>
      <trkpt lat="43.77057" lon="5.90726">
        <ele>390.28</ele>
        <time>2015-11-11T10:48:47Z</time>
      </trkpt>
      <trkpt lat="43.77073" lon="5.90741">
        <ele>391.99</ele>
        <time>2015-11-11T10:48:56Z</time>
      </trkpt>
      <trkpt lat="43.77086" lon="5.9076">
        <ele>394.24</ele>
        <time>2015-11-11T10:49:05Z</time>
      </trkpt>
      <trkpt lat="43.77095" lon="5.90784">
        <ele>394.58</ele>
        <time>2015-11-11T10:49:14Z</time>
      </trkpt>
      <trkpt lat="43.77099" lon="5.90809">
        <ele>395.5</ele>
        <time>2015-11-11T10:49:23Z</time>
      </trkpt>
      <trkpt lat="43.77096" lon="5.90836">
        <ele>396.21</ele>
        <time>2015-11-11T10:49:33Z</time>
      </trkpt>
      <trkpt lat="43.77099" lon="5.90862">
        <ele>396.19</ele>
        <time>2015-11-11T10:49:42Z</time>
      </trkpt>
      <trkpt lat="43.77101" lon="5.90889">
        <ele>395.16</ele>
        <time>2015-11-11T10:49:52Z</time>
      </trkpt>
      <trkpt lat="43.77103" lon="5.90914">
        <ele>396.63</ele>
        <time>2015-11-11T10:50:03Z</time>
      </trkpt>
      <trkpt lat="43.77109" lon="5.9094">
        <ele>396.19</ele>
        <time>2015-11-11T10:50:15Z</time>
      </trkpt>
      <trkpt lat="43.77116" lon="5.90964">
        <ele>399.15</ele>
        <time>2015-11-11T10:50:25Z</time>
      </trkpt>
      <trkpt lat="43.77123" lon="5.90988">
        <ele>402.82</ele>
        <time>2015-11-11T10:50:34Z</time>
      </trkpt>
      <trkpt lat="43.77131" lon="5.91012">
        <ele>405.23</ele>
        <time>2015-11-11T10:50:44Z</time>
      </trkpt>
      <trkpt lat="43.77142" lon="5.91035">
        <ele>408.04</ele>
        <time>2015-11-11T10:50:54Z</time>
      </trkpt>
      <trkpt lat="43.77152" lon="5.91057">
        <ele>414.37</ele>
        <time>2015-11-11T10:51:26Z</time>
      </trkpt>
      <trkpt lat="43.77164" lon="5.91076">
        <ele>415.55</ele>
        <time>2015-11-11T10:51:38Z</time>
      </trkpt>
      <trkpt lat="43.77178" lon="5.91095">
        <ele>415.7</ele>
        <time>2015-11-11T10:51:48Z</time>
      </trkpt>
      <trkpt lat="43.77186" lon="5.91118">
        <ele>413.03</ele>
        <time>2015-11-11T10:51:58Z</time>
      </trkpt>
      <trkpt lat="43.77192" lon="5.91141">
        <ele>413.07</ele>
        <time>2015-11-11T10:52:06Z</time>
      </trkpt>
      <trkpt lat="43.772" lon="5.91166">
        <ele>412.2</ele>
        <time>2015-11-11T10:52:15Z</time>
      </trkpt>
      <trkpt lat="43.77207" lon="5.91191">
        <ele>415.04</ele>
        <time>2015-11-11T10:52:25Z</time>
      </trkpt>
      <trkpt lat="43.77212" lon="5.91216">
        <ele>416.28</ele>
        <time>2015-11-11T10:52:33Z</time>
      </trkpt>
      <trkpt lat="43.7722" lon="5.91239">
        <ele>419.47</ele>
        <time>2015-11-11T10:52:43Z</time>
      </trkpt>
      <trkpt lat="43.77227" lon="5.91264">
        <ele>417.99</ele>
        <time>2015-11-11T10:52:54Z</time>
      </trkpt>
      <trkpt lat="43.77236" lon="5.91287">
        <ele>420.45</ele>
        <time>2015-11-11T10:53:03Z</time>
      </trkpt>
      <trkpt lat="43.77246" lon="5.91308">
        <ele>420.8</ele>
        <time>2015-11-11T10:53:12Z</time>
      </trkpt>
      <trkpt lat="43.77258" lon="5.91329">
        <ele>419.31</ele>
        <time>2015-11-11T10:53:21Z</time>
      </trkpt>
      <trkpt lat="43.77272" lon="5.91346">
        <ele>420.84</ele>
        <time>2015-11-11T10:53:31Z</time>
      </trkpt>
      <trkpt lat="43.77289" lon="5.91356">
        <ele>422.47</ele>
        <time>2015-11-11T10:53:41Z</time>
      </trkpt>
      <trkpt lat="43.77305" lon="5.91369">
        <ele>417.47</ele>
        <time>2015-11-11T10:53:53Z</time>
      </trkpt>
      <trkpt lat="43.77321" lon="5.91383">
        <ele>424.08</ele>
        <time>2015-11-11T10:54:03Z</time>
      </trkpt>
      <trkpt lat="43.77333" lon="5.91402">
        <ele>426.91</ele>
        <time>2015-11-11T10:54:13Z</time>
      </trkpt>
      <trkpt lat="43.77334" lon="5.91427">
        <ele>428.85</ele>
        <time>2015-11-11T10:54:23Z</time>
      </trkpt>
      <trkpt lat="43.77328" lon="5.91451">
        <ele>432.06</ele>
        <time>2015-11-11T10:54:32Z</time>
      </trkpt>
      <trkpt lat="43.77322" lon="5.91476">
        <ele>433.77</ele>
        <time>2015-11-11T10:54:42Z</time>
      </trkpt>
      <trkpt lat="43.77317" lon="5.91501">
        <ele>435.09</ele>
        <time>2015-11-11T10:54:52Z</time>
      </trkpt>
      <trkpt lat="43.7732" lon="5.91526">
        <ele>433.76</ele>
        <time>2015-11-11T10:55:02Z</time>
      </trkpt>
      <trkpt lat="43.77323" lon="5.91553">
        <ele>433.4</ele>
        <time>2015-11-11T10:55:13Z</time>
      </trkpt>
      <trkpt lat="43.77331" lon="5.91576">
        <ele>432.32</ele>
        <time>2015-11-11T10:55:23Z</time>
      </trkpt>
      <trkpt lat="43.77344" lon="5.91594">
        <ele>430.87</ele>
        <time>2015-11-11T10:55:32Z</time>
      </trkpt>
      <trkpt lat="43.77358" lon="5.91609">
        <ele>434.58</ele>
        <time>2015-11-11T10:55:40Z</time>
      </trkpt>
      <trkpt lat="43.7737" lon="5.91631">
        <ele>434.65</ele>
        <time>2015-11-11T10:55:50Z</time>
      </trkpt>
      <trkpt lat="43.77379" lon="5.91655">
        <ele>438.52</ele>
        <time>2015-11-11T10:56:00Z</time>
      </trkpt>
      <trkpt lat="43.77391" lon="5.91673">
        <ele>440.01</ele>
        <time>2015-11-11T10:56:09Z</time>
      </trkpt>
      <trkpt lat="43.77404" lon="5.9169">
        <ele>443.12</ele>
        <time>2015-11-11T10:56:19Z</time>
      </trkpt>
      <trkpt lat="43.77419" lon="5.91706">
        <ele>441.25</ele>
        <time>2015-11-11T10:56:29Z</time>
      </trkpt>
      <trkpt lat="43.77437" lon="5.91714">
        <ele>442.73</ele>
        <time>2015-11-11T10:56:40Z</time>
      </trkpt>
      <trkpt lat="43.77453" lon="5.91725">
        <ele>444.52</ele>
        <time>2015-11-11T10:57:14Z</time>
      </trkpt>
      <trkpt lat="43.77469" lon="5.91739">
        <ele>446.23</ele>
        <time>2015-11-11T10:57:26Z</time>
      </trkpt>
      <trkpt lat="43.77481" lon="5.91758">
        <ele>446.3</ele>
        <time>2015-11-11T10:57:35Z</time>
      </trkpt>
      <trkpt lat="43.77485" lon="5.91784">
        <ele>447.74</ele>
        <time>2015-11-11T10:57:43Z</time>
      </trkpt>
      <trkpt lat="43.77496" lon="5.91807">
        <ele>450.62</ele>
        <time>2015-11-11T10:57:52Z</time>
      </trkpt>
      <trkpt lat="43.77508" lon="5.91827">
        <ele>453.25</ele>
        <time>2015-11-11T10:58:00Z</time>
      </trkpt>
      <trkpt lat="43.7752" lon="5.91845">
        <ele>455.56</ele>
        <time>2015-11-11T10:58:08Z</time>
      </trkpt>
      <trkpt lat="43.77536" lon="5.91862">
        <ele>458.25</ele>
        <time>2015-11-11T10:58:17Z</time>
      </trkpt>
      <trkpt lat="43.77546" lon="5.91882">
        <ele>458.24</ele>
        <time>2015-11-11T10:58:25Z</time>
      </trkpt>
      <trkpt lat="43.77553" lon="5.91908">
        <ele>458.93</ele>
        <time>2015-11-11T10:58:34Z</time>
      </trkpt>
      <trkpt lat="43.77556" lon="5.91934">
        <ele>456.91</ele>
        <time>2015-11-11T10:58:43Z</time>
      </trkpt>
      <trkpt lat="43.77558" lon="5.91961">
        <ele>460.47</ele>
        <time>2015-11-11T10:58:53Z</time>
      </trkpt>
      <trkpt lat="43.77563" lon="5.91987">
        <ele>462.49</ele>
        <time>2015-11-11T10:59:04Z</time>
      </trkpt>
      <trkpt lat="43.77569" lon="5.92014">
        <ele>461.16</ele>
        <time>2015-11-11T10:59:15Z</time>
      </trkpt>
      <trkpt lat="43.77581" lon="5.92036">
        <ele>462.51</ele>
        <time>2015-11-11T10:59:25Z</time>
      </trkpt>
      <trkpt lat="43.77592" lon="5.92056">
        <ele>462.04</ele>
        <time>2015-11-11T10:59:35Z</time>
      </trkpt>
      <trkpt lat="43.77605" lon="5.92073">
        <ele>461.35</ele>
        <time>2015-11-11T10:59:45Z</time>
      </trkpt>
      <trkpt lat="43.77618" lon="5.92092">
        <ele>463.61</ele>
        <time>2015-11-11T10:59:57Z</time>
      </trkpt>
      <trkpt lat="43.77625" lon="5.92116">
        <ele>469.56</ele>
        <time>2015-11-11T11:00:10Z</time>
      </trkpt>
      <trkpt lat="43.77636" lon="5.92095">
        <ele>466.6</ele>
        <time>2015-11-11T11:00:20Z</time>
      </trkpt>
      <trkpt lat="43.7764" lon="5.9207">
        <ele>480.47</ele>
        <time>2015-11-11T11:01:05Z</time>
      </trkpt>
      <trkpt lat="43.77635" lon="5.92046">
        <ele>479.48</ele>
        <time>2015-11-11T11:01:41Z</time>
      </trkpt>
      <trkpt lat="43.77629" lon="5.9202">
        <ele>479.3</ele>
        <time>2015-11-11T11:01:51Z</time>
      </trkpt>
      <trkpt lat="43.77627" lon="5.91994">
        <ele>487.75</ele>
        <time>2015-11-11T11:02:03Z</time>
      </trkpt>
      <trkpt lat="43.77628" lon="5.91967">
        <ele>490.41</ele>
        <time>2015-11-11T11:02:19Z</time>
      </trkpt>
      <trkpt lat="43.77634" lon="5.91943">
        <ele>500.08</ele>
        <time>2015-11-11T11:02:34Z</time>
      </trkpt>
      <trkpt lat="43.77643" lon="5.91921">
        <ele>498.35</ele>
        <time>2015-11-11T11:02:46Z</time>
      </trkpt>
      <trkpt lat="43.77653" lon="5.91899">
        <ele>495.12</ele>
        <time>2015-11-11T11:03:01Z</time>
      </trkpt>
      <trkpt lat="43.77648" lon="5.91871">
        <ele>493.52</ele>
        <time>2015-11-11T11:03:10Z</time>
      </trkpt>
      <trkpt lat="43.77638" lon="5.91845">
        <ele>491.72</ele>
        <time>2015-11-11T11:03:15Z</time>
      </trkpt>
      <trkpt lat="43.77629" lon="5.91821">
        <ele>489.39</ele>
        <time>2015-11-11T11:03:21Z</time>
      </trkpt>
      <trkpt lat="43.7762" lon="5.91794">
        <ele>489.7</ele>
        <time>2015-11-11T11:03:28Z</time>
      </trkpt>
      <trkpt lat="43.7761" lon="5.91772">
        <ele>492.22</ele>
        <time>2015-11-11T11:03:33Z</time>
      </trkpt>
      <trkpt lat="43.77603" lon="5.91748">
        <ele>494.63</ele>
        <time>2015-11-11T11:03:40Z</time>
      </trkpt>
      <trkpt lat="43.77596" lon="5.91724">
        <ele>497.29</ele>
        <time>2015-11-11T11:03:46Z</time>
      </trkpt>
      <trkpt lat="43.77591" lon="5.917">
        <ele>498.31</ele>
        <time>2015-11-11T11:03:52Z</time>
      </trkpt>
      <trkpt lat="43.77579" lon="5.91675">
        <ele>495.79</ele>
        <time>2015-11-11T11:03:58Z</time>
      </trkpt>
      <trkpt lat="43.77567" lon="5.9165">
        <ele>494.35</ele>
        <time>2015-11-11T11:04:03Z</time>
      </trkpt>
      <trkpt lat="43.77554" lon="5.9163">
        <ele>496.62</ele>
        <time>2015-11-11T11:04:08Z</time>
      </trkpt>
      <trkpt lat="43.77539" lon="5.9161">
        <ele>496.73</ele>
        <time>2015-11-11T11:04:16Z</time>
      </trkpt>
      <trkpt lat="43.77527" lon="5.9159">
        <ele>491.72</ele>
        <time>2015-11-11T11:04:24Z</time>
      </trkpt>
      <trkpt lat="43.77514" lon="5.91571">
        <ele>489.12</ele>
        <time>2015-11-11T11:04:31Z</time>
      </trkpt>
      <trkpt lat="43.77495" lon="5.91558">
        <ele>489.51</ele>
        <time>2015-11-11T11:04:38Z</time>
      </trkpt>
      <trkpt lat="43.77475" lon="5.91548">
        <ele>487.95</ele>
        <time>2015-11-11T11:04:42Z</time>
      </trkpt>
      <trkpt lat="43.77458" lon="5.91534">
        <ele>484.47</ele>
        <time>2015-11-11T11:04:51Z</time>
      </trkpt>
      <trkpt lat="43.77444" lon="5.91515">
        <ele>480.23</ele>
        <time>2015-11-11T11:05:08Z</time>
      </trkpt>
      <trkpt lat="43.77432" lon="5.91495">
        <ele>478.29</ele>
        <time>2015-11-11T11:05:15Z</time>
      </trkpt>
      <trkpt lat="43.77434" lon="5.91465">
        <ele>473.7</ele>
        <time>2015-11-11T11:05:30Z</time>
      </trkpt>
      <trkpt lat="43.77433" lon="5.91439">
        <ele>471.81</ele>
        <time>2015-11-11T11:05:36Z</time>
      </trkpt>
      <trkpt lat="43.77421" lon="5.91417">
        <ele>470.33</ele>
        <time>2015-11-11T11:05:45Z</time>
      </trkpt>
      <trkpt lat="43.77417" lon="5.91389">
        <ele>466.87</ele>
        <time>2015-11-11T11:05:52Z</time>
      </trkpt>
      <trkpt lat="43.77414" lon="5.91364">
        <ele>464.89</ele>
        <time>2015-11-11T11:05:58Z</time>
      </trkpt>
      <trkpt lat="43.77411" lon="5.91339">
        <ele>463.25</ele>
        <time>2015-11-11T11:06:04Z</time>
      </trkpt>
      <trkpt lat="43.77405" lon="5.91314">
        <ele>462.29</ele>
        <time>2015-11-11T11:06:12Z</time>
      </trkpt>
      <trkpt lat="43.77398" lon="5.91289">
        <ele>462.66</ele>
        <time>2015-11-11T11:06:20Z</time>
      </trkpt>
      <trkpt lat="43.77387" lon="5.91269">
        <ele>473.63</ele>
        <time>2015-11-11T11:06:53Z</time>
      </trkpt>
      <trkpt lat="43.77378" lon="5.91246">
        <ele>477.15</ele>
        <time>2015-11-11T11:07:26Z</time>
      </trkpt>
      <trkpt lat="43.77373" lon="5.91223">
        <ele>477.8</ele>
        <time>2015-11-11T11:07:58Z</time>
      </trkpt>
      <trkpt lat="43.77365" lon="5.912">
        <ele>489.26</ele>
        <time>2015-11-11T11:08:52Z</time>
      </trkpt>
      <trkpt lat="43.77364" lon="5.91175">
        <ele>491.23</ele>
        <time>2015-11-11T11:09:19Z</time>
      </trkpt>
      <trkpt lat="43.77362" lon="5.9115">
        <ele>494.59</ele>
        <time>2015-11-11T11:09:29Z</time>
      </trkpt>
      <trkpt lat="43.7736" lon="5.91121">
        <ele>495.39</ele>
        <time>2015-11-11T11:09:37Z</time>
      </trkpt>
      <trkpt lat="43.77351" lon="5.91098">
        <ele>493.37</ele>
        <time>2015-11-11T11:09:42Z</time>
      </trkpt>
      <trkpt lat="43.7734" lon="5.91076">
        <ele>492.15</ele>
        <time>2015-11-11T11:09:47Z</time>
      </trkpt>
      <trkpt lat="43.77323" lon="5.91062">
        <ele>488.61</ele>
        <time>2015-11-11T11:09:50Z</time>
      </trkpt>
      <trkpt lat="43.77305" lon="5.91039">
        <ele>483.83</ele>
        <time>2015-11-11T11:09:54Z</time>
      </trkpt>
      <trkpt lat="43.77292" lon="5.91017">
        <ele>481.44</ele>
        <time>2015-11-11T11:09:57Z</time>
      </trkpt>
      <trkpt lat="43.77279" lon="5.90998">
        <ele>478.89</ele>
        <time>2015-11-11T11:10:00Z</time>
      </trkpt>
      <trkpt lat="43.77268" lon="5.90977">
        <ele>475.45</ele>
        <time>2015-11-11T11:10:03Z</time>
      </trkpt>
      <trkpt lat="43.77251" lon="5.90956">
        <ele>474.32</ele>
        <time>2015-11-11T11:10:07Z</time>
      </trkpt>
      <trkpt lat="43.77237" lon="5.90935">
        <ele>469.46</ele>
        <time>2015-11-11T11:10:12Z</time>
      </trkpt>
      <trkpt lat="43.77231" lon="5.90911">
        <ele>467.26</ele>
        <time>2015-11-11T11:10:16Z</time>
      </trkpt>
      <trkpt lat="43.77225" lon="5.90879">
        <ele>466.12</ele>
        <time>2015-11-11T11:10:20Z</time>
      </trkpt>
      <trkpt lat="43.77222" lon="5.90854">
        <ele>463.67</ele>
        <time>2015-11-11T11:10:24Z</time>
      </trkpt>
      <trkpt lat="43.77219" lon="5.90824">
        <ele>460.76</ele>
        <time>2015-11-11T11:10:29Z</time>
      </trkpt>
      <trkpt lat="43.77212" lon="5.908">
        <ele>454.02</ele>
        <time>2015-11-11T11:10:33Z</time>
      </trkpt>
      <trkpt lat="43.772" lon="5.90777">
        <ele>448.6</ele>
        <time>2015-11-11T11:10:37Z</time>
      </trkpt>
      <trkpt lat="43.77195" lon="5.90752">
        <ele>444.22</ele>
        <time>2015-11-11T11:10:42Z</time>
      </trkpt>
      <trkpt lat="43.77186" lon="5.90729">
        <ele>443.18</ele>
        <time>2015-11-11T11:10:46Z</time>
      </trkpt>
      <trkpt lat="43.77177" lon="5.90705">
        <ele>440.61</ele>
        <time>2015-11-11T11:10:50Z</time>
      </trkpt>
      <trkpt lat="43.77172" lon="5.9068">
        <ele>444.32</ele>
        <time>2015-11-11T11:10:57Z</time>
      </trkpt>
      <trkpt lat="43.77165" lon="5.90654">
        <ele>445.94</ele>
        <time>2015-11-11T11:11:05Z</time>
      </trkpt>
      <trkpt lat="43.7715" lon="5.90637">
        <ele>450.32</ele>
        <time>2015-11-11T11:11:13Z</time>
      </trkpt>
      <trkpt lat="43.77133" lon="5.90622">
        <ele>450.93</ele>
        <time>2015-11-11T11:11:17Z</time>
      </trkpt>
      <trkpt lat="43.77116" lon="5.90605">
        <ele>451.58</ele>
        <time>2015-11-11T11:11:22Z</time>
      </trkpt>
      <trkpt lat="43.77101" lon="5.9059">
        <ele>450.76</ele>
        <time>2015-11-11T11:11:26Z</time>
      </trkpt>
      <trkpt lat="43.77085" lon="5.90576">
        <ele>452.05</ele>
        <time>2015-11-11T11:11:32Z</time>
      </trkpt>
      <trkpt lat="43.7707" lon="5.90562">
        <ele>452.96</ele>
        <time>2015-11-11T11:11:41Z</time>
      </trkpt>
      <trkpt lat="43.77053" lon="5.90549">
        <ele>458.01</ele>
        <time>2015-11-11T11:11:50Z</time>
      </trkpt>
      <trkpt lat="43.77037" lon="5.90535">
        <ele>457.14</ele>
        <time>2015-11-11T11:12:04Z</time>
      </trkpt>
      <trkpt lat="43.77027" lon="5.90513">
        <ele>456.73</ele>
        <time>2015-11-11T11:12:32Z</time>
      </trkpt>
      <trkpt lat="43.77021" lon="5.90487">
        <ele>457.22</ele>
        <time>2015-11-11T11:13:06Z</time>
      </trkpt>
      <trkpt lat="43.77008" lon="5.90463">
        <ele>452.41</ele>
        <time>2015-11-11T11:13:13Z</time>
      </trkpt>
      <trkpt lat="43.76991" lon="5.9045">
        <ele>450.89</ele>
        <time>2015-11-11T11:13:16Z</time>
      </trkpt>
      <trkpt lat="43.76971" lon="5.90437">
        <ele>448.66</ele>
        <time>2015-11-11T11:13:20Z</time>
      </trkpt>
      <trkpt lat="43.76951" lon="5.90419">
        <ele>447.33</ele>
        <time>2015-11-11T11:13:24Z</time>
      </trkpt>
      <trkpt lat="43.76936" lon="5.90402">
        <ele>448</ele>
        <time>2015-11-11T11:13:27Z</time>
      </trkpt>
      <trkpt lat="43.76924" lon="5.9038">
        <ele>446.96</ele>
        <time>2015-11-11T11:13:30Z</time>
      </trkpt>
      <trkpt lat="43.7691" lon="5.90361">
        <ele>445.58</ele>
        <time>2015-11-11T11:13:33Z</time>
      </trkpt>
      <trkpt lat="43.76894" lon="5.9034">
        <ele>442.78</ele>
        <time>2015-11-11T11:13:36Z</time>
      </trkpt>
      <trkpt lat="43.76875" lon="5.90315">
        <ele>439.68</ele>
        <time>2015-11-11T11:13:39Z</time>
      </trkpt>
      <trkpt lat="43.7686" lon="5.90295">
        <ele>437.55</ele>
        <time>2015-11-11T11:13:42Z</time>
      </trkpt>
      <trkpt lat="43.76848" lon="5.90277">
        <ele>434.57</ele>
        <time>2015-11-11T11:13:44Z</time>
      </trkpt>
      <trkpt lat="43.76831" lon="5.90253">
        <ele>429.66</ele>
        <time>2015-11-11T11:13:47Z</time>
      </trkpt>
      <trkpt lat="43.76817" lon="5.90235">
        <ele>424.94</ele>
        <time>2015-11-11T11:13:52Z</time>
      </trkpt>
      <trkpt lat="43.76804" lon="5.90211">
        <ele>422.89</ele>
        <time>2015-11-11T11:13:57Z</time>
      </trkpt>
      <trkpt lat="43.76788" lon="5.90193">
        <ele>419.59</ele>
        <time>2015-11-11T11:14:01Z</time>
      </trkpt>
      <trkpt lat="43.76774" lon="5.9017">
        <ele>413.76</ele>
        <time>2015-11-11T11:14:05Z</time>
      </trkpt>
      <trkpt lat="43.76782" lon="5.90145">
        <ele>408.55</ele>
        <time>2015-11-11T11:14:22Z</time>
      </trkpt>
      <trkpt lat="43.76801" lon="5.90134">
        <ele>406.32</ele>
        <time>2015-11-11T11:14:26Z</time>
      </trkpt>
      <trkpt lat="43.76821" lon="5.90128">
        <ele>397.56</ele>
        <time>2015-11-11T11:14:34Z</time>
      </trkpt>
      <trkpt lat="43.7684" lon="5.90129">
        <ele>393.37</ele>
        <time>2015-11-11T11:14:40Z</time>
      </trkpt>
      <trkpt lat="43.76862" lon="5.90131">
        <ele>388.62</ele>
        <time>2015-11-11T11:14:45Z</time>
      </trkpt>
      <trkpt lat="43.76881" lon="5.90129">
        <ele>383.59</ele>
        <time>2015-11-11T11:14:55Z</time>
      </trkpt>
      <trkpt lat="43.76899" lon="5.90139">
        <ele>377.09</ele>
        <time>2015-11-11T11:15:04Z</time>
      </trkpt>
      <trkpt lat="43.76903" lon="5.90114">
        <ele>370.29</ele>
        <time>2015-11-11T11:15:12Z</time>
      </trkpt>
      <trkpt lat="43.7692" lon="5.90099">
        <ele>362.22</ele>
        <time>2015-11-11T11:15:30Z</time>
      </trkpt>
      <trkpt lat="43.76933" lon="5.9007">
        <ele>361.8</ele>
        <time>2015-11-11T11:15:35Z</time>
      </trkpt>
      <trkpt lat="43.76949" lon="5.90054">
        <ele>357</ele>
        <time>2015-11-11T11:15:43Z</time>
      </trkpt>
      <trkpt lat="43.76969" lon="5.90069">
        <ele>355.89</ele>
        <time>2015-11-11T11:15:48Z</time>
      </trkpt>
      <trkpt lat="43.76986" lon="5.9008">
        <ele>355.97</ele>
        <time>2015-11-11T11:15:52Z</time>
      </trkpt>
      <trkpt lat="43.77005" lon="5.9009">
        <ele>355.03</ele>
        <time>2015-11-11T11:15:58Z</time>
      </trkpt>
      <trkpt lat="43.77022" lon="5.90104">
        <ele>354.74</ele>
        <time>2015-11-11T11:16:03Z</time>
      </trkpt>
      <trkpt lat="43.77041" lon="5.90114">
        <ele>356.82</ele>
        <time>2015-11-11T11:16:08Z</time>
      </trkpt>
      <trkpt lat="43.77061" lon="5.90127">
        <ele>357.82</ele>
        <time>2015-11-11T11:16:13Z</time>
      </trkpt>
      <trkpt lat="43.7708" lon="5.90144">
        <ele>357.1</ele>
        <time>2015-11-11T11:16:18Z</time>
      </trkpt>
      <trkpt lat="43.77078" lon="5.90116">
        <ele>353.36</ele>
        <time>2015-11-11T11:16:25Z</time>
      </trkpt>
      <trkpt lat="43.77068" lon="5.90088">
        <ele>350.06</ele>
        <time>2015-11-11T11:16:29Z</time>
      </trkpt>
      <trkpt lat="43.7705" lon="5.90071">
        <ele>349.36</ele>
        <time>2015-11-11T11:16:34Z</time>
      </trkpt>
      <trkpt lat="43.7703" lon="5.90063">
        <ele>349.87</ele>
        <time>2015-11-11T11:16:39Z</time>
      </trkpt>
      <trkpt lat="43.77007" lon="5.90053">
        <ele>350.04</ele>
        <time>2015-11-11T11:16:44Z</time>
      </trkpt>
      <trkpt lat="43.76989" lon="5.9004">
        <ele>350.35</ele>
        <time>2015-11-11T11:16:48Z</time>
      </trkpt>
      <trkpt lat="43.76972" lon="5.90025">
        <ele>351.25</ele>
        <time>2015-11-11T11:16:53Z</time>
      </trkpt>
      <trkpt lat="43.76954" lon="5.90009">
        <ele>350.59</ele>
        <time>2015-11-11T11:17:01Z</time>
      </trkpt>
      <trkpt lat="43.7694" lon="5.89992">
        <ele>355.85</ele>
        <time>2015-11-11T11:17:08Z</time>
      </trkpt>
      <trkpt lat="43.7692" lon="5.89983">
        <ele>355.53</ele>
        <time>2015-11-11T11:17:12Z</time>
      </trkpt>
      <trkpt lat="43.76899" lon="5.89969">
        <ele>353.45</ele>
        <time>2015-11-11T11:17:16Z</time>
      </trkpt>
      <trkpt lat="43.76878" lon="5.89956">
        <ele>352.82</ele>
        <time>2015-11-11T11:17:20Z</time>
      </trkpt>
      <trkpt lat="43.7685" lon="5.89941">
        <ele>352.53</ele>
        <time>2015-11-11T11:17:24Z</time>
      </trkpt>
      <trkpt lat="43.76834" lon="5.89929">
        <ele>342.28</ele>
        <time>2015-11-11T11:17:27Z</time>
      </trkpt>
      <trkpt lat="43.76841" lon="5.89905">
        <ele>334.31</ele>
        <time>2015-11-11T11:17:33Z</time>
      </trkpt>
      <trkpt lat="43.76859" lon="5.89887">
        <ele>331.62</ele>
        <time>2015-11-11T11:17:36Z</time>
      </trkpt>
      <trkpt lat="43.76866" lon="5.89856">
        <ele>331.79</ele>
        <time>2015-11-11T11:17:39Z</time>
      </trkpt>
      <trkpt lat="43.76867" lon="5.89822">
        <ele>332.69</ele>
        <time>2015-11-11T11:17:42Z</time>
      </trkpt>
      <trkpt lat="43.76868" lon="5.89791">
        <ele>330.05</ele>
        <time>2015-11-11T11:17:45Z</time>
      </trkpt>
      <trkpt lat="43.76872" lon="5.89762">
        <ele>330.09</ele>
        <time>2015-11-11T11:17:48Z</time>
      </trkpt>
      <trkpt lat="43.76865" lon="5.89738">
        <ele>332.35</ele>
        <time>2015-11-11T11:17:51Z</time>
      </trkpt>
      <trkpt lat="43.76854" lon="5.8971">
        <ele>332.25</ele>
        <time>2015-11-11T11:17:55Z</time>
      </trkpt>
      <trkpt lat="43.76842" lon="5.89689">
        <ele>331.37</ele>
        <time>2015-11-11T11:17:58Z</time>
      </trkpt>
      <trkpt lat="43.76841" lon="5.89663">
        <ele>335.28</ele>
        <time>2015-11-11T11:18:06Z</time>
      </trkpt>
      <trkpt lat="43.76861" lon="5.89663">
        <ele>331.11</ele>
        <time>2015-11-11T11:18:13Z</time>
      </trkpt>
      <trkpt lat="43.76876" lon="5.89678">
        <ele>332.58</ele>
        <time>2015-11-11T11:18:18Z</time>
      </trkpt>
      <trkpt lat="43.76894" lon="5.89677">
        <ele>331.88</ele>
        <time>2015-11-11T11:18:23Z</time>
      </trkpt>
      <trkpt lat="43.76908" lon="5.89659">
        <ele>330.86</ele>
        <time>2015-11-11T11:18:30Z</time>
      </trkpt>
      <trkpt lat="43.76921" lon="5.89641">
        <ele>337.88</ele>
        <time>2015-11-11T11:18:40Z</time>
      </trkpt>
      <trkpt lat="43.76934" lon="5.89622">
        <ele>340.31</ele>
        <time>2015-11-11T11:18:52Z</time>
      </trkpt>
      <trkpt lat="43.76948" lon="5.89603">
        <ele>344.72</ele>
        <time>2015-11-11T11:19:06Z</time>
      </trkpt>
      <trkpt lat="43.76966" lon="5.896">
        <ele>345.4</ele>
        <time>2015-11-11T11:19:20Z</time>
      </trkpt>
      <trkpt lat="43.76982" lon="5.89624">
        <ele>344.31</ele>
        <time>2015-11-11T11:19:26Z</time>
      </trkpt>
      <trkpt lat="43.76995" lon="5.89644">
        <ele>343.62</ele>
        <time>2015-11-11T11:19:30Z</time>
      </trkpt>
      <trkpt lat="43.77011" lon="5.89664">
        <ele>344.07</ele>
        <time>2015-11-11T11:19:35Z</time>
      </trkpt>
      <trkpt lat="43.77025" lon="5.89686">
        <ele>343.97</ele>
        <time>2015-11-11T11:19:41Z</time>
      </trkpt>
      <trkpt lat="43.77042" lon="5.89703">
        <ele>343.21</ele>
        <time>2015-11-11T11:19:47Z</time>
      </trkpt>
      <trkpt lat="43.77058" lon="5.89718">
        <ele>345.8</ele>
        <time>2015-11-11T11:19:53Z</time>
      </trkpt>
      <trkpt lat="43.77076" lon="5.89729">
        <ele>345.27</ele>
        <time>2015-11-11T11:19:59Z</time>
      </trkpt>
      <trkpt lat="43.77092" lon="5.89744">
        <ele>346.4</ele>
        <time>2015-11-11T11:20:05Z</time>
      </trkpt>
      <trkpt lat="43.77109" lon="5.89756">
        <ele>346.62</ele>
        <time>2015-11-11T11:20:13Z</time>
      </trkpt>
      <trkpt lat="43.77126" lon="5.89772">
        <ele>345.5</ele>
        <time>2015-11-11T11:20:20Z</time>
      </trkpt>
      <trkpt lat="43.77141" lon="5.89786">
        <ele>345.24</ele>
        <time>2015-11-11T11:20:27Z</time>
      </trkpt>
      <trkpt lat="43.77157" lon="5.898">
        <ele>347.28</ele>
        <time>2015-11-11T11:20:34Z</time>
      </trkpt>
      <trkpt lat="43.77173" lon="5.89818">
        <ele>349.95</ele>
        <time>2015-11-11T11:20:42Z</time>
      </trkpt>
      <trkpt lat="43.77189" lon="5.8983">
        <ele>349.07</ele>
        <time>2015-11-11T11:20:50Z</time>
      </trkpt>
      <trkpt lat="43.77205" lon="5.89844">
        <ele>350.58</ele>
        <time>2015-11-11T11:20:58Z</time>
      </trkpt>
      <trkpt lat="43.7722" lon="5.89861">
        <ele>351.65</ele>
        <time>2015-11-11T11:21:06Z</time>
      </trkpt>
      <trkpt lat="43.77239" lon="5.89855">
        <ele>349.27</ele>
        <time>2015-11-11T11:21:21Z</time>
      </trkpt>
      <trkpt lat="43.77255" lon="5.8984">
        <ele>351.59</ele>
        <time>2015-11-11T11:21:32Z</time>
      </trkpt>
      <trkpt lat="43.77267" lon="5.8982">
        <ele>354.04</ele>
        <time>2015-11-11T11:21:43Z</time>
      </trkpt>
      <trkpt lat="43.77281" lon="5.89803">
        <ele>357.66</ele>
        <time>2015-11-11T11:21:53Z</time>
      </trkpt>
      <trkpt lat="43.77295" lon="5.89788">
        <ele>361.04</ele>
        <time>2015-11-11T11:22:02Z</time>
      </trkpt>
      <trkpt lat="43.77311" lon="5.89772">
        <ele>362.3</ele>
        <time>2015-11-11T11:22:13Z</time>
      </trkpt>
      <trkpt lat="43.77326" lon="5.89756">
        <ele>363.88</ele>
        <time>2015-11-11T11:22:24Z</time>
      </trkpt>
      <trkpt lat="43.7734" lon="5.89738">
        <ele>363.24</ele>
        <time>2015-11-11T11:22:33Z</time>
      </trkpt>
      <trkpt lat="43.77353" lon="5.8972">
        <ele>369.36</ele>
        <time>2015-11-11T11:22:42Z</time>
      </trkpt>
      <trkpt lat="43.77368" lon="5.89704">
        <ele>370.98</ele>
        <time>2015-11-11T11:22:52Z</time>
      </trkpt>
      <trkpt lat="43.77382" lon="5.89686">
        <ele>371.14</ele>
        <time>2015-11-11T11:23:02Z</time>
      </trkpt>
      <trkpt lat="43.77398" lon="5.89669">
        <ele>374.39</ele>
        <time>2015-11-11T11:23:12Z</time>
      </trkpt>
      <trkpt lat="43.77415" lon="5.89657">
        <ele>374.47</ele>
        <time>2015-11-11T11:23:21Z</time>
      </trkpt>
      <trkpt lat="43.77432" lon="5.89649">
        <ele>374.5</ele>
        <time>2015-11-11T11:23:30Z</time>
      </trkpt>
      <trkpt lat="43.77451" lon="5.89645">
        <ele>375.29</ele>
        <time>2015-11-11T11:23:40Z</time>
      </trkpt>
      <trkpt lat="43.7747" lon="5.8964">
        <ele>379.85</ele>
        <time>2015-11-11T11:23:50Z</time>
      </trkpt>
      <trkpt lat="43.77487" lon="5.89627">
        <ele>377.07</ele>
        <time>2015-11-11T11:23:59Z</time>
      </trkpt>
      <trkpt lat="43.77503" lon="5.89613">
        <ele>378.52</ele>
        <time>2015-11-11T11:24:08Z</time>
      </trkpt>
      <trkpt lat="43.7752" lon="5.896">
        <ele>379.68</ele>
        <time>2015-11-11T11:24:17Z</time>
      </trkpt>
      <trkpt lat="43.77536" lon="5.89587">
        <ele>379.62</ele>
        <time>2015-11-11T11:24:26Z</time>
      </trkpt>
      <trkpt lat="43.77552" lon="5.89574">
        <ele>378.13</ele>
        <time>2015-11-11T11:24:35Z</time>
      </trkpt>
      <trkpt lat="43.77568" lon="5.8956">
        <ele>378.24</ele>
        <time>2015-11-11T11:24:46Z</time>
      </trkpt>
      <trkpt lat="43.77586" lon="5.8955">
        <ele>381.05</ele>
        <time>2015-11-11T11:24:57Z</time>
      </trkpt>
      <trkpt lat="43.77602" lon="5.89539">
        <ele>383.57</ele>
        <time>2015-11-11T11:25:07Z</time>
      </trkpt>
      <trkpt lat="43.77618" lon="5.89527">
        <ele>385.68</ele>
        <time>2015-11-11T11:25:16Z</time>
      </trkpt>
      <trkpt lat="43.77634" lon="5.89515">
        <ele>386.73</ele>
        <time>2015-11-11T11:25:25Z</time>
      </trkpt>
      <trkpt lat="43.7765" lon="5.89502">
        <ele>388.8</ele>
        <time>2015-11-11T11:25:35Z</time>
      </trkpt>
      <trkpt lat="43.77666" lon="5.89488">
        <ele>390.2</ele>
        <time>2015-11-11T11:25:44Z</time>
      </trkpt>
      <trkpt lat="43.77683" lon="5.89477">
        <ele>389.24</ele>
        <time>2015-11-11T11:25:53Z</time>
      </trkpt>
      <trkpt lat="43.77702" lon="5.89474">
        <ele>387.22</ele>
        <time>2015-11-11T11:26:02Z</time>
      </trkpt>
      <trkpt lat="43.77721" lon="5.89477">
        <ele>383.97</ele>
        <time>2015-11-11T11:26:11Z</time>
      </trkpt>
      <trkpt lat="43.77739" lon="5.89477">
        <ele>386.92</ele>
        <time>2015-11-11T11:26:21Z</time>
      </trkpt>
      <trkpt lat="43.77759" lon="5.89474">
        <ele>391.6</ele>
        <time>2015-11-11T11:26:32Z</time>
      </trkpt>
      <trkpt lat="43.77778" lon="5.89471">
        <ele>393.75</ele>
        <time>2015-11-11T11:26:43Z</time>
      </trkpt>
      <trkpt lat="43.77796" lon="5.89467">
        <ele>396.49</ele>
        <time>2015-11-11T11:26:53Z</time>
      </trkpt>
      <trkpt lat="43.77814" lon="5.89461">
        <ele>400.04</ele>
        <time>2015-11-11T11:27:01Z</time>
      </trkpt>
      <trkpt lat="43.77835" lon="5.89459">
        <ele>401.77</ele>
        <time>2015-11-11T11:27:09Z</time>
      </trkpt>
      <trkpt lat="43.77855" lon="5.89456">
        <ele>398.46</ele>
        <time>2015-11-11T11:27:16Z</time>
      </trkpt>
      <trkpt lat="43.77874" lon="5.89454">
        <ele>397.08</ele>
        <time>2015-11-11T11:27:23Z</time>
      </trkpt>
      <trkpt lat="43.77894" lon="5.89454">
        <ele>397.15</ele>
        <time>2015-11-11T11:27:30Z</time>
      </trkpt>
      <trkpt lat="43.77914" lon="5.89455">
        <ele>400.14</ele>
        <time>2015-11-11T11:27:38Z</time>
      </trkpt>
      <trkpt lat="43.77932" lon="5.89455">
        <ele>402.64</ele>
        <time>2015-11-11T11:27:46Z</time>
      </trkpt>
      <trkpt lat="43.77951" lon="5.8946">
        <ele>405.09</ele>
        <time>2015-11-11T11:27:55Z</time>
      </trkpt>
      <trkpt lat="43.77969" lon="5.89466">
        <ele>402.21</ele>
        <time>2015-11-11T11:28:04Z</time>
      </trkpt>
      <trkpt lat="43.77987" lon="5.89475">
        <ele>402.48</ele>
        <time>2015-11-11T11:28:13Z</time>
      </trkpt>
      <trkpt lat="43.78005" lon="5.8948">
        <ele>406.11</ele>
        <time>2015-11-11T11:28:23Z</time>
      </trkpt>
      <trkpt lat="43.78024" lon="5.89484">
        <ele>411.97</ele>
        <time>2015-11-11T11:28:34Z</time>
      </trkpt>
      <trkpt lat="43.78044" lon="5.89489">
        <ele>414.72</ele>
        <time>2015-11-11T11:28:44Z</time>
      </trkpt>
      <trkpt lat="43.78063" lon="5.89492">
        <ele>415.79</ele>
        <time>2015-11-11T11:28:53Z</time>
      </trkpt>
      <trkpt lat="43.78082" lon="5.89494">
        <ele>416.44</ele>
        <time>2015-11-11T11:29:02Z</time>
      </trkpt>
      <trkpt lat="43.78101" lon="5.89497">
        <ele>415.38</ele>
        <time>2015-11-11T11:29:11Z</time>
      </trkpt>
      <trkpt lat="43.7812" lon="5.89503">
        <ele>415.24</ele>
        <time>2015-11-11T11:29:20Z</time>
      </trkpt>
      <trkpt lat="43.78139" lon="5.89508">
        <ele>417.54</ele>
        <time>2015-11-11T11:29:30Z</time>
      </trkpt>
      <trkpt lat="43.78157" lon="5.89516">
        <ele>414.59</ele>
        <time>2015-11-11T11:29:40Z</time>
      </trkpt>
      <trkpt lat="43.78175" lon="5.89525">
        <ele>418.94</ele>
        <time>2015-11-11T11:29:49Z</time>
      </trkpt>
      <trkpt lat="43.78192" lon="5.89532">
        <ele>419.31</ele>
        <time>2015-11-11T11:29:58Z</time>
      </trkpt>
      <trkpt lat="43.78211" lon="5.89537">
        <ele>417.11</ele>
        <time>2015-11-11T11:30:08Z</time>
      </trkpt>
      <trkpt lat="43.78229" lon="5.89545">
        <ele>420.27</ele>
        <time>2015-11-11T11:30:18Z</time>
      </trkpt>
      <trkpt lat="43.78245" lon="5.89559">
        <ele>425.33</ele>
        <time>2015-11-11T11:30:28Z</time>
      </trkpt>
      <trkpt lat="43.78258" lon="5.89577">
        <ele>429.65</ele>
        <time>2015-11-11T11:30:37Z</time>
      </trkpt>
      <trkpt lat="43.78271" lon="5.89596">
        <ele>431.24</ele>
        <time>2015-11-11T11:30:47Z</time>
      </trkpt>
      <trkpt lat="43.78285" lon="5.89614">
        <ele>430.62</ele>
        <time>2015-11-11T11:30:58Z</time>
      </trkpt>
      <trkpt lat="43.78298" lon="5.89631">
        <ele>429.65</ele>
        <time>2015-11-11T11:31:08Z</time>
      </trkpt>
      <trkpt lat="43.78311" lon="5.8965">
        <ele>433.23</ele>
        <time>2015-11-11T11:31:18Z</time>
      </trkpt>
      <trkpt lat="43.78326" lon="5.89668">
        <ele>428.62</ele>
        <time>2015-11-11T11:31:28Z</time>
      </trkpt>
      <trkpt lat="43.78342" lon="5.89683">
        <ele>430.75</ele>
        <time>2015-11-11T11:31:39Z</time>
      </trkpt>
      <trkpt lat="43.7836" lon="5.89693">
        <ele>431.89</ele>
        <time>2015-11-11T11:31:51Z</time>
      </trkpt>
      <trkpt lat="43.78378" lon="5.89703">
        <ele>436.32</ele>
        <time>2015-11-11T11:32:03Z</time>
      </trkpt>
      <trkpt lat="43.78396" lon="5.89707">
        <ele>437.34</ele>
        <time>2015-11-11T11:32:14Z</time>
      </trkpt>
      <trkpt lat="43.78412" lon="5.89719">
        <ele>442.1</ele>
        <time>2015-11-11T11:32:25Z</time>
      </trkpt>
      <trkpt lat="43.78427" lon="5.89734">
        <ele>441.99</ele>
        <time>2015-11-11T11:32:35Z</time>
      </trkpt>
      <trkpt lat="43.78444" lon="5.89749">
        <ele>440.86</ele>
        <time>2015-11-11T11:32:46Z</time>
      </trkpt>
      <trkpt lat="43.78458" lon="5.89767">
        <ele>444.68</ele>
        <time>2015-11-11T11:32:58Z</time>
      </trkpt>
      <trkpt lat="43.7847" lon="5.89785">
        <ele>446.69</ele>
        <time>2015-11-11T11:33:09Z</time>
      </trkpt>
      <trkpt lat="43.78479" lon="5.8981">
        <ele>445.82</ele>
        <time>2015-11-11T11:33:20Z</time>
      </trkpt>
      <trkpt lat="43.78487" lon="5.89833">
        <ele>443.12</ele>
        <time>2015-11-11T11:33:34Z</time>
      </trkpt>
      <trkpt lat="43.78496" lon="5.89855">
        <ele>443.54</ele>
        <time>2015-11-11T11:33:43Z</time>
      </trkpt>
      <trkpt lat="43.78506" lon="5.89876">
        <ele>447.07</ele>
        <time>2015-11-11T11:33:55Z</time>
      </trkpt>
      <trkpt lat="43.78518" lon="5.89896">
        <ele>452.03</ele>
        <time>2015-11-11T11:34:15Z</time>
      </trkpt>
      <trkpt lat="43.78531" lon="5.89916">
        <ele>453.4</ele>
        <time>2015-11-11T11:34:31Z</time>
      </trkpt>
      <trkpt lat="43.78544" lon="5.89934">
        <ele>460.93</ele>
        <time>2015-11-11T11:34:44Z</time>
      </trkpt>
      <trkpt lat="43.78555" lon="5.89954">
        <ele>465.31</ele>
        <time>2015-11-11T11:34:57Z</time>
      </trkpt>
      <trkpt lat="43.78566" lon="5.89975">
        <ele>464.42</ele>
        <time>2015-11-11T11:35:12Z</time>
      </trkpt>
      <trkpt lat="43.78577" lon="5.89994">
        <ele>463.88</ele>
        <time>2015-11-11T11:35:26Z</time>
      </trkpt>
      <trkpt lat="43.78592" lon="5.90009">
        <ele>464.41</ele>
        <time>2015-11-11T11:35:55Z</time>
      </trkpt>
      <trkpt lat="43.78608" lon="5.90023">
        <ele>474.54</ele>
        <time>2015-11-11T11:37:32Z</time>
      </trkpt>
      <trkpt lat="43.78621" lon="5.9004">
        <ele>476.58</ele>
        <time>2015-11-11T11:37:44Z</time>
      </trkpt>
      <trkpt lat="43.78638" lon="5.9005">
        <ele>481.28</ele>
        <time>2015-11-11T11:38:08Z</time>
      </trkpt>
      <trkpt lat="43.78657" lon="5.90054">
        <ele>479.65</ele>
        <time>2015-11-11T11:38:35Z</time>
      </trkpt>
      <trkpt lat="43.78674" lon="5.90062">
        <ele>484.79</ele>
        <time>2015-11-11T11:38:58Z</time>
      </trkpt>
      <trkpt lat="43.78691" lon="5.90072">
        <ele>487.5</ele>
        <time>2015-11-11T11:39:35Z</time>
      </trkpt>
      <trkpt lat="43.78707" lon="5.90083">
        <ele>491.62</ele>
        <time>2015-11-11T11:40:00Z</time>
      </trkpt>
      <trkpt lat="43.78719" lon="5.90104">
        <ele>493.77</ele>
        <time>2015-11-11T11:40:30Z</time>
      </trkpt>
      <trkpt lat="43.78731" lon="5.90124">
        <ele>500.15</ele>
        <time>2015-11-11T11:40:54Z</time>
      </trkpt>
      <trkpt lat="43.78742" lon="5.90144">
        <ele>505.22</ele>
        <time>2015-11-11T11:41:11Z</time>
      </trkpt>
      <trkpt lat="43.78754" lon="5.90165">
        <ele>506.75</ele>
        <time>2015-11-11T11:41:26Z</time>
      </trkpt>
      <trkpt lat="43.78767" lon="5.90182">
        <ele>508.21</ele>
        <time>2015-11-11T11:43:53Z</time>
      </trkpt>
      <trkpt lat="43.78782" lon="5.90204">
        <ele>505.27</ele>
        <time>2015-11-11T11:44:47Z</time>
      </trkpt>
      <trkpt lat="43.78798" lon="5.90219">
        <ele>504.37</ele>
        <time>2015-11-11T11:44:51Z</time>
      </trkpt>
      <trkpt lat="43.78817" lon="5.90227">
        <ele>502.78</ele>
        <time>2015-11-11T11:44:56Z</time>
      </trkpt>
      <trkpt lat="43.78836" lon="5.90238">
        <ele>502.29</ele>
        <time>2015-11-11T11:45:01Z</time>
      </trkpt>
      <trkpt lat="43.78856" lon="5.90235">
        <ele>501.74</ele>
        <time>2015-11-11T11:45:06Z</time>
      </trkpt>
      <trkpt lat="43.78869" lon="5.90216">
        <ele>501.38</ele>
        <time>2015-11-11T11:45:11Z</time>
      </trkpt>
      <trkpt lat="43.78882" lon="5.90197">
        <ele>500.5</ele>
        <time>2015-11-11T11:45:15Z</time>
      </trkpt>
      <trkpt lat="43.78897" lon="5.90181">
        <ele>500.52</ele>
        <time>2015-11-11T11:45:18Z</time>
      </trkpt>
      <trkpt lat="43.78916" lon="5.90166">
        <ele>499.53</ele>
        <time>2015-11-11T11:45:21Z</time>
      </trkpt>
      <trkpt lat="43.78927" lon="5.90143">
        <ele>497.78</ele>
        <time>2015-11-11T11:45:24Z</time>
      </trkpt>
      <trkpt lat="43.78925" lon="5.90116">
        <ele>499.85</ele>
        <time>2015-11-11T11:45:29Z</time>
      </trkpt>
      <trkpt lat="43.78922" lon="5.9009">
        <ele>501.92</ele>
        <time>2015-11-11T11:45:35Z</time>
      </trkpt>
      <trkpt lat="43.78928" lon="5.90065">
        <ele>502.89</ele>
        <time>2015-11-11T11:45:40Z</time>
      </trkpt>
      <trkpt lat="43.78942" lon="5.90042">
        <ele>503.7</ele>
        <time>2015-11-11T11:45:45Z</time>
      </trkpt>
      <trkpt lat="43.78949" lon="5.90019">
        <ele>502.27</ele>
        <time>2015-11-11T11:45:49Z</time>
      </trkpt>
      <trkpt lat="43.78953" lon="5.89991">
        <ele>502.18</ele>
        <time>2015-11-11T11:45:55Z</time>
      </trkpt>
      <trkpt lat="43.78959" lon="5.89966">
        <ele>503.18</ele>
        <time>2015-11-11T11:46:01Z</time>
      </trkpt>
      <trkpt lat="43.78971" lon="5.89945">
        <ele>504.62</ele>
        <time>2015-11-11T11:46:07Z</time>
      </trkpt>
      <trkpt lat="43.78981" lon="5.89924">
        <ele>505.2</ele>
        <time>2015-11-11T11:46:13Z</time>
      </trkpt>
      <trkpt lat="43.78969" lon="5.89902">
        <ele>503.41</ele>
        <time>2015-11-11T11:46:19Z</time>
      </trkpt>
      <trkpt lat="43.78957" lon="5.89882">
        <ele>502.5</ele>
        <time>2015-11-11T11:46:24Z</time>
      </trkpt>
      <trkpt lat="43.78944" lon="5.89858">
        <ele>502.97</ele>
        <time>2015-11-11T11:46:29Z</time>
      </trkpt>
      <trkpt lat="43.78929" lon="5.89836">
        <ele>504.11</ele>
        <time>2015-11-11T11:46:34Z</time>
      </trkpt>
      <trkpt lat="43.78916" lon="5.89813">
        <ele>504.58</ele>
        <time>2015-11-11T11:46:39Z</time>
      </trkpt>
      <trkpt lat="43.78909" lon="5.89787">
        <ele>503.75</ele>
        <time>2015-11-11T11:46:44Z</time>
      </trkpt>
      <trkpt lat="43.78905" lon="5.89757">
        <ele>503.02</ele>
        <time>2015-11-11T11:46:48Z</time>
      </trkpt>
      <trkpt lat="43.78901" lon="5.8973">
        <ele>502.46</ele>
        <time>2015-11-11T11:46:51Z</time>
      </trkpt>
      <trkpt lat="43.78893" lon="5.89704">
        <ele>501.52</ele>
        <time>2015-11-11T11:46:54Z</time>
      </trkpt>
      <trkpt lat="43.78881" lon="5.89675">
        <ele>501.13</ele>
        <time>2015-11-11T11:46:58Z</time>
      </trkpt>
      <trkpt lat="43.78867" lon="5.89657">
        <ele>498.98</ele>
        <time>2015-11-11T11:47:01Z</time>
      </trkpt>
      <trkpt lat="43.78849" lon="5.89642">
        <ele>498.29</ele>
        <time>2015-11-11T11:47:05Z</time>
      </trkpt>
      <trkpt lat="43.78833" lon="5.89631">
        <ele>498.25</ele>
        <time>2015-11-11T11:47:08Z</time>
      </trkpt>
      <trkpt lat="43.78816" lon="5.89617">
        <ele>497.87</ele>
        <time>2015-11-11T11:47:11Z</time>
      </trkpt>
      <trkpt lat="43.78798" lon="5.89601">
        <ele>498.95</ele>
        <time>2015-11-11T11:47:14Z</time>
      </trkpt>
      <trkpt lat="43.78782" lon="5.89586">
        <ele>499.2</ele>
        <time>2015-11-11T11:47:17Z</time>
      </trkpt>
      <trkpt lat="43.78761" lon="5.89574">
        <ele>500.61</ele>
        <time>2015-11-11T11:47:21Z</time>
      </trkpt>
      <trkpt lat="43.7874" lon="5.89566">
        <ele>501.22</ele>
        <time>2015-11-11T11:47:26Z</time>
      </trkpt>
      <trkpt lat="43.78723" lon="5.89553">
        <ele>501.49</ele>
        <time>2015-11-11T11:47:31Z</time>
      </trkpt>
      <trkpt lat="43.78707" lon="5.89536">
        <ele>502.22</ele>
        <time>2015-11-11T11:47:36Z</time>
      </trkpt>
      <trkpt lat="43.7869" lon="5.89515">
        <ele>501.43</ele>
        <time>2015-11-11T11:47:41Z</time>
      </trkpt>
      <trkpt lat="43.78675" lon="5.89493">
        <ele>499.57</ele>
        <time>2015-11-11T11:47:45Z</time>
      </trkpt>
      <trkpt lat="43.78659" lon="5.89474">
        <ele>498.53</ele>
        <time>2015-11-11T11:47:48Z</time>
      </trkpt>
      <trkpt lat="43.78643" lon="5.89458">
        <ele>498.78</ele>
        <time>2015-11-11T11:47:51Z</time>
      </trkpt>
      <trkpt lat="43.78625" lon="5.8944">
        <ele>499.96</ele>
        <time>2015-11-11T11:47:55Z</time>
      </trkpt>
      <trkpt lat="43.78611" lon="5.89422">
        <ele>499.85</ele>
        <time>2015-11-11T11:47:59Z</time>
      </trkpt>
      <trkpt lat="43.78598" lon="5.89398">
        <ele>498.79</ele>
        <time>2015-11-11T11:48:04Z</time>
      </trkpt>
      <trkpt lat="43.78591" lon="5.89373">
        <ele>499.21</ele>
        <time>2015-11-11T11:48:08Z</time>
      </trkpt>
      <trkpt lat="43.78589" lon="5.8934">
        <ele>497.62</ele>
        <time>2015-11-11T11:48:12Z</time>
      </trkpt>
      <trkpt lat="43.78585" lon="5.89311">
        <ele>496.16</ele>
        <time>2015-11-11T11:48:15Z</time>
      </trkpt>
      <trkpt lat="43.78577" lon="5.89284">
        <ele>494.36</ele>
        <time>2015-11-11T11:48:18Z</time>
      </trkpt>
      <trkpt lat="43.78561" lon="5.8926">
        <ele>494.01</ele>
        <time>2015-11-11T11:48:21Z</time>
      </trkpt>
      <trkpt lat="43.78544" lon="5.89242">
        <ele>494.21</ele>
        <time>2015-11-11T11:48:24Z</time>
      </trkpt>
      <trkpt lat="43.78528" lon="5.89229">
        <ele>493.36</ele>
        <time>2015-11-11T11:48:27Z</time>
      </trkpt>
      <trkpt lat="43.78512" lon="5.89214">
        <ele>492.01</ele>
        <time>2015-11-11T11:48:30Z</time>
      </trkpt>
      <trkpt lat="43.78493" lon="5.89198">
        <ele>494.54</ele>
        <time>2015-11-11T11:48:34Z</time>
      </trkpt>
      <trkpt lat="43.78475" lon="5.89178">
        <ele>495.07</ele>
        <time>2015-11-11T11:48:38Z</time>
      </trkpt>
      <trkpt lat="43.78457" lon="5.89155">
        <ele>495.86</ele>
        <time>2015-11-11T11:48:42Z</time>
      </trkpt>
      <trkpt lat="43.7844" lon="5.8914">
        <ele>495.82</ele>
        <time>2015-11-11T11:48:45Z</time>
      </trkpt>
      <trkpt lat="43.78425" lon="5.8912">
        <ele>494.94</ele>
        <time>2015-11-11T11:48:48Z</time>
      </trkpt>
      <trkpt lat="43.78415" lon="5.89095">
        <ele>494.83</ele>
        <time>2015-11-11T11:48:51Z</time>
      </trkpt>
      <trkpt lat="43.78409" lon="5.89068">
        <ele>495.57</ele>
        <time>2015-11-11T11:48:54Z</time>
      </trkpt>
      <trkpt lat="43.7841" lon="5.89042">
        <ele>496.16</ele>
        <time>2015-11-11T11:48:57Z</time>
      </trkpt>
      <trkpt lat="43.78415" lon="5.89011">
        <ele>495.74</ele>
        <time>2015-11-11T11:49:01Z</time>
      </trkpt>
      <trkpt lat="43.78424" lon="5.88984">
        <ele>495.65</ele>
        <time>2015-11-11T11:49:05Z</time>
      </trkpt>
      <trkpt lat="43.78424" lon="5.88955">
        <ele>496.02</ele>
        <time>2015-11-11T11:49:09Z</time>
      </trkpt>
      <trkpt lat="43.78421" lon="5.8893">
        <ele>495.42</ele>
        <time>2015-11-11T11:49:13Z</time>
      </trkpt>
      <trkpt lat="43.78418" lon="5.88902">
        <ele>495.19</ele>
        <time>2015-11-11T11:49:17Z</time>
      </trkpt>
      <trkpt lat="43.78417" lon="5.88871">
        <ele>493.11</ele>
        <time>2015-11-11T11:49:21Z</time>
      </trkpt>
      <trkpt lat="43.78416" lon="5.88845">
        <ele>493.67</ele>
        <time>2015-11-11T11:49:25Z</time>
      </trkpt>
      <trkpt lat="43.78416" lon="5.88814">
        <ele>493.26</ele>
        <time>2015-11-11T11:49:30Z</time>
      </trkpt>
      <trkpt lat="43.78416" lon="5.88789">
        <ele>493.12</ele>
        <time>2015-11-11T11:49:33Z</time>
      </trkpt>
      <trkpt lat="43.78417" lon="5.88761">
        <ele>492.35</ele>
        <time>2015-11-11T11:49:36Z</time>
      </trkpt>
      <trkpt lat="43.78419" lon="5.88732">
        <ele>493.13</ele>
        <time>2015-11-11T11:49:39Z</time>
      </trkpt>
      <trkpt lat="43.78418" lon="5.88707">
        <ele>492.85</ele>
        <time>2015-11-11T11:49:42Z</time>
      </trkpt>
      <trkpt lat="43.78416" lon="5.88676">
        <ele>494.72</ele>
        <time>2015-11-11T11:49:46Z</time>
      </trkpt>
      <trkpt lat="43.78413" lon="5.88647">
        <ele>496.9</ele>
        <time>2015-11-11T11:49:50Z</time>
      </trkpt>
      <trkpt lat="43.7841" lon="5.88616">
        <ele>496.97</ele>
        <time>2015-11-11T11:49:54Z</time>
      </trkpt>
      <trkpt lat="43.78408" lon="5.88587">
        <ele>495.6</ele>
        <time>2015-11-11T11:49:58Z</time>
      </trkpt>
      <trkpt lat="43.78409" lon="5.88558">
        <ele>493.89</ele>
        <time>2015-11-11T11:50:02Z</time>
      </trkpt>
      <trkpt lat="43.78409" lon="5.88532">
        <ele>493.16</ele>
        <time>2015-11-11T11:50:06Z</time>
      </trkpt>
      <trkpt lat="43.7841" lon="5.88503">
        <ele>494.17</ele>
        <time>2015-11-11T11:50:10Z</time>
      </trkpt>
      <trkpt lat="43.78413" lon="5.88476">
        <ele>495.05</ele>
        <time>2015-11-11T11:50:14Z</time>
      </trkpt>
      <trkpt lat="43.78413" lon="5.88447">
        <ele>494.42</ele>
        <time>2015-11-11T11:50:18Z</time>
      </trkpt>
      <trkpt lat="43.7841" lon="5.88419">
        <ele>495.63</ele>
        <time>2015-11-11T11:50:22Z</time>
      </trkpt>
      <trkpt lat="43.78406" lon="5.8839">
        <ele>496.02</ele>
        <time>2015-11-11T11:50:26Z</time>
      </trkpt>
      <trkpt lat="43.78402" lon="5.88364">
        <ele>495.73</ele>
        <time>2015-11-11T11:50:30Z</time>
      </trkpt>
      <trkpt lat="43.78385" lon="5.88349">
        <ele>496.23</ele>
        <time>2015-11-11T11:50:36Z</time>
      </trkpt>
      <trkpt lat="43.78364" lon="5.88358">
        <ele>496.99</ele>
        <time>2015-11-11T11:50:41Z</time>
      </trkpt>
      <trkpt lat="43.78344" lon="5.88366">
        <ele>498.86</ele>
        <time>2015-11-11T11:50:46Z</time>
      </trkpt>
      <trkpt lat="43.78326" lon="5.88372">
        <ele>499.16</ele>
        <time>2015-11-11T11:50:50Z</time>
      </trkpt>
      <trkpt lat="43.78305" lon="5.88381">
        <ele>501.93</ele>
        <time>2015-11-11T11:50:55Z</time>
      </trkpt>
      <trkpt lat="43.78287" lon="5.88388">
        <ele>502.22</ele>
        <time>2015-11-11T11:50:59Z</time>
      </trkpt>
      <trkpt lat="43.7827" lon="5.88397">
        <ele>501.74</ele>
        <time>2015-11-11T11:51:03Z</time>
      </trkpt>
      <trkpt lat="43.78251" lon="5.88411">
        <ele>499.9</ele>
        <time>2015-11-11T11:51:07Z</time>
      </trkpt>
      <trkpt lat="43.78234" lon="5.88434">
        <ele>496.97</ele>
        <time>2015-11-11T11:51:11Z</time>
      </trkpt>
      <trkpt lat="43.78218" lon="5.88458">
        <ele>495.41</ele>
        <time>2015-11-11T11:51:15Z</time>
      </trkpt>
      <trkpt lat="43.78209" lon="5.88487">
        <ele>492</ele>
        <time>2015-11-11T11:51:19Z</time>
      </trkpt>
      <trkpt lat="43.78196" lon="5.88513">
        <ele>489.85</ele>
        <time>2015-11-11T11:51:23Z</time>
      </trkpt>
      <trkpt lat="43.78182" lon="5.88534">
        <ele>490.19</ele>
        <time>2015-11-11T11:51:26Z</time>
      </trkpt>
      <trkpt lat="43.7817" lon="5.88555">
        <ele>489.49</ele>
        <time>2015-11-11T11:51:29Z</time>
      </trkpt>
      <trkpt lat="43.78157" lon="5.88575">
        <ele>489.27</ele>
        <time>2015-11-11T11:51:32Z</time>
      </trkpt>
      <trkpt lat="43.78141" lon="5.88598">
        <ele>488.37</ele>
        <time>2015-11-11T11:51:36Z</time>
      </trkpt>
      <trkpt lat="43.78128" lon="5.88623">
        <ele>489</ele>
        <time>2015-11-11T11:51:40Z</time>
      </trkpt>
      <trkpt lat="43.78118" lon="5.88646">
        <ele>488.41</ele>
        <time>2015-11-11T11:51:44Z</time>
      </trkpt>
      <trkpt lat="43.78107" lon="5.88669">
        <ele>489</ele>
        <time>2015-11-11T11:51:48Z</time>
      </trkpt>
      <trkpt lat="43.78091" lon="5.8869">
        <ele>489.23</ele>
        <time>2015-11-11T11:51:53Z</time>
      </trkpt>
      <trkpt lat="43.78075" lon="5.88711">
        <ele>488.74</ele>
        <time>2015-11-11T11:51:57Z</time>
      </trkpt>
      <trkpt lat="43.78058" lon="5.88729">
        <ele>487.77</ele>
        <time>2015-11-11T11:52:01Z</time>
      </trkpt>
      <trkpt lat="43.78045" lon="5.88747">
        <ele>488.06</ele>
        <time>2015-11-11T11:52:04Z</time>
      </trkpt>
      <trkpt lat="43.78034" lon="5.88767">
        <ele>487.34</ele>
        <time>2015-11-11T11:52:07Z</time>
      </trkpt>
      <trkpt lat="43.78022" lon="5.88789">
        <ele>486.25</ele>
        <time>2015-11-11T11:52:10Z</time>
      </trkpt>
      <trkpt lat="43.78009" lon="5.88814">
        <ele>484.74</ele>
        <time>2015-11-11T11:52:13Z</time>
      </trkpt>
      <trkpt lat="43.77998" lon="5.88836">
        <ele>484.18</ele>
        <time>2015-11-11T11:52:16Z</time>
      </trkpt>
      <trkpt lat="43.77984" lon="5.88857">
        <ele>483.86</ele>
        <time>2015-11-11T11:52:19Z</time>
      </trkpt>
      <trkpt lat="43.77968" lon="5.88873">
        <ele>484.69</ele>
        <time>2015-11-11T11:52:22Z</time>
      </trkpt>
      <trkpt lat="43.77951" lon="5.88889">
        <ele>485.67</ele>
        <time>2015-11-11T11:52:25Z</time>
      </trkpt>
      <trkpt lat="43.77935" lon="5.88904">
        <ele>486.92</ele>
        <time>2015-11-11T11:52:28Z</time>
      </trkpt>
      <trkpt lat="43.77916" lon="5.8892">
        <ele>487.66</ele>
        <time>2015-11-11T11:52:32Z</time>
      </trkpt>
      <trkpt lat="43.77899" lon="5.88934">
        <ele>488.64</ele>
        <time>2015-11-11T11:52:36Z</time>
      </trkpt>
      <trkpt lat="43.77881" lon="5.88946">
        <ele>488.64</ele>
        <time>2015-11-11T11:52:40Z</time>
      </trkpt>
      <trkpt lat="43.77862" lon="5.88964">
        <ele>488.08</ele>
        <time>2015-11-11T11:52:44Z</time>
      </trkpt>
      <trkpt lat="43.77844" lon="5.88982">
        <ele>486.35</ele>
        <time>2015-11-11T11:52:47Z</time>
      </trkpt>
      <trkpt lat="43.77825" lon="5.88999">
        <ele>485.38</ele>
        <time>2015-11-11T11:52:50Z</time>
      </trkpt>
      <trkpt lat="43.77806" lon="5.89013">
        <ele>483.88</ele>
        <time>2015-11-11T11:52:53Z</time>
      </trkpt>
      <trkpt lat="43.77785" lon="5.8902">
        <ele>482.82</ele>
        <time>2015-11-11T11:52:56Z</time>
      </trkpt>
      <trkpt lat="43.77764" lon="5.89014">
        <ele>482.44</ele>
        <time>2015-11-11T11:52:59Z</time>
      </trkpt>
      <trkpt lat="43.77744" lon="5.89003">
        <ele>484.19</ele>
        <time>2015-11-11T11:53:03Z</time>
      </trkpt>
      <trkpt lat="43.77728" lon="5.88989">
        <ele>484.43</ele>
        <time>2015-11-11T11:53:07Z</time>
      </trkpt>
      <trkpt lat="43.77705" lon="5.88982">
        <ele>486.15</ele>
        <time>2015-11-11T11:53:12Z</time>
      </trkpt>
      <trkpt lat="43.77687" lon="5.8898">
        <ele>486.24</ele>
        <time>2015-11-11T11:53:16Z</time>
      </trkpt>
      <trkpt lat="43.77668" lon="5.8898">
        <ele>486.62</ele>
        <time>2015-11-11T11:53:20Z</time>
      </trkpt>
      <trkpt lat="43.77648" lon="5.88982">
        <ele>487</ele>
        <time>2015-11-11T11:53:25Z</time>
      </trkpt>
      <trkpt lat="43.77628" lon="5.88987">
        <ele>489.11</ele>
        <time>2015-11-11T11:53:33Z</time>
      </trkpt>
      <trkpt lat="43.77609" lon="5.8899">
        <ele>491.57</ele>
        <time>2015-11-11T11:53:41Z</time>
      </trkpt>
      <trkpt lat="43.77589" lon="5.88987">
        <ele>493.68</ele>
        <time>2015-11-11T11:53:49Z</time>
      </trkpt>
      <trkpt lat="43.77571" lon="5.88993">
        <ele>493.99</ele>
        <time>2015-11-11T11:53:57Z</time>
      </trkpt>
      <trkpt lat="43.77556" lon="5.89011">
        <ele>494.27</ele>
        <time>2015-11-11T11:54:04Z</time>
      </trkpt>
      <trkpt lat="43.77549" lon="5.8904">
        <ele>491.84</ele>
        <time>2015-11-11T11:54:09Z</time>
      </trkpt>
      <trkpt lat="43.77545" lon="5.89066">
        <ele>488.44</ele>
        <time>2015-11-11T11:54:12Z</time>
      </trkpt>
      <trkpt lat="43.77536" lon="5.89098">
        <ele>484.39</ele>
        <time>2015-11-11T11:54:15Z</time>
      </trkpt>
      <trkpt lat="43.77525" lon="5.89127">
        <ele>482.01</ele>
        <time>2015-11-11T11:54:18Z</time>
      </trkpt>
      <trkpt lat="43.77506" lon="5.89136">
        <ele>480.59</ele>
        <time>2015-11-11T11:54:21Z</time>
      </trkpt>
      <trkpt lat="43.77481" lon="5.89133">
        <ele>478.16</ele>
        <time>2015-11-11T11:54:24Z</time>
      </trkpt>
      <trkpt lat="43.77455" lon="5.89137">
        <ele>476.48</ele>
        <time>2015-11-11T11:54:27Z</time>
      </trkpt>
      <trkpt lat="43.77432" lon="5.89138">
        <ele>477.65</ele>
        <time>2015-11-11T11:54:30Z</time>
      </trkpt>
      <trkpt lat="43.77414" lon="5.8914">
        <ele>478.38</ele>
        <time>2015-11-11T11:54:35Z</time>
      </trkpt>
      <trkpt lat="43.77396" lon="5.89139">
        <ele>480.19</ele>
        <time>2015-11-11T11:54:46Z</time>
      </trkpt>
      <trkpt lat="43.77377" lon="5.89135">
        <ele>483.71</ele>
        <time>2015-11-11T11:54:58Z</time>
      </trkpt>
      <trkpt lat="43.77361" lon="5.89121">
        <ele>483.8</ele>
        <time>2015-11-11T11:55:09Z</time>
      </trkpt>
      <trkpt lat="43.77351" lon="5.89095">
        <ele>483.15</ele>
        <time>2015-11-11T11:55:17Z</time>
      </trkpt>
      <trkpt lat="43.77345" lon="5.89071">
        <ele>481.61</ele>
        <time>2015-11-11T11:55:20Z</time>
      </trkpt>
      <trkpt lat="43.77335" lon="5.89041">
        <ele>479.01</ele>
        <time>2015-11-11T11:55:24Z</time>
      </trkpt>
      <trkpt lat="43.77321" lon="5.89018">
        <ele>476.71</ele>
        <time>2015-11-11T11:55:27Z</time>
      </trkpt>
      <trkpt lat="43.77304" lon="5.89008">
        <ele>475.05</ele>
        <time>2015-11-11T11:55:30Z</time>
      </trkpt>
      <trkpt lat="43.77284" lon="5.89002">
        <ele>470.29</ele>
        <time>2015-11-11T11:55:34Z</time>
      </trkpt>
      <trkpt lat="43.77266" lon="5.89014">
        <ele>464.09</ele>
        <time>2015-11-11T11:55:54Z</time>
      </trkpt>
      <trkpt lat="43.77247" lon="5.89009">
        <ele>462.05</ele>
        <time>2015-11-11T11:55:59Z</time>
      </trkpt>
      <trkpt lat="43.77233" lon="5.89032">
        <ele>457.05</ele>
        <time>2015-11-11T11:56:04Z</time>
      </trkpt>
      <trkpt lat="43.77213" lon="5.89031">
        <ele>456.27</ele>
        <time>2015-11-11T11:56:09Z</time>
      </trkpt>
      <trkpt lat="43.77197" lon="5.89042">
        <ele>454.27</ele>
        <time>2015-11-11T11:56:17Z</time>
      </trkpt>
      <trkpt lat="43.77177" lon="5.89044">
        <ele>449.25</ele>
        <time>2015-11-11T11:56:25Z</time>
      </trkpt>
      <trkpt lat="43.77161" lon="5.89055">
        <ele>453.88</ele>
        <time>2015-11-11T11:56:32Z</time>
      </trkpt>
      <trkpt lat="43.77141" lon="5.89064">
        <ele>456.7</ele>
        <time>2015-11-11T11:56:41Z</time>
      </trkpt>
      <trkpt lat="43.77128" lon="5.89085">
        <ele>456.45</ele>
        <time>2015-11-11T11:56:50Z</time>
      </trkpt>
      <trkpt lat="43.77109" lon="5.89085">
        <ele>453.56</ele>
        <time>2015-11-11T11:56:59Z</time>
      </trkpt>
      <trkpt lat="43.77093" lon="5.89098">
        <ele>454.51</ele>
        <time>2015-11-11T11:57:10Z</time>
      </trkpt>
      <trkpt lat="43.77075" lon="5.89108">
        <ele>457.65</ele>
        <time>2015-11-11T11:57:21Z</time>
      </trkpt>
      <trkpt lat="43.77058" lon="5.89099">
        <ele>455.65</ele>
        <time>2015-11-11T11:57:29Z</time>
      </trkpt>
      <trkpt lat="43.77049" lon="5.89074">
        <ele>449.75</ele>
        <time>2015-11-11T11:57:34Z</time>
      </trkpt>
      <trkpt lat="43.77033" lon="5.89057">
        <ele>445.31</ele>
        <time>2015-11-11T11:57:41Z</time>
      </trkpt>
      <trkpt lat="43.77018" lon="5.89041">
        <ele>437.31</ele>
        <time>2015-11-11T11:57:47Z</time>
      </trkpt>
      <trkpt lat="43.77007" lon="5.8902">
        <ele>433.48</ele>
        <time>2015-11-11T11:57:53Z</time>
      </trkpt>
      <trkpt lat="43.76991" lon="5.89007">
        <ele>426.14</ele>
        <time>2015-11-11T11:57:59Z</time>
      </trkpt>
      <trkpt lat="43.76975" lon="5.88993">
        <ele>417.3</ele>
        <time>2015-11-11T11:58:14Z</time>
      </trkpt>
      <trkpt lat="43.76961" lon="5.89009">
        <ele>411.77</ele>
        <time>2015-11-11T11:58:39Z</time>
      </trkpt>
      <trkpt lat="43.76944" lon="5.89022">
        <ele>411.02</ele>
        <time>2015-11-11T11:58:47Z</time>
      </trkpt>
      <trkpt lat="43.7694" lon="5.89051">
        <ele>409.68</ele>
        <time>2015-11-11T11:58:53Z</time>
      </trkpt>
      <trkpt lat="43.76936" lon="5.89079">
        <ele>404.76</ele>
        <time>2015-11-11T11:59:01Z</time>
      </trkpt>
      <trkpt lat="43.76934" lon="5.89106">
        <ele>401.72</ele>
        <time>2015-11-11T11:59:09Z</time>
      </trkpt>
      <trkpt lat="43.76938" lon="5.89132">
        <ele>400.45</ele>
        <time>2015-11-11T11:59:16Z</time>
      </trkpt>
      <trkpt lat="43.76932" lon="5.89159">
        <ele>399.53</ele>
        <time>2015-11-11T11:59:29Z</time>
      </trkpt>
      <trkpt lat="43.76916" lon="5.89178">
        <ele>398.78</ele>
        <time>2015-11-11T11:59:34Z</time>
      </trkpt>
      <trkpt lat="43.76908" lon="5.89202">
        <ele>400.12</ele>
        <time>2015-11-11T11:59:41Z</time>
      </trkpt>
      <trkpt lat="43.76907" lon="5.89227">
        <ele>402.25</ele>
        <time>2015-11-11T11:59:48Z</time>
      </trkpt>
      <trkpt lat="43.76892" lon="5.89207">
        <ele>404.29</ele>
        <time>2015-11-11T11:59:57Z</time>
      </trkpt>
      <trkpt lat="43.76891" lon="5.89181">
        <ele>398.87</ele>
        <time>2015-11-11T12:00:03Z</time>
      </trkpt>
      <trkpt lat="43.76889" lon="5.89155">
        <ele>393.91</ele>
        <time>2015-11-11T12:00:11Z</time>
      </trkpt>
      <trkpt lat="43.76871" lon="5.89164">
        <ele>378.11</ele>
        <time>2015-11-11T12:00:28Z</time>
      </trkpt>
      <trkpt lat="43.76856" lon="5.8918">
        <ele>371.07</ele>
        <time>2015-11-11T12:00:34Z</time>
      </trkpt>
      <trkpt lat="43.76844" lon="5.89199">
        <ele>368.26</ele>
        <time>2015-11-11T12:00:41Z</time>
      </trkpt>
      <trkpt lat="43.7684" lon="5.89224">
        <ele>366.94</ele>
        <time>2015-11-11T12:00:55Z</time>
      </trkpt>
      <trkpt lat="43.76833" lon="5.89248">
        <ele>359.44</ele>
        <time>2015-11-11T12:01:07Z</time>
      </trkpt>
      <trkpt lat="43.76834" lon="5.89276">
        <ele>354.68</ele>
        <time>2015-11-11T12:01:14Z</time>
      </trkpt>
      <trkpt lat="43.76835" lon="5.89302">
        <ele>352.76</ele>
        <time>2015-11-11T12:01:20Z</time>
      </trkpt>
      <trkpt lat="43.76834" lon="5.89327">
        <ele>348.97</ele>
        <time>2015-11-11T12:01:27Z</time>
      </trkpt>
      <trkpt lat="43.7683" lon="5.89352">
        <ele>347.09</ele>
        <time>2015-11-11T12:01:34Z</time>
      </trkpt>
      <trkpt lat="43.76829" lon="5.89378">
        <ele>345.98</ele>
        <time>2015-11-11T12:01:42Z</time>
      </trkpt>
      <trkpt lat="43.76809" lon="5.89377">
        <ele>343.57</ele>
        <time>2015-11-11T12:01:51Z</time>
      </trkpt>
      <trkpt lat="43.76796" lon="5.89396">
        <ele>341.07</ele>
        <time>2015-11-11T12:01:55Z</time>
      </trkpt>
      <trkpt lat="43.76805" lon="5.89418">
        <ele>339.73</ele>
        <time>2015-11-11T12:01:59Z</time>
      </trkpt>
      <trkpt lat="43.7682" lon="5.89439">
        <ele>337.52</ele>
        <time>2015-11-11T12:02:03Z</time>
      </trkpt>
      <trkpt lat="43.76834" lon="5.89462">
        <ele>336.07</ele>
        <time>2015-11-11T12:02:07Z</time>
      </trkpt>
      <trkpt lat="43.76847" lon="5.8948">
        <ele>336.97</ele>
        <time>2015-11-11T12:02:10Z</time>
      </trkpt>
      <trkpt lat="43.7686" lon="5.89497">
        <ele>337.08</ele>
        <time>2015-11-11T12:02:13Z</time>
      </trkpt>
      <trkpt lat="43.76872" lon="5.89518">
        <ele>335.1</ele>
        <time>2015-11-11T12:02:16Z</time>
      </trkpt>
      <trkpt lat="43.76888" lon="5.89535">
        <ele>334.35</ele>
        <time>2015-11-11T12:02:19Z</time>
      </trkpt>
      <trkpt lat="43.76907" lon="5.89547">
        <ele>334.75</ele>
        <time>2015-11-11T12:02:23Z</time>
      </trkpt>
      <trkpt lat="43.76925" lon="5.89559">
        <ele>334.73</ele>
        <time>2015-11-11T12:02:28Z</time>
      </trkpt>
      <trkpt lat="43.76939" lon="5.89577">
        <ele>334.67</ele>
        <time>2015-11-11T12:02:34Z</time>
      </trkpt>
      <trkpt lat="43.7693" lon="5.89603">
        <ele>334.21</ele>
        <time>2015-11-11T12:02:50Z</time>
      </trkpt>
      <trkpt lat="43.76913" lon="5.89624">
        <ele>332.86</ele>
        <time>2015-11-11T12:02:54Z</time>
      </trkpt>
      <trkpt lat="43.76902" lon="5.89645">
        <ele>331.57</ele>
        <time>2015-11-11T12:02:57Z</time>
      </trkpt>
      <trkpt lat="43.76895" lon="5.89669">
        <ele>330.91</ele>
        <time>2015-11-11T12:03:00Z</time>
      </trkpt>
      <trkpt lat="43.76875" lon="5.89675">
        <ele>331.99</ele>
        <time>2015-11-11T12:03:07Z</time>
      </trkpt>
      <trkpt lat="43.76858" lon="5.89654">
        <ele>332.23</ele>
        <time>2015-11-11T12:03:12Z</time>
      </trkpt>
      <trkpt lat="43.7684" lon="5.89658">
        <ele>331.76</ele>
        <time>2015-11-11T12:03:19Z</time>
      </trkpt>
      <trkpt lat="43.76823" lon="5.89669">
        <ele>329.88</ele>
        <time>2015-11-11T12:03:24Z</time>
      </trkpt>
      <trkpt lat="43.76806" lon="5.89679">
        <ele>328.26</ele>
        <time>2015-11-11T12:03:29Z</time>
      </trkpt>
      <trkpt lat="43.76792" lon="5.89698">
        <ele>325.84</ele>
        <time>2015-11-11T12:03:34Z</time>
      </trkpt>
      <trkpt lat="43.76783" lon="5.89722">
        <ele>326</ele>
        <time>2015-11-11T12:03:40Z</time>
      </trkpt>
      <trkpt lat="43.76776" lon="5.89749">
        <ele>326.93</ele>
        <time>2015-11-11T12:03:46Z</time>
      </trkpt>
      <trkpt lat="43.7677" lon="5.89773">
        <ele>329.04</ele>
        <time>2015-11-11T12:03:51Z</time>
      </trkpt>
      <trkpt lat="43.76762" lon="5.89796">
        <ele>333.99</ele>
        <time>2015-11-11T12:03:56Z</time>
      </trkpt>
      <trkpt lat="43.76742" lon="5.89803">
        <ele>339.51</ele>
        <time>2015-11-11T12:04:09Z</time>
      </trkpt>
      <trkpt lat="43.76725" lon="5.89815">
        <ele>338.99</ele>
        <time>2015-11-11T12:04:16Z</time>
      </trkpt>
      <trkpt lat="43.76708" lon="5.89803">
        <ele>340.12</ele>
        <time>2015-11-11T12:04:23Z</time>
      </trkpt>
      <trkpt lat="43.76692" lon="5.89786">
        <ele>341.68</ele>
        <time>2015-11-11T12:04:30Z</time>
      </trkpt>
      <trkpt lat="43.76678" lon="5.89767">
        <ele>344.33</ele>
        <time>2015-11-11T12:04:37Z</time>
      </trkpt>
      <trkpt lat="43.76661" lon="5.89752">
        <ele>343.59</ele>
        <time>2015-11-11T12:04:45Z</time>
      </trkpt>
      <trkpt lat="43.76645" lon="5.89763">
        <ele>350.84</ele>
        <time>2015-11-11T12:05:01Z</time>
      </trkpt>
      <trkpt lat="43.76631" lon="5.89781">
        <ele>353.19</ele>
        <time>2015-11-11T12:05:18Z</time>
      </trkpt>
      <trkpt lat="43.76617" lon="5.89796">
        <ele>351.34</ele>
        <time>2015-11-11T12:05:29Z</time>
      </trkpt>
      <trkpt lat="43.76612" lon="5.89772">
        <ele>353.33</ele>
        <time>2015-11-11T12:05:45Z</time>
      </trkpt>
      <trkpt lat="43.76612" lon="5.89747">
        <ele>358.6</ele>
        <time>2015-11-11T12:05:57Z</time>
      </trkpt>
      <trkpt lat="43.7661" lon="5.89721">
        <ele>360.33</ele>
        <time>2015-11-11T12:06:12Z</time>
      </trkpt>
      <trkpt lat="43.76602" lon="5.89695">
        <ele>360.99</ele>
        <time>2015-11-11T12:06:21Z</time>
      </trkpt>
      <trkpt lat="43.76599" lon="5.89663">
        <ele>357.14</ele>
        <time>2015-11-11T12:06:28Z</time>
      </trkpt>
      <trkpt lat="43.76587" lon="5.89642">
        <ele>353.74</ele>
        <time>2015-11-11T12:06:32Z</time>
      </trkpt>
      <trkpt lat="43.76568" lon="5.89622">
        <ele>351.77</ele>
        <time>2015-11-11T12:06:36Z</time>
      </trkpt>
      <trkpt lat="43.76559" lon="5.896">
        <ele>350.43</ele>
        <time>2015-11-11T12:06:39Z</time>
      </trkpt>
      <trkpt lat="43.76541" lon="5.89598">
        <ele>347.97</ele>
        <time>2015-11-11T12:06:46Z</time>
      </trkpt>
      <trkpt lat="43.7653" lon="5.89618">
        <ele>346.32</ele>
        <time>2015-11-11T12:06:52Z</time>
      </trkpt>
      <trkpt lat="43.76517" lon="5.89639">
        <ele>347.27</ele>
        <time>2015-11-11T12:06:59Z</time>
      </trkpt>
      <trkpt lat="43.76501" lon="5.89655">
        <ele>347.75</ele>
        <time>2015-11-11T12:07:08Z</time>
      </trkpt>
      <trkpt lat="43.76485" lon="5.89669">
        <ele>348.68</ele>
        <time>2015-11-11T12:07:17Z</time>
      </trkpt>
      <trkpt lat="43.76467" lon="5.89677">
        <ele>348.25</ele>
        <time>2015-11-11T12:07:25Z</time>
      </trkpt>
      <trkpt lat="43.76452" lon="5.89692">
        <ele>347.81</ele>
        <time>2015-11-11T12:07:32Z</time>
      </trkpt>
      <trkpt lat="43.76432" lon="5.89704">
        <ele>348.35</ele>
        <time>2015-11-11T12:07:39Z</time>
      </trkpt>
      <trkpt lat="43.76415" lon="5.89711">
        <ele>348.75</ele>
        <time>2015-11-11T12:07:43Z</time>
      </trkpt>
      <trkpt lat="43.76396" lon="5.89718">
        <ele>351.19</ele>
        <time>2015-11-11T12:07:51Z</time>
      </trkpt>
      <trkpt lat="43.76381" lon="5.89702">
        <ele>352.55</ele>
        <time>2015-11-11T12:08:00Z</time>
      </trkpt>
      <trkpt lat="43.76371" lon="5.8968">
        <ele>351.06</ele>
        <time>2015-11-11T12:08:17Z</time>
      </trkpt>
      <trkpt lat="43.7638" lon="5.89658">
        <ele>349.52</ele>
        <time>2015-11-11T12:08:28Z</time>
      </trkpt>
      <trkpt lat="43.76384" lon="5.89634">
        <ele>346.26</ele>
        <time>2015-11-11T12:08:37Z</time>
      </trkpt>
      <trkpt lat="43.7639" lon="5.89606">
        <ele>348.18</ele>
        <time>2015-11-11T12:08:42Z</time>
      </trkpt>
      <trkpt lat="43.76384" lon="5.89576">
        <ele>347.36</ele>
        <time>2015-11-11T12:08:46Z</time>
      </trkpt>
      <trkpt lat="43.76375" lon="5.89549">
        <ele>346.31</ele>
        <time>2015-11-11T12:08:50Z</time>
      </trkpt>
      <trkpt lat="43.76354" lon="5.89541">
        <ele>345.53</ele>
        <time>2015-11-11T12:08:55Z</time>
      </trkpt>
      <trkpt lat="43.76336" lon="5.89531">
        <ele>345.97</ele>
        <time>2015-11-11T12:09:01Z</time>
      </trkpt>
      <trkpt lat="43.76319" lon="5.89517">
        <ele>347.99</ele>
        <time>2015-11-11T12:09:08Z</time>
      </trkpt>
      <trkpt lat="43.76312" lon="5.89541">
        <ele>347.07</ele>
        <time>2015-11-11T12:09:25Z</time>
      </trkpt>
      <trkpt lat="43.76317" lon="5.89569">
        <ele>348.21</ele>
        <time>2015-11-11T12:09:32Z</time>
      </trkpt>
      <trkpt lat="43.76326" lon="5.89593">
        <ele>349.23</ele>
        <time>2015-11-11T12:09:39Z</time>
      </trkpt>
      <trkpt lat="43.76332" lon="5.89618">
        <ele>350.23</ele>
        <time>2015-11-11T12:09:46Z</time>
      </trkpt>
      <trkpt lat="43.76322" lon="5.8964">
        <ele>356.43</ele>
        <time>2015-11-11T12:10:05Z</time>
      </trkpt>
      <trkpt lat="43.76323" lon="5.89667">
        <ele>359.36</ele>
        <time>2015-11-11T12:10:20Z</time>
      </trkpt>
      <trkpt lat="43.76317" lon="5.89691">
        <ele>361.18</ele>
        <time>2015-11-11T12:10:36Z</time>
      </trkpt>
      <trkpt lat="43.7631" lon="5.89714">
        <ele>358.09</ele>
        <time>2015-11-11T12:10:47Z</time>
      </trkpt>
      <trkpt lat="43.763" lon="5.89738">
        <ele>356.01</ele>
        <time>2015-11-11T12:10:56Z</time>
      </trkpt>
      <trkpt lat="43.76282" lon="5.89745">
        <ele>358.4</ele>
        <time>2015-11-11T12:11:03Z</time>
      </trkpt>
      <trkpt lat="43.76262" lon="5.89749">
        <ele>356.17</ele>
        <time>2015-11-11T12:11:09Z</time>
      </trkpt>
      <trkpt lat="43.76245" lon="5.89763">
        <ele>352.8</ele>
        <time>2015-11-11T12:11:15Z</time>
      </trkpt>
      <trkpt lat="43.76225" lon="5.89762">
        <ele>351.55</ele>
        <time>2015-11-11T12:11:23Z</time>
      </trkpt>
      <trkpt lat="43.76209" lon="5.8974">
        <ele>351.64</ele>
        <time>2015-11-11T12:11:27Z</time>
      </trkpt>
      <trkpt lat="43.7619" lon="5.89727">
        <ele>351.95</ele>
        <time>2015-11-11T12:11:31Z</time>
      </trkpt>
      <trkpt lat="43.7617" lon="5.89722">
        <ele>350.29</ele>
        <time>2015-11-11T12:11:35Z</time>
      </trkpt>
      <trkpt lat="43.76152" lon="5.89712">
        <ele>349.52</ele>
        <time>2015-11-11T12:11:40Z</time>
      </trkpt>
      <trkpt lat="43.76138" lon="5.89691">
        <ele>353.29</ele>
        <time>2015-11-11T12:11:46Z</time>
      </trkpt>
      <trkpt lat="43.76121" lon="5.89676">
        <ele>351.24</ele>
        <time>2015-11-11T12:11:51Z</time>
      </trkpt>
      <trkpt lat="43.76108" lon="5.89655">
        <ele>351.05</ele>
        <time>2015-11-11T12:11:55Z</time>
      </trkpt>
      <trkpt lat="43.76092" lon="5.89636">
        <ele>351.42</ele>
        <time>2015-11-11T12:12:00Z</time>
      </trkpt>
      <trkpt lat="43.76075" lon="5.89627">
        <ele>352.19</ele>
        <time>2015-11-11T12:12:04Z</time>
      </trkpt>
      <trkpt lat="43.76069" lon="5.89655">
        <ele>348.51</ele>
        <time>2015-11-11T12:12:10Z</time>
      </trkpt>
      <trkpt lat="43.76066" lon="5.89687">
        <ele>347.51</ele>
        <time>2015-11-11T12:12:14Z</time>
      </trkpt>
      <trkpt lat="43.76063" lon="5.89719">
        <ele>347.38</ele>
        <time>2015-11-11T12:12:18Z</time>
      </trkpt>
      <trkpt lat="43.76072" lon="5.89749">
        <ele>347.06</ele>
        <time>2015-11-11T12:12:22Z</time>
      </trkpt>
      <trkpt lat="43.76086" lon="5.89773">
        <ele>347.23</ele>
        <time>2015-11-11T12:12:26Z</time>
      </trkpt>
      <trkpt lat="43.76104" lon="5.8979">
        <ele>346.87</ele>
        <time>2015-11-11T12:12:30Z</time>
      </trkpt>
      <trkpt lat="43.76123" lon="5.89803">
        <ele>348.91</ele>
        <time>2015-11-11T12:12:34Z</time>
      </trkpt>
      <trkpt lat="43.76114" lon="5.89825">
        <ele>348.01</ele>
        <time>2015-11-11T12:12:41Z</time>
      </trkpt>
      <trkpt lat="43.76095" lon="5.89818">
        <ele>346.54</ele>
        <time>2015-11-11T12:12:45Z</time>
      </trkpt>
      <trkpt lat="43.76073" lon="5.8981">
        <ele>344.75</ele>
        <time>2015-11-11T12:12:50Z</time>
      </trkpt>
      <trkpt lat="43.76052" lon="5.89816">
        <ele>343.84</ele>
        <time>2015-11-11T12:12:54Z</time>
      </trkpt>
      <trkpt lat="43.76037" lon="5.89836">
        <ele>342.03</ele>
        <time>2015-11-11T12:12:58Z</time>
      </trkpt>
      <trkpt lat="43.76025" lon="5.89859">
        <ele>340.17</ele>
        <time>2015-11-11T12:13:02Z</time>
      </trkpt>
      <trkpt lat="43.76027" lon="5.89886">
        <ele>337.86</ele>
        <time>2015-11-11T12:13:05Z</time>
      </trkpt>
      <trkpt lat="43.76029" lon="5.89919">
        <ele>337.28</ele>
        <time>2015-11-11T12:13:09Z</time>
      </trkpt>
      <trkpt lat="43.76025" lon="5.89946">
        <ele>337.74</ele>
        <time>2015-11-11T12:13:13Z</time>
      </trkpt>
      <trkpt lat="43.76011" lon="5.89967">
        <ele>339.98</ele>
        <time>2015-11-11T12:13:22Z</time>
      </trkpt>
      <trkpt lat="43.75991" lon="5.89973">
        <ele>339.64</ele>
        <time>2015-11-11T12:13:27Z</time>
      </trkpt>
      <trkpt lat="43.75971" lon="5.89975">
        <ele>338.29</ele>
        <time>2015-11-11T12:13:32Z</time>
      </trkpt>
      <trkpt lat="43.7595" lon="5.89977">
        <ele>337.87</ele>
        <time>2015-11-11T12:13:37Z</time>
      </trkpt>
      <trkpt lat="43.7593" lon="5.8998">
        <ele>338.22</ele>
        <time>2015-11-11T12:13:41Z</time>
      </trkpt>
      <trkpt lat="43.75908" lon="5.89979">
        <ele>337.74</ele>
        <time>2015-11-11T12:13:45Z</time>
      </trkpt>
      <trkpt lat="43.75889" lon="5.89973">
        <ele>337.77</ele>
        <time>2015-11-11T12:13:49Z</time>
      </trkpt>
      <trkpt lat="43.75867" lon="5.89963">
        <ele>336.59</ele>
        <time>2015-11-11T12:13:53Z</time>
      </trkpt>
      <trkpt lat="43.75844" lon="5.89958">
        <ele>336.33</ele>
        <time>2015-11-11T12:13:57Z</time>
      </trkpt>
      <trkpt lat="43.75833" lon="5.89936">
        <ele>332.43</ele>
        <time>2015-11-11T12:14:01Z</time>
      </trkpt>
      <trkpt lat="43.75818" lon="5.89918">
        <ele>329.78</ele>
        <time>2015-11-11T12:14:08Z</time>
      </trkpt>
      <trkpt lat="43.75797" lon="5.89915">
        <ele>328.53</ele>
        <time>2015-11-11T12:14:12Z</time>
      </trkpt>
      <trkpt lat="43.75776" lon="5.89915">
        <ele>328.63</ele>
        <time>2015-11-11T12:14:16Z</time>
      </trkpt>
      <trkpt lat="43.75754" lon="5.89902">
        <ele>327.83</ele>
        <time>2015-11-11T12:14:20Z</time>
      </trkpt>
      <trkpt lat="43.75736" lon="5.8989">
        <ele>328.19</ele>
        <time>2015-11-11T12:14:23Z</time>
      </trkpt>
      <trkpt lat="43.75717" lon="5.8988">
        <ele>328.24</ele>
        <time>2015-11-11T12:14:26Z</time>
      </trkpt>
      <trkpt lat="43.75699" lon="5.89868">
        <ele>327.74</ele>
        <time>2015-11-11T12:14:29Z</time>
      </trkpt>
      <trkpt lat="43.75675" lon="5.89863">
        <ele>326.65</ele>
        <time>2015-11-11T12:14:33Z</time>
      </trkpt>
      <trkpt lat="43.75654" lon="5.89859">
        <ele>325.42</ele>
        <time>2015-11-11T12:14:36Z</time>
      </trkpt>
      <trkpt lat="43.75636" lon="5.89857">
        <ele>324.89</ele>
        <time>2015-11-11T12:14:39Z</time>
      </trkpt>
      <trkpt lat="43.75613" lon="5.89854">
        <ele>326.03</ele>
        <time>2015-11-11T12:14:43Z</time>
      </trkpt>
      <trkpt lat="43.75595" lon="5.89863">
        <ele>323.84</ele>
        <time>2015-11-11T12:14:46Z</time>
      </trkpt>
      <trkpt lat="43.75584" lon="5.89887">
        <ele>321.53</ele>
        <time>2015-11-11T12:14:50Z</time>
      </trkpt>
      <trkpt lat="43.75584" lon="5.89917">
        <ele>322.2</ele>
        <time>2015-11-11T12:14:54Z</time>
      </trkpt>
      <trkpt lat="43.75594" lon="5.89941">
        <ele>322.11</ele>
        <time>2015-11-11T12:14:58Z</time>
      </trkpt>
      <trkpt lat="43.75599" lon="5.89969">
        <ele>321.05</ele>
        <time>2015-11-11T12:15:02Z</time>
      </trkpt>
      <trkpt lat="43.75603" lon="5.89995">
        <ele>319.84</ele>
        <time>2015-11-11T12:15:05Z</time>
      </trkpt>
      <trkpt lat="43.75615" lon="5.90025">
        <ele>318.82</ele>
        <time>2015-11-11T12:15:08Z</time>
      </trkpt>
      <trkpt lat="43.75627" lon="5.90056">
        <ele>316.94</ele>
        <time>2015-11-11T12:15:11Z</time>
      </trkpt>
      <trkpt lat="43.75637" lon="5.90085">
        <ele>317.95</ele>
        <time>2015-11-11T12:15:14Z</time>
      </trkpt>
      <trkpt lat="43.75646" lon="5.90113">
        <ele>317.58</ele>
        <time>2015-11-11T12:15:17Z</time>
      </trkpt>
      <trkpt lat="43.75633" lon="5.90137">
        <ele>316.33</ele>
        <time>2015-11-11T12:15:21Z</time>
      </trkpt>
      <trkpt lat="43.75612" lon="5.90147">
        <ele>314.13</ele>
        <time>2015-11-11T12:15:24Z</time>
      </trkpt>
      <trkpt lat="43.75597" lon="5.90164">
        <ele>313.1</ele>
        <time>2015-11-11T12:15:27Z</time>
      </trkpt>
      <trkpt lat="43.75592" lon="5.90192">
        <ele>312.47</ele>
        <time>2015-11-11T12:15:30Z</time>
      </trkpt>
      <trkpt lat="43.75599" lon="5.90223">
        <ele>310.52</ele>
        <time>2015-11-11T12:15:33Z</time>
      </trkpt>
      <trkpt lat="43.7561" lon="5.90254">
        <ele>307.4</ele>
        <time>2015-11-11T12:15:36Z</time>
      </trkpt>
      <trkpt lat="43.75619" lon="5.90281">
        <ele>306.76</ele>
        <time>2015-11-11T12:15:39Z</time>
      </trkpt>
      <trkpt lat="43.75626" lon="5.90309">
        <ele>305.81</ele>
        <time>2015-11-11T12:15:42Z</time>
      </trkpt>
      <trkpt lat="43.75632" lon="5.90333">
        <ele>306.54</ele>
        <time>2015-11-11T12:15:47Z</time>
      </trkpt>
      <trkpt lat="43.75629" lon="5.90358">
        <ele>308.13</ele>
        <time>2015-11-11T12:15:52Z</time>
      </trkpt>
      <trkpt lat="43.75632" lon="5.90388">
        <ele>307.52</ele>
        <time>2015-11-11T12:15:57Z</time>
      </trkpt>
      <trkpt lat="43.75639" lon="5.90411">
        <ele>307.76</ele>
        <time>2015-11-11T12:16:01Z</time>
      </trkpt>
      <trkpt lat="43.75644" lon="5.90436">
        <ele>309.09</ele>
        <time>2015-11-11T12:16:05Z</time>
      </trkpt>
      <trkpt lat="43.75646" lon="5.90466">
        <ele>309.52</ele>
        <time>2015-11-11T12:16:10Z</time>
      </trkpt>
      <trkpt lat="43.75651" lon="5.90494">
        <ele>309.5</ele>
        <time>2015-11-11T12:16:15Z</time>
      </trkpt>
      <trkpt lat="43.75653" lon="5.90523">
        <ele>310.63</ele>
        <time>2015-11-11T12:16:20Z</time>
      </trkpt>
      <trkpt lat="43.75656" lon="5.9055">
        <ele>310.32</ele>
        <time>2015-11-11T12:16:25Z</time>
      </trkpt>
      <trkpt lat="43.75657" lon="5.90578">
        <ele>309.99</ele>
        <time>2015-11-11T12:16:30Z</time>
      </trkpt>
      <trkpt lat="43.75656" lon="5.90605">
        <ele>309.36</ele>
        <time>2015-11-11T12:16:35Z</time>
      </trkpt>
      <trkpt lat="43.75653" lon="5.90636">
        <ele>308.56</ele>
        <time>2015-11-11T12:16:39Z</time>
      </trkpt>
      <trkpt lat="43.75655" lon="5.90663">
        <ele>307.32</ele>
        <time>2015-11-11T12:16:43Z</time>
      </trkpt>
      <trkpt lat="43.75654" lon="5.9069">
        <ele>306.31</ele>
        <time>2015-11-11T12:16:47Z</time>
      </trkpt>
      <trkpt lat="43.75655" lon="5.90716">
        <ele>306.06</ele>
        <time>2015-11-11T12:16:51Z</time>
      </trkpt>
      <trkpt lat="43.75656" lon="5.90743">
        <ele>306.04</ele>
        <time>2015-11-11T12:16:55Z</time>
      </trkpt>
      <trkpt lat="43.75657" lon="5.90775">
        <ele>307.52</ele>
        <time>2015-11-11T12:17:00Z</time>
      </trkpt>
      <trkpt lat="43.75662" lon="5.90799">
        <ele>307.26</ele>
        <time>2015-11-11T12:17:04Z</time>
      </trkpt>
      <trkpt lat="43.7567" lon="5.90823">
        <ele>308.49</ele>
        <time>2015-11-11T12:17:09Z</time>
      </trkpt>
      <trkpt lat="43.75666" lon="5.90848">
        <ele>305.12</ele>
        <time>2015-11-11T12:17:16Z</time>
      </trkpt>
      <trkpt lat="43.75657" lon="5.90823">
        <ele>305.24</ele>
        <time>2015-11-11T12:17:21Z</time>
      </trkpt>
      <trkpt lat="43.7565" lon="5.90796">
        <ele>304.74</ele>
        <time>2015-11-11T12:17:25Z</time>
      </trkpt>
      <trkpt lat="43.75646" lon="5.90766">
        <ele>304.65</ele>
        <time>2015-11-11T12:17:29Z</time>
      </trkpt>
      <trkpt lat="43.75646" lon="5.90734">
        <ele>304.77</ele>
        <time>2015-11-11T12:17:33Z</time>
      </trkpt>
      <trkpt lat="43.75644" lon="5.90704">
        <ele>304.71</ele>
        <time>2015-11-11T12:17:37Z</time>
      </trkpt>
      <trkpt lat="43.75641" lon="5.90672">
        <ele>306.15</ele>
        <time>2015-11-11T12:17:41Z</time>
      </trkpt>
      <trkpt lat="43.75638" lon="5.90647">
        <ele>307.48</ele>
        <time>2015-11-11T12:17:44Z</time>
      </trkpt>
      <trkpt lat="43.75635" lon="5.90616">
        <ele>308.13</ele>
        <time>2015-11-11T12:17:48Z</time>
      </trkpt>
      <trkpt lat="43.75635" lon="5.9059">
        <ele>308.98</ele>
        <time>2015-11-11T12:17:51Z</time>
      </trkpt>
      <trkpt lat="43.75637" lon="5.90561">
        <ele>310.85</ele>
        <time>2015-11-11T12:17:55Z</time>
      </trkpt>
      <trkpt lat="43.75638" lon="5.90531">
        <ele>311.47</ele>
        <time>2015-11-11T12:17:59Z</time>
      </trkpt>
      <trkpt lat="43.75632" lon="5.905">
        <ele>311.01</ele>
        <time>2015-11-11T12:18:03Z</time>
      </trkpt>
      <trkpt lat="43.75621" lon="5.90471">
        <ele>308.98</ele>
        <time>2015-11-11T12:18:07Z</time>
      </trkpt>
      <trkpt lat="43.75606" lon="5.90454">
        <ele>310.58</ele>
        <time>2015-11-11T12:18:10Z</time>
      </trkpt>
      <trkpt lat="43.75595" lon="5.90429">
        <ele>307.03</ele>
        <time>2015-11-11T12:18:13Z</time>
      </trkpt>
      <trkpt lat="43.75587" lon="5.90403">
        <ele>304.97</ele>
        <time>2015-11-11T12:18:16Z</time>
      </trkpt>
      <trkpt lat="43.75584" lon="5.90377">
        <ele>303.46</ele>
        <time>2015-11-11T12:18:19Z</time>
      </trkpt>
      <trkpt lat="43.75578" lon="5.90346">
        <ele>302.44</ele>
        <time>2015-11-11T12:18:23Z</time>
      </trkpt>
      <trkpt lat="43.75573" lon="5.90319">
        <ele>303.27</ele>
        <time>2015-11-11T12:18:26Z</time>
      </trkpt>
      <trkpt lat="43.75567" lon="5.90293">
        <ele>301.87</ele>
        <time>2015-11-11T12:18:29Z</time>
      </trkpt>
      <trkpt lat="43.75557" lon="5.90263">
        <ele>303.09</ele>
        <time>2015-11-11T12:18:33Z</time>
      </trkpt>
      <trkpt lat="43.75547" lon="5.90234">
        <ele>303.98</ele>
        <time>2015-11-11T12:18:37Z</time>
      </trkpt>
      <trkpt lat="43.75538" lon="5.90206">
        <ele>304.23</ele>
        <time>2015-11-11T12:18:41Z</time>
      </trkpt>
      <trkpt lat="43.75526" lon="5.90178">
        <ele>304.74</ele>
        <time>2015-11-11T12:18:45Z</time>
      </trkpt>
      <trkpt lat="43.75514" lon="5.90153">
        <ele>305.15</ele>
        <time>2015-11-11T12:18:49Z</time>
      </trkpt>
      <trkpt lat="43.75501" lon="5.90129">
        <ele>307.3</ele>
        <time>2015-11-11T12:18:53Z</time>
      </trkpt>
      <trkpt lat="43.75492" lon="5.90099">
        <ele>305.31</ele>
        <time>2015-11-11T12:18:57Z</time>
      </trkpt>
      <trkpt lat="43.7548" lon="5.90072">
        <ele>303.87</ele>
        <time>2015-11-11T12:19:01Z</time>
      </trkpt>
      <trkpt lat="43.75467" lon="5.90046">
        <ele>304.28</ele>
        <time>2015-11-11T12:19:05Z</time>
      </trkpt>
      <trkpt lat="43.75459" lon="5.90023">
        <ele>305.5</ele>
        <time>2015-11-11T12:19:08Z</time>
      </trkpt>
      <trkpt lat="43.75453" lon="5.89994">
        <ele>305.26</ele>
        <time>2015-11-11T12:19:12Z</time>
      </trkpt>
      <trkpt lat="43.75448" lon="5.89963">
        <ele>304.31</ele>
        <time>2015-11-11T12:19:16Z</time>
      </trkpt>
      <trkpt lat="43.75448" lon="5.89933">
        <ele>305</ele>
        <time>2015-11-11T12:19:20Z</time>
      </trkpt>
      <trkpt lat="43.75449" lon="5.89905">
        <ele>305.35</ele>
        <time>2015-11-11T12:19:24Z</time>
      </trkpt>
      <trkpt lat="43.75453" lon="5.89878">
        <ele>306.18</ele>
        <time>2015-11-11T12:19:29Z</time>
      </trkpt>
      <trkpt lat="43.75436" lon="5.89873">
        <ele>301.85</ele>
        <time>2015-11-11T12:19:35Z</time>
      </trkpt>
      <trkpt lat="43.75417" lon="5.89871">
        <ele>299.09</ele>
        <time>2015-11-11T12:19:39Z</time>
      </trkpt>
      <trkpt lat="43.75398" lon="5.89873">
        <ele>296.17</ele>
        <time>2015-11-11T12:19:43Z</time>
      </trkpt>
      <trkpt lat="43.75378" lon="5.89873">
        <ele>296.23</ele>
        <time>2015-11-11T12:19:46Z</time>
      </trkpt>
      <trkpt lat="43.75365" lon="5.89855">
        <ele>296.65</ele>
        <time>2015-11-11T12:19:51Z</time>
      </trkpt>
      <trkpt lat="43.75363" lon="5.89823">
        <ele>299.95</ele>
        <time>2015-11-11T12:19:57Z</time>
      </trkpt>
      <trkpt lat="43.75364" lon="5.89794">
        <ele>295.47</ele>
        <time>2015-11-11T12:20:03Z</time>
      </trkpt>
      <trkpt lat="43.75366" lon="5.89767">
        <ele>294.92</ele>
        <time>2015-11-11T12:20:09Z</time>
      </trkpt>
      <trkpt lat="43.75368" lon="5.89739">
        <ele>297.36</ele>
        <time>2015-11-11T12:20:16Z</time>
      </trkpt>
      <trkpt lat="43.7537" lon="5.89712">
        <ele>295.3</ele>
        <time>2015-11-11T12:20:25Z</time>
      </trkpt>
    </trkseg>
  </trk>
</gpx>